<?xml version="1.0" encoding="UTF-8" standalone="no" ?>
<gpx xmlns="http://www.topografix.com/GPX/1/1" xmlns:xsi="http://www.w3.org/2001/XMLSchema-instance" xsi:schemaLocation="http://www.topografix.com/GPX/1/1 http://www.topografix.com/GPX/1/1/gpx.xsd" version="1.1" creator="VisuGPX - https://www.visugpx.com">
  <metadata>
    <name>6 Seez Les Arcs- La Clusaz</name>
    <desc><![CDATA[Seez les Arcs- 
D902- Le Mollard- Droite D902- 
Cormet de Roselend- 
D925- Lac de Roselend
Col du Meraillet- Beaufort- 1.3 km Droite (Manant) 
D218b- Hauteluce- 
Les Saisies- Le Planay
Notre Dame de Bellecombe- 
gauche D909 Flumet- 
La Giettaz- Col des Aravis
La Serra à gauche D16- 
Billon- 
Auberge de la Clusaz Rte du col de Croix Fry (3 km avant la Clusaz)]]></desc>
  </metadata>
  <trk>
    <name><![CDATA[9834647-6SeezLesArcs-La Clusaz]]></name>
    <trkseg>
      <trkpt lat="45.61323" lon="6.82157">
        <ele>844</ele>
        <time>2019-09-03T20:05:18Z</time>
      </trkpt>
      <trkpt lat="45.61322" lon="6.82177">
        <ele>845</ele>
        <time>2019-09-03T20:05:20Z</time>
      </trkpt>
      <trkpt lat="45.61317" lon="6.82196">
        <ele>846</ele>
        <time>2019-09-03T20:05:23Z</time>
      </trkpt>
      <trkpt lat="45.61299" lon="6.82256">
        <ele>849</ele>
        <time>2019-09-03T20:05:31Z</time>
      </trkpt>
      <trkpt lat="45.6133" lon="6.82269">
        <ele>842</ele>
        <time>2019-09-03T20:05:37Z</time>
      </trkpt>
      <trkpt lat="45.61334" lon="6.82268">
        <ele>842</ele>
        <time>2019-09-03T20:05:38Z</time>
      </trkpt>
      <trkpt lat="45.61338" lon="6.82264">
        <ele>842</ele>
        <time>2019-09-03T20:05:38Z</time>
      </trkpt>
      <trkpt lat="45.61362" lon="6.82229">
        <ele>843</ele>
        <time>2019-09-03T20:05:45Z</time>
      </trkpt>
      <trkpt lat="45.61397" lon="6.82213">
        <ele>845</ele>
        <time>2019-09-03T20:05:51Z</time>
      </trkpt>
      <trkpt lat="45.61456" lon="6.82171">
        <ele>847</ele>
        <time>2019-09-03T20:06:03Z</time>
      </trkpt>
      <trkpt lat="45.61464" lon="6.82169">
        <ele>848</ele>
        <time>2019-09-03T20:06:04Z</time>
      </trkpt>
      <trkpt lat="45.61471" lon="6.82172">
        <ele>849</ele>
        <time>2019-09-03T20:06:06Z</time>
      </trkpt>
      <trkpt lat="45.61484" lon="6.82184">
        <ele>852</ele>
        <time>2019-09-03T20:06:08Z</time>
      </trkpt>
      <trkpt lat="45.6151" lon="6.82169">
        <ele>854</ele>
        <time>2019-09-03T20:06:13Z</time>
      </trkpt>
      <trkpt lat="45.61527" lon="6.82156">
        <ele>858</ele>
        <time>2019-09-03T20:06:17Z</time>
      </trkpt>
      <trkpt lat="45.61534" lon="6.82156">
        <ele>860</ele>
        <time>2019-09-03T20:06:18Z</time>
      </trkpt>
      <trkpt lat="45.61551" lon="6.82118">
        <ele>861</ele>
        <time>2019-09-03T20:06:24Z</time>
      </trkpt>
      <trkpt lat="45.61681" lon="6.81725">
        <ele>865</ele>
        <time>2019-09-03T20:07:18Z</time>
      </trkpt>
      <trkpt lat="45.61697" lon="6.81664">
        <ele>863</ele>
        <time>2019-09-03T20:07:26Z</time>
      </trkpt>
      <trkpt lat="45.61701" lon="6.81637">
        <ele>863</ele>
        <time>2019-09-03T20:07:29Z</time>
      </trkpt>
      <trkpt lat="45.61707" lon="6.81563">
        <ele>863</ele>
        <time>2019-09-03T20:07:39Z</time>
      </trkpt>
      <trkpt lat="45.6173" lon="6.81234">
        <ele>873</ele>
        <time>2019-09-03T20:08:20Z</time>
      </trkpt>
      <trkpt lat="45.61762" lon="6.81034">
        <ele>878</ele>
        <time>2019-09-03T20:08:45Z</time>
      </trkpt>
      <trkpt lat="45.61785" lon="6.8086">
        <ele>880</ele>
        <time>2019-09-03T20:09:07Z</time>
      </trkpt>
      <trkpt lat="45.61801" lon="6.80796">
        <ele>881</ele>
        <time>2019-09-03T20:09:16Z</time>
      </trkpt>
      <trkpt lat="45.61836" lon="6.80709">
        <ele>882</ele>
        <time>2019-09-03T20:09:28Z</time>
      </trkpt>
      <trkpt lat="45.6194" lon="6.80461">
        <ele>887</ele>
        <time>2019-09-03T20:10:04Z</time>
      </trkpt>
      <trkpt lat="45.61968" lon="6.80397">
        <ele>890</ele>
        <time>2019-09-03T20:10:14Z</time>
      </trkpt>
      <trkpt lat="45.61986" lon="6.80365">
        <ele>892</ele>
        <time>2019-09-03T20:10:19Z</time>
      </trkpt>
      <trkpt lat="45.62034" lon="6.80292">
        <ele>893</ele>
        <time>2019-09-03T20:10:31Z</time>
      </trkpt>
      <trkpt lat="45.62043" lon="6.80281">
        <ele>893</ele>
        <time>2019-09-03T20:10:33Z</time>
      </trkpt>
      <trkpt lat="45.62055" lon="6.80273">
        <ele>894</ele>
        <time>2019-09-03T20:10:36Z</time>
      </trkpt>
      <trkpt lat="45.62093" lon="6.80232">
        <ele>894</ele>
        <time>2019-09-03T20:10:44Z</time>
      </trkpt>
      <trkpt lat="45.6214" lon="6.80191">
        <ele>895</ele>
        <time>2019-09-03T20:10:54Z</time>
      </trkpt>
      <trkpt lat="45.62158" lon="6.8017">
        <ele>896</ele>
        <time>2019-09-03T20:10:58Z</time>
      </trkpt>
      <trkpt lat="45.62165" lon="6.80165">
        <ele>896</ele>
        <time>2019-09-03T20:10:59Z</time>
      </trkpt>
      <trkpt lat="45.62167" lon="6.8017">
        <ele>896</ele>
        <time>2019-09-03T20:11:00Z</time>
      </trkpt>
      <trkpt lat="45.62173" lon="6.80176">
        <ele>897</ele>
        <time>2019-09-03T20:11:01Z</time>
      </trkpt>
      <trkpt lat="45.62177" lon="6.80177">
        <ele>898</ele>
        <time>2019-09-03T20:11:02Z</time>
      </trkpt>
      <trkpt lat="45.62184" lon="6.80171">
        <ele>898</ele>
        <time>2019-09-03T20:11:04Z</time>
      </trkpt>
      <trkpt lat="45.62186" lon="6.8016">
        <ele>897</ele>
        <time>2019-09-03T20:11:05Z</time>
      </trkpt>
      <trkpt lat="45.62182" lon="6.8015">
        <ele>896</ele>
        <time>2019-09-03T20:11:06Z</time>
      </trkpt>
      <trkpt lat="45.62198" lon="6.80102">
        <ele>895</ele>
        <time>2019-09-03T20:11:13Z</time>
      </trkpt>
      <trkpt lat="45.62208" lon="6.80076">
        <ele>894</ele>
        <time>2019-09-03T20:11:17Z</time>
      </trkpt>
      <trkpt lat="45.62225" lon="6.80043">
        <ele>893</ele>
        <time>2019-09-03T20:11:22Z</time>
      </trkpt>
      <trkpt lat="45.62233" lon="6.80031">
        <ele>893</ele>
        <time>2019-09-03T20:11:24Z</time>
      </trkpt>
      <trkpt lat="45.62274" lon="6.79975">
        <ele>892</ele>
        <time>2019-09-03T20:11:34Z</time>
      </trkpt>
      <trkpt lat="45.62286" lon="6.7996">
        <ele>892</ele>
        <time>2019-09-03T20:11:37Z</time>
      </trkpt>
      <trkpt lat="45.62294" lon="6.79945">
        <ele>891</ele>
        <time>2019-09-03T20:11:39Z</time>
      </trkpt>
      <trkpt lat="45.62321" lon="6.79879">
        <ele>887</ele>
        <time>2019-09-03T20:11:49Z</time>
      </trkpt>
      <trkpt lat="45.62339" lon="6.79844">
        <ele>886</ele>
        <time>2019-09-03T20:11:54Z</time>
      </trkpt>
      <trkpt lat="45.62459" lon="6.79589">
        <ele>872</ele>
        <time>2019-09-03T20:12:32Z</time>
      </trkpt>
      <trkpt lat="45.62508" lon="6.79492">
        <ele>870</ele>
        <time>2019-09-03T20:12:47Z</time>
      </trkpt>
      <trkpt lat="45.62527" lon="6.7947">
        <ele>870</ele>
        <time>2019-09-03T20:12:52Z</time>
      </trkpt>
      <trkpt lat="45.62536" lon="6.79467">
        <ele>870</ele>
        <time>2019-09-03T20:12:53Z</time>
      </trkpt>
      <trkpt lat="45.6254" lon="6.79458">
        <ele>870</ele>
        <time>2019-09-03T20:12:55Z</time>
      </trkpt>
      <trkpt lat="45.6254" lon="6.79451">
        <ele>869</ele>
        <time>2019-09-03T20:12:55Z</time>
      </trkpt>
      <trkpt lat="45.62559" lon="6.79421">
        <ele>868</ele>
        <time>2019-09-03T20:13:01Z</time>
      </trkpt>
      <trkpt lat="45.62581" lon="6.79401">
        <ele>867</ele>
        <time>2019-09-03T20:13:05Z</time>
      </trkpt>
      <trkpt lat="45.626" lon="6.79374">
        <ele>871</ele>
        <time>2019-09-03T20:13:10Z</time>
      </trkpt>
      <trkpt lat="45.62621" lon="6.79331">
        <ele>873</ele>
        <time>2019-09-03T20:13:16Z</time>
      </trkpt>
      <trkpt lat="45.62635" lon="6.79281">
        <ele>873</ele>
        <time>2019-09-03T20:13:23Z</time>
      </trkpt>
      <trkpt lat="45.62646" lon="6.79219">
        <ele>869</ele>
        <time>2019-09-03T20:13:31Z</time>
      </trkpt>
      <trkpt lat="45.62664" lon="6.79151">
        <ele>863</ele>
        <time>2019-09-03T20:13:40Z</time>
      </trkpt>
      <trkpt lat="45.62683" lon="6.79054">
        <ele>860</ele>
        <time>2019-09-03T20:13:53Z</time>
      </trkpt>
      <trkpt lat="45.62688" lon="6.79017">
        <ele>858</ele>
        <time>2019-09-03T20:13:57Z</time>
      </trkpt>
      <trkpt lat="45.62695" lon="6.78936">
        <ele>855</ele>
        <time>2019-09-03T20:14:08Z</time>
      </trkpt>
      <trkpt lat="45.62694" lon="6.78923">
        <ele>854</ele>
        <time>2019-09-03T20:14:09Z</time>
      </trkpt>
      <trkpt lat="45.6271" lon="6.78721">
        <ele>838</ele>
        <time>2019-09-03T20:14:34Z</time>
      </trkpt>
      <trkpt lat="45.6271" lon="6.78691">
        <ele>838</ele>
        <time>2019-09-03T20:14:38Z</time>
      </trkpt>
      <trkpt lat="45.62707" lon="6.78661">
        <ele>837</ele>
        <time>2019-09-03T20:14:42Z</time>
      </trkpt>
      <trkpt lat="45.62704" lon="6.78642">
        <ele>839</ele>
        <time>2019-09-03T20:14:44Z</time>
      </trkpt>
      <trkpt lat="45.62692" lon="6.78611">
        <ele>840</ele>
        <time>2019-09-03T20:14:49Z</time>
      </trkpt>
      <trkpt lat="45.62647" lon="6.78561">
        <ele>837</ele>
        <time>2019-09-03T20:14:59Z</time>
      </trkpt>
      <trkpt lat="45.62629" lon="6.78538">
        <ele>836</ele>
        <time>2019-09-03T20:15:03Z</time>
      </trkpt>
      <trkpt lat="45.62632" lon="6.78519">
        <ele>837</ele>
        <time>2019-09-03T20:15:06Z</time>
      </trkpt>
      <trkpt lat="45.62644" lon="6.78504">
        <ele>840</ele>
        <time>2019-09-03T20:15:08Z</time>
      </trkpt>
      <trkpt lat="45.62631" lon="6.78384">
        <ele>852</ele>
        <time>2019-09-03T20:15:24Z</time>
      </trkpt>
      <trkpt lat="45.62642" lon="6.78363">
        <ele>860</ele>
        <time>2019-09-03T20:15:27Z</time>
      </trkpt>
      <trkpt lat="45.62663" lon="6.78372">
        <ele>866</ele>
        <time>2019-09-03T20:15:31Z</time>
      </trkpt>
      <trkpt lat="45.62682" lon="6.78354">
        <ele>875</ele>
        <time>2019-09-03T20:15:35Z</time>
      </trkpt>
      <trkpt lat="45.62721" lon="6.783">
        <ele>891</ele>
        <time>2019-09-03T20:15:44Z</time>
      </trkpt>
      <trkpt lat="45.62738" lon="6.78291">
        <ele>896</ele>
        <time>2019-09-03T20:15:48Z</time>
      </trkpt>
      <trkpt lat="45.62768" lon="6.78306">
        <ele>906</ele>
        <time>2019-09-03T20:15:53Z</time>
      </trkpt>
      <trkpt lat="45.62775" lon="6.78358">
        <ele>904</ele>
        <time>2019-09-03T20:16:00Z</time>
      </trkpt>
      <trkpt lat="45.62785" lon="6.78381">
        <ele>905</ele>
        <time>2019-09-03T20:16:03Z</time>
      </trkpt>
      <trkpt lat="45.62812" lon="6.78407">
        <ele>911</ele>
        <time>2019-09-03T20:16:09Z</time>
      </trkpt>
      <trkpt lat="45.62821" lon="6.78428">
        <ele>911</ele>
        <time>2019-09-03T20:16:12Z</time>
      </trkpt>
      <trkpt lat="45.62851" lon="6.78475">
        <ele>910</ele>
        <time>2019-09-03T20:16:20Z</time>
      </trkpt>
      <trkpt lat="45.62889" lon="6.78519">
        <ele>910</ele>
        <time>2019-09-03T20:16:29Z</time>
      </trkpt>
      <trkpt lat="45.62908" lon="6.7853">
        <ele>913</ele>
        <time>2019-09-03T20:16:32Z</time>
      </trkpt>
      <trkpt lat="45.62928" lon="6.78535">
        <ele>916</ele>
        <time>2019-09-03T20:16:36Z</time>
      </trkpt>
      <trkpt lat="45.62952" lon="6.78543">
        <ele>918</ele>
        <time>2019-09-03T20:16:40Z</time>
      </trkpt>
      <trkpt lat="45.62968" lon="6.78551">
        <ele>919</ele>
        <time>2019-09-03T20:16:43Z</time>
      </trkpt>
      <trkpt lat="45.62981" lon="6.78562">
        <ele>920</ele>
        <time>2019-09-03T20:16:46Z</time>
      </trkpt>
      <trkpt lat="45.62992" lon="6.78567">
        <ele>921</ele>
        <time>2019-09-03T20:16:48Z</time>
      </trkpt>
      <trkpt lat="45.62999" lon="6.78564">
        <ele>923</ele>
        <time>2019-09-03T20:16:49Z</time>
      </trkpt>
      <trkpt lat="45.63003" lon="6.78555">
        <ele>924</ele>
        <time>2019-09-03T20:16:51Z</time>
      </trkpt>
      <trkpt lat="45.62999" lon="6.78544">
        <ele>926</ele>
        <time>2019-09-03T20:16:52Z</time>
      </trkpt>
      <trkpt lat="45.6299" lon="6.78536">
        <ele>926</ele>
        <time>2019-09-03T20:16:54Z</time>
      </trkpt>
      <trkpt lat="45.62964" lon="6.78522">
        <ele>925</ele>
        <time>2019-09-03T20:16:59Z</time>
      </trkpt>
      <trkpt lat="45.62913" lon="6.78488">
        <ele>924</ele>
        <time>2019-09-03T20:17:09Z</time>
      </trkpt>
      <trkpt lat="45.62889" lon="6.7846">
        <ele>922</ele>
        <time>2019-09-03T20:17:15Z</time>
      </trkpt>
      <trkpt lat="45.6288" lon="6.78429">
        <ele>925</ele>
        <time>2019-09-03T20:17:19Z</time>
      </trkpt>
      <trkpt lat="45.62876" lon="6.78392">
        <ele>929</ele>
        <time>2019-09-03T20:17:24Z</time>
      </trkpt>
      <trkpt lat="45.62874" lon="6.78355">
        <ele>932</ele>
        <time>2019-09-03T20:17:28Z</time>
      </trkpt>
      <trkpt lat="45.62876" lon="6.78334">
        <ele>935</ele>
        <time>2019-09-03T20:17:31Z</time>
      </trkpt>
      <trkpt lat="45.6288" lon="6.78322">
        <ele>937</ele>
        <time>2019-09-03T20:17:32Z</time>
      </trkpt>
      <trkpt lat="45.62887" lon="6.78311">
        <ele>939</ele>
        <time>2019-09-03T20:17:34Z</time>
      </trkpt>
      <trkpt lat="45.62898" lon="6.78301">
        <ele>942</ele>
        <time>2019-09-03T20:17:37Z</time>
      </trkpt>
      <trkpt lat="45.62907" lon="6.78298">
        <ele>944</ele>
        <time>2019-09-03T20:17:38Z</time>
      </trkpt>
      <trkpt lat="45.62917" lon="6.78298">
        <ele>946</ele>
        <time>2019-09-03T20:17:40Z</time>
      </trkpt>
      <trkpt lat="45.62931" lon="6.78307">
        <ele>947</ele>
        <time>2019-09-03T20:17:43Z</time>
      </trkpt>
      <trkpt lat="45.62973" lon="6.78351">
        <ele>948</ele>
        <time>2019-09-03T20:17:52Z</time>
      </trkpt>
      <trkpt lat="45.63001" lon="6.78376">
        <ele>950</ele>
        <time>2019-09-03T20:17:58Z</time>
      </trkpt>
      <trkpt lat="45.63031" lon="6.78393">
        <ele>951</ele>
        <time>2019-09-03T20:18:04Z</time>
      </trkpt>
      <trkpt lat="45.63061" lon="6.78407">
        <ele>953</ele>
        <time>2019-09-03T20:18:09Z</time>
      </trkpt>
      <trkpt lat="45.63117" lon="6.78422">
        <ele>955</ele>
        <time>2019-09-03T20:18:19Z</time>
      </trkpt>
      <trkpt lat="45.63138" lon="6.78422">
        <ele>956</ele>
        <time>2019-09-03T20:18:23Z</time>
      </trkpt>
      <trkpt lat="45.6318" lon="6.78416">
        <ele>961</ele>
        <time>2019-09-03T20:18:31Z</time>
      </trkpt>
      <trkpt lat="45.63222" lon="6.78414">
        <ele>969</ele>
        <time>2019-09-03T20:18:38Z</time>
      </trkpt>
      <trkpt lat="45.63232" lon="6.78416">
        <ele>970</ele>
        <time>2019-09-03T20:18:40Z</time>
      </trkpt>
      <trkpt lat="45.63247" lon="6.78427">
        <ele>968</ele>
        <time>2019-09-03T20:18:43Z</time>
      </trkpt>
      <trkpt lat="45.63265" lon="6.7845">
        <ele>963</ele>
        <time>2019-09-03T20:18:47Z</time>
      </trkpt>
      <trkpt lat="45.63285" lon="6.78469">
        <ele>961</ele>
        <time>2019-09-03T20:18:51Z</time>
      </trkpt>
      <trkpt lat="45.63313" lon="6.78488">
        <ele>963</ele>
        <time>2019-09-03T20:18:57Z</time>
      </trkpt>
      <trkpt lat="45.63328" lon="6.78501">
        <ele>963</ele>
        <time>2019-09-03T20:19:00Z</time>
      </trkpt>
      <trkpt lat="45.63358" lon="6.78509">
        <ele>968</ele>
        <time>2019-09-03T20:19:06Z</time>
      </trkpt>
      <trkpt lat="45.6339" lon="6.78537">
        <ele>963</ele>
        <time>2019-09-03T20:19:12Z</time>
      </trkpt>
      <trkpt lat="45.63398" lon="6.78542">
        <ele>963</ele>
        <time>2019-09-03T20:19:14Z</time>
      </trkpt>
      <trkpt lat="45.63416" lon="6.78547">
        <ele>966</ele>
        <time>2019-09-03T20:19:17Z</time>
      </trkpt>
      <trkpt lat="45.6343" lon="6.78546">
        <ele>967</ele>
        <time>2019-09-03T20:19:20Z</time>
      </trkpt>
      <trkpt lat="45.63456" lon="6.78537">
        <ele>974</ele>
        <time>2019-09-03T20:19:24Z</time>
      </trkpt>
      <trkpt lat="45.63467" lon="6.78537">
        <ele>974</ele>
        <time>2019-09-03T20:19:26Z</time>
      </trkpt>
      <trkpt lat="45.63492" lon="6.78547">
        <ele>969</ele>
        <time>2019-09-03T20:19:31Z</time>
      </trkpt>
      <trkpt lat="45.63556" lon="6.78556">
        <ele>960</ele>
        <time>2019-09-03T20:19:42Z</time>
      </trkpt>
      <trkpt lat="45.63567" lon="6.78553">
        <ele>961</ele>
        <time>2019-09-03T20:19:44Z</time>
      </trkpt>
      <trkpt lat="45.63597" lon="6.78538">
        <ele>966</ele>
        <time>2019-09-03T20:19:50Z</time>
      </trkpt>
      <trkpt lat="45.63649" lon="6.78526">
        <ele>972</ele>
        <time>2019-09-03T20:19:59Z</time>
      </trkpt>
      <trkpt lat="45.63661" lon="6.78518">
        <ele>976</ele>
        <time>2019-09-03T20:20:02Z</time>
      </trkpt>
      <trkpt lat="45.63677" lon="6.78499">
        <ele>982</ele>
        <time>2019-09-03T20:20:05Z</time>
      </trkpt>
      <trkpt lat="45.637" lon="6.78482">
        <ele>986</ele>
        <time>2019-09-03T20:20:10Z</time>
      </trkpt>
      <trkpt lat="45.63729" lon="6.78466">
        <ele>988</ele>
        <time>2019-09-03T20:20:16Z</time>
      </trkpt>
      <trkpt lat="45.63794" lon="6.78446">
        <ele>989</ele>
        <time>2019-09-03T20:20:27Z</time>
      </trkpt>
      <trkpt lat="45.63802" lon="6.78446">
        <ele>988</ele>
        <time>2019-09-03T20:20:29Z</time>
      </trkpt>
      <trkpt lat="45.63829" lon="6.78457">
        <ele>979</ele>
        <time>2019-09-03T20:20:34Z</time>
      </trkpt>
      <trkpt lat="45.63846" lon="6.78455">
        <ele>980</ele>
        <time>2019-09-03T20:20:37Z</time>
      </trkpt>
      <trkpt lat="45.63862" lon="6.78452">
        <ele>984</ele>
        <time>2019-09-03T20:20:40Z</time>
      </trkpt>
      <trkpt lat="45.63889" lon="6.78439">
        <ele>993</ele>
        <time>2019-09-03T20:20:45Z</time>
      </trkpt>
      <trkpt lat="45.63901" lon="6.78436">
        <ele>995</ele>
        <time>2019-09-03T20:20:47Z</time>
      </trkpt>
      <trkpt lat="45.63912" lon="6.7844">
        <ele>994</ele>
        <time>2019-09-03T20:20:49Z</time>
      </trkpt>
      <trkpt lat="45.63946" lon="6.78479">
        <ele>982</ele>
        <time>2019-09-03T20:20:57Z</time>
      </trkpt>
      <trkpt lat="45.63961" lon="6.7849">
        <ele>979</ele>
        <time>2019-09-03T20:21:00Z</time>
      </trkpt>
      <trkpt lat="45.63983" lon="6.78504">
        <ele>977</ele>
        <time>2019-09-03T20:21:04Z</time>
      </trkpt>
      <trkpt lat="45.63989" lon="6.78507">
        <ele>977</ele>
        <time>2019-09-03T20:21:05Z</time>
      </trkpt>
      <trkpt lat="45.64" lon="6.78508">
        <ele>979</ele>
        <time>2019-09-03T20:21:07Z</time>
      </trkpt>
      <trkpt lat="45.64032" lon="6.78503">
        <ele>991</ele>
        <time>2019-09-03T20:21:13Z</time>
      </trkpt>
      <trkpt lat="45.64048" lon="6.78508">
        <ele>994</ele>
        <time>2019-09-03T20:21:16Z</time>
      </trkpt>
      <trkpt lat="45.64075" lon="6.78526">
        <ele>993</ele>
        <time>2019-09-03T20:21:21Z</time>
      </trkpt>
      <trkpt lat="45.64116" lon="6.7855">
        <ele>992</ele>
        <time>2019-09-03T20:21:29Z</time>
      </trkpt>
      <trkpt lat="45.64125" lon="6.78557">
        <ele>991</ele>
        <time>2019-09-03T20:21:31Z</time>
      </trkpt>
      <trkpt lat="45.64154" lon="6.7859">
        <ele>984</ele>
        <time>2019-09-03T20:21:37Z</time>
      </trkpt>
      <trkpt lat="45.64174" lon="6.78605">
        <ele>988</ele>
        <time>2019-09-03T20:21:41Z</time>
      </trkpt>
      <trkpt lat="45.64196" lon="6.78615">
        <ele>992</ele>
        <time>2019-09-03T20:21:45Z</time>
      </trkpt>
      <trkpt lat="45.64216" lon="6.78619">
        <ele>996</ele>
        <time>2019-09-03T20:21:49Z</time>
      </trkpt>
      <trkpt lat="45.64251" lon="6.78618">
        <ele>1005</ele>
        <time>2019-09-03T20:21:55Z</time>
      </trkpt>
      <trkpt lat="45.64302" lon="6.7861">
        <ele>1005</ele>
        <time>2019-09-03T20:22:04Z</time>
      </trkpt>
      <trkpt lat="45.64366" lon="6.78612">
        <ele>1001</ele>
        <time>2019-09-03T20:22:16Z</time>
      </trkpt>
      <trkpt lat="45.6446" lon="6.78591">
        <ele>1012</ele>
        <time>2019-09-03T20:22:33Z</time>
      </trkpt>
      <trkpt lat="45.6454" lon="6.78585">
        <ele>1012</ele>
        <time>2019-09-03T20:22:47Z</time>
      </trkpt>
      <trkpt lat="45.64561" lon="6.78586">
        <ele>1009</ele>
        <time>2019-09-03T20:22:51Z</time>
      </trkpt>
      <trkpt lat="45.64609" lon="6.78603">
        <ele>1006</ele>
        <time>2019-09-03T20:22:59Z</time>
      </trkpt>
      <trkpt lat="45.64639" lon="6.7861">
        <ele>1008</ele>
        <time>2019-09-03T20:23:05Z</time>
      </trkpt>
      <trkpt lat="45.64656" lon="6.78612">
        <ele>1009</ele>
        <time>2019-09-03T20:23:08Z</time>
      </trkpt>
      <trkpt lat="45.64702" lon="6.78606">
        <ele>1014</ele>
        <time>2019-09-03T20:23:16Z</time>
      </trkpt>
      <trkpt lat="45.64722" lon="6.78608">
        <ele>1015</ele>
        <time>2019-09-03T20:23:20Z</time>
      </trkpt>
      <trkpt lat="45.64752" lon="6.78619">
        <ele>1015</ele>
        <time>2019-09-03T20:23:25Z</time>
      </trkpt>
      <trkpt lat="45.6478" lon="6.78632">
        <ele>1014</ele>
        <time>2019-09-03T20:23:30Z</time>
      </trkpt>
      <trkpt lat="45.64839" lon="6.78666">
        <ele>1012</ele>
        <time>2019-09-03T20:23:42Z</time>
      </trkpt>
      <trkpt lat="45.64939" lon="6.78748">
        <ele>1015</ele>
        <time>2019-09-03T20:24:02Z</time>
      </trkpt>
      <trkpt lat="45.6497" lon="6.7877">
        <ele>1025</ele>
        <time>2019-09-03T20:24:08Z</time>
      </trkpt>
      <trkpt lat="45.64982" lon="6.78776">
        <ele>1028</ele>
        <time>2019-09-03T20:24:11Z</time>
      </trkpt>
      <trkpt lat="45.64998" lon="6.78781">
        <ele>1030</ele>
        <time>2019-09-03T20:24:14Z</time>
      </trkpt>
      <trkpt lat="45.65027" lon="6.78781">
        <ele>1033</ele>
        <time>2019-09-03T20:24:19Z</time>
      </trkpt>
      <trkpt lat="45.65111" lon="6.78774">
        <ele>1045</ele>
        <time>2019-09-03T20:24:34Z</time>
      </trkpt>
      <trkpt lat="45.65132" lon="6.7877">
        <ele>1049</ele>
        <time>2019-09-03T20:24:38Z</time>
      </trkpt>
      <trkpt lat="45.65176" lon="6.7874">
        <ele>1055</ele>
        <time>2019-09-03T20:24:46Z</time>
      </trkpt>
      <trkpt lat="45.65257" lon="6.78696">
        <ele>1059</ele>
        <time>2019-09-03T20:25:02Z</time>
      </trkpt>
      <trkpt lat="45.65277" lon="6.78693">
        <ele>1061</ele>
        <time>2019-09-03T20:25:05Z</time>
      </trkpt>
      <trkpt lat="45.65336" lon="6.78695">
        <ele>1066</ele>
        <time>2019-09-03T20:25:16Z</time>
      </trkpt>
      <trkpt lat="45.65357" lon="6.78683">
        <ele>1068</ele>
        <time>2019-09-03T20:25:20Z</time>
      </trkpt>
      <trkpt lat="45.65388" lon="6.7866">
        <ele>1070</ele>
        <time>2019-09-03T20:25:26Z</time>
      </trkpt>
      <trkpt lat="45.6545" lon="6.78605">
        <ele>1078</ele>
        <time>2019-09-03T20:25:39Z</time>
      </trkpt>
      <trkpt lat="45.65509" lon="6.78541">
        <ele>1083</ele>
        <time>2019-09-03T20:25:52Z</time>
      </trkpt>
      <trkpt lat="45.65566" lon="6.78484">
        <ele>1090</ele>
        <time>2019-09-03T20:26:04Z</time>
      </trkpt>
      <trkpt lat="45.65645" lon="6.7839">
        <ele>1099</ele>
        <time>2019-09-03T20:26:23Z</time>
      </trkpt>
      <trkpt lat="45.65752" lon="6.78314">
        <ele>1103</ele>
        <time>2019-09-03T20:26:44Z</time>
      </trkpt>
      <trkpt lat="45.65777" lon="6.78302">
        <ele>1109</ele>
        <time>2019-09-03T20:26:49Z</time>
      </trkpt>
      <trkpt lat="45.65843" lon="6.78279">
        <ele>1117</ele>
        <time>2019-09-03T20:27:01Z</time>
      </trkpt>
      <trkpt lat="45.65864" lon="6.78267">
        <ele>1120</ele>
        <time>2019-09-03T20:27:05Z</time>
      </trkpt>
      <trkpt lat="45.65879" lon="6.78254">
        <ele>1120</ele>
        <time>2019-09-03T20:27:08Z</time>
      </trkpt>
      <trkpt lat="45.65932" lon="6.7818">
        <ele>1124</ele>
        <time>2019-09-03T20:27:21Z</time>
      </trkpt>
      <trkpt lat="45.65969" lon="6.78167">
        <ele>1127</ele>
        <time>2019-09-03T20:27:28Z</time>
      </trkpt>
      <trkpt lat="45.65987" lon="6.78165">
        <ele>1130</ele>
        <time>2019-09-03T20:27:31Z</time>
      </trkpt>
      <trkpt lat="45.66007" lon="6.78171">
        <ele>1135</ele>
        <time>2019-09-03T20:27:35Z</time>
      </trkpt>
      <trkpt lat="45.66022" lon="6.78172">
        <ele>1139</ele>
        <time>2019-09-03T20:27:37Z</time>
      </trkpt>
      <trkpt lat="45.66038" lon="6.78163">
        <ele>1142</ele>
        <time>2019-09-03T20:27:40Z</time>
      </trkpt>
      <trkpt lat="45.6605" lon="6.78148">
        <ele>1144</ele>
        <time>2019-09-03T20:27:43Z</time>
      </trkpt>
      <trkpt lat="45.66069" lon="6.78116">
        <ele>1143</ele>
        <time>2019-09-03T20:27:49Z</time>
      </trkpt>
      <trkpt lat="45.66103" lon="6.78068">
        <ele>1144</ele>
        <time>2019-09-03T20:27:57Z</time>
      </trkpt>
      <trkpt lat="45.66119" lon="6.78054">
        <ele>1147</ele>
        <time>2019-09-03T20:28:00Z</time>
      </trkpt>
      <trkpt lat="45.66156" lon="6.7803">
        <ele>1149</ele>
        <time>2019-09-03T20:28:08Z</time>
      </trkpt>
      <trkpt lat="45.66191" lon="6.78002">
        <ele>1150</ele>
        <time>2019-09-03T20:28:15Z</time>
      </trkpt>
      <trkpt lat="45.66204" lon="6.77989">
        <ele>1153</ele>
        <time>2019-09-03T20:28:18Z</time>
      </trkpt>
      <trkpt lat="45.66235" lon="6.7794">
        <ele>1155</ele>
        <time>2019-09-03T20:28:26Z</time>
      </trkpt>
      <trkpt lat="45.66244" lon="6.77927">
        <ele>1153</ele>
        <time>2019-09-03T20:28:28Z</time>
      </trkpt>
      <trkpt lat="45.66259" lon="6.77921">
        <ele>1154</ele>
        <time>2019-09-03T20:28:31Z</time>
      </trkpt>
      <trkpt lat="45.66287" lon="6.77924">
        <ele>1162</ele>
        <time>2019-09-03T20:28:36Z</time>
      </trkpt>
      <trkpt lat="45.66298" lon="6.77922">
        <ele>1164</ele>
        <time>2019-09-03T20:28:38Z</time>
      </trkpt>
      <trkpt lat="45.66311" lon="6.77914">
        <ele>1166</ele>
        <time>2019-09-03T20:28:40Z</time>
      </trkpt>
      <trkpt lat="45.66321" lon="6.77904">
        <ele>1167</ele>
        <time>2019-09-03T20:28:42Z</time>
      </trkpt>
      <trkpt lat="45.66343" lon="6.77858">
        <ele>1166</ele>
        <time>2019-09-03T20:28:49Z</time>
      </trkpt>
      <trkpt lat="45.66372" lon="6.7782">
        <ele>1166</ele>
        <time>2019-09-03T20:28:56Z</time>
      </trkpt>
      <trkpt lat="45.66394" lon="6.77798">
        <ele>1167</ele>
        <time>2019-09-03T20:29:01Z</time>
      </trkpt>
      <trkpt lat="45.66433" lon="6.77768">
        <ele>1167</ele>
        <time>2019-09-03T20:29:09Z</time>
      </trkpt>
      <trkpt lat="45.66459" lon="6.77743">
        <ele>1171</ele>
        <time>2019-09-03T20:29:15Z</time>
      </trkpt>
      <trkpt lat="45.66476" lon="6.77729">
        <ele>1175</ele>
        <time>2019-09-03T20:29:18Z</time>
      </trkpt>
      <trkpt lat="45.66494" lon="6.77702">
        <ele>1177</ele>
        <time>2019-09-03T20:29:23Z</time>
      </trkpt>
      <trkpt lat="45.66504" lon="6.7768">
        <ele>1177</ele>
        <time>2019-09-03T20:29:26Z</time>
      </trkpt>
      <trkpt lat="45.66532" lon="6.77581">
        <ele>1174</ele>
        <time>2019-09-03T20:29:39Z</time>
      </trkpt>
      <trkpt lat="45.66543" lon="6.77553">
        <ele>1177</ele>
        <time>2019-09-03T20:29:43Z</time>
      </trkpt>
      <trkpt lat="45.6659" lon="6.77462">
        <ele>1185</ele>
        <time>2019-09-03T20:29:57Z</time>
      </trkpt>
      <trkpt lat="45.66601" lon="6.77447">
        <ele>1189</ele>
        <time>2019-09-03T20:30:00Z</time>
      </trkpt>
      <trkpt lat="45.66609" lon="6.77441">
        <ele>1191</ele>
        <time>2019-09-03T20:30:02Z</time>
      </trkpt>
      <trkpt lat="45.66613" lon="6.77439">
        <ele>1193</ele>
        <time>2019-09-03T20:30:02Z</time>
      </trkpt>
      <trkpt lat="45.66619" lon="6.77443">
        <ele>1194</ele>
        <time>2019-09-03T20:30:04Z</time>
      </trkpt>
      <trkpt lat="45.66621" lon="6.77449">
        <ele>1195</ele>
        <time>2019-09-03T20:30:04Z</time>
      </trkpt>
      <trkpt lat="45.66621" lon="6.77459">
        <ele>1195</ele>
        <time>2019-09-03T20:30:06Z</time>
      </trkpt>
      <trkpt lat="45.66611" lon="6.77496">
        <ele>1191</ele>
        <time>2019-09-03T20:30:11Z</time>
      </trkpt>
      <trkpt lat="45.66611" lon="6.77508">
        <ele>1191</ele>
        <time>2019-09-03T20:30:12Z</time>
      </trkpt>
      <trkpt lat="45.66612" lon="6.77514">
        <ele>1192</ele>
        <time>2019-09-03T20:30:13Z</time>
      </trkpt>
      <trkpt lat="45.66616" lon="6.77524">
        <ele>1194</ele>
        <time>2019-09-03T20:30:14Z</time>
      </trkpt>
      <trkpt lat="45.66633" lon="6.77547">
        <ele>1201</ele>
        <time>2019-09-03T20:30:18Z</time>
      </trkpt>
      <trkpt lat="45.66642" lon="6.77564">
        <ele>1205</ele>
        <time>2019-09-03T20:30:21Z</time>
      </trkpt>
      <trkpt lat="45.66645" lon="6.77597">
        <ele>1208</ele>
        <time>2019-09-03T20:30:25Z</time>
      </trkpt>
      <trkpt lat="45.66647" lon="6.77602">
        <ele>1210</ele>
        <time>2019-09-03T20:30:26Z</time>
      </trkpt>
      <trkpt lat="45.66653" lon="6.77603">
        <ele>1212</ele>
        <time>2019-09-03T20:30:27Z</time>
      </trkpt>
      <trkpt lat="45.66656" lon="6.77598">
        <ele>1212</ele>
        <time>2019-09-03T20:30:28Z</time>
      </trkpt>
      <trkpt lat="45.66671" lon="6.77542">
        <ele>1214</ele>
        <time>2019-09-03T20:30:35Z</time>
      </trkpt>
      <trkpt lat="45.66682" lon="6.77511">
        <ele>1217</ele>
        <time>2019-09-03T20:30:40Z</time>
      </trkpt>
      <trkpt lat="45.66694" lon="6.77486">
        <ele>1220</ele>
        <time>2019-09-03T20:30:43Z</time>
      </trkpt>
      <trkpt lat="45.66704" lon="6.77453">
        <ele>1223</ele>
        <time>2019-09-03T20:30:48Z</time>
      </trkpt>
      <trkpt lat="45.66705" lon="6.77422">
        <ele>1222</ele>
        <time>2019-09-03T20:30:52Z</time>
      </trkpt>
      <trkpt lat="45.66701" lon="6.77404">
        <ele>1221</ele>
        <time>2019-09-03T20:30:54Z</time>
      </trkpt>
      <trkpt lat="45.66696" lon="6.77391">
        <ele>1220</ele>
        <time>2019-09-03T20:30:56Z</time>
      </trkpt>
      <trkpt lat="45.66684" lon="6.77367">
        <ele>1216</ele>
        <time>2019-09-03T20:31:00Z</time>
      </trkpt>
      <trkpt lat="45.66681" lon="6.77334">
        <ele>1215</ele>
        <time>2019-09-03T20:31:04Z</time>
      </trkpt>
      <trkpt lat="45.66682" lon="6.77314">
        <ele>1216</ele>
        <time>2019-09-03T20:31:06Z</time>
      </trkpt>
      <trkpt lat="45.66702" lon="6.77244">
        <ele>1228</ele>
        <time>2019-09-03T20:31:16Z</time>
      </trkpt>
      <trkpt lat="45.66705" lon="6.77217">
        <ele>1229</ele>
        <time>2019-09-03T20:31:19Z</time>
      </trkpt>
      <trkpt lat="45.66707" lon="6.77214">
        <ele>1230</ele>
        <time>2019-09-03T20:31:20Z</time>
      </trkpt>
      <trkpt lat="45.66712" lon="6.77215">
        <ele>1232</ele>
        <time>2019-09-03T20:31:20Z</time>
      </trkpt>
      <trkpt lat="45.66714" lon="6.77219">
        <ele>1233</ele>
        <time>2019-09-03T20:31:21Z</time>
      </trkpt>
      <trkpt lat="45.66712" lon="6.77255">
        <ele>1232</ele>
        <time>2019-09-03T20:31:26Z</time>
      </trkpt>
      <trkpt lat="45.66715" lon="6.77277">
        <ele>1232</ele>
        <time>2019-09-03T20:31:28Z</time>
      </trkpt>
      <trkpt lat="45.66729" lon="6.77301">
        <ele>1237</ele>
        <time>2019-09-03T20:31:32Z</time>
      </trkpt>
      <trkpt lat="45.66733" lon="6.77318">
        <ele>1238</ele>
        <time>2019-09-03T20:31:34Z</time>
      </trkpt>
      <trkpt lat="45.66732" lon="6.77364">
        <ele>1235</ele>
        <time>2019-09-03T20:31:40Z</time>
      </trkpt>
      <trkpt lat="45.66735" lon="6.77376">
        <ele>1236</ele>
        <time>2019-09-03T20:31:42Z</time>
      </trkpt>
      <trkpt lat="45.6674" lon="6.77387">
        <ele>1237</ele>
        <time>2019-09-03T20:31:43Z</time>
      </trkpt>
      <trkpt lat="45.66756" lon="6.77412">
        <ele>1242</ele>
        <time>2019-09-03T20:31:48Z</time>
      </trkpt>
      <trkpt lat="45.66762" lon="6.77423">
        <ele>1244</ele>
        <time>2019-09-03T20:31:49Z</time>
      </trkpt>
      <trkpt lat="45.66768" lon="6.77439">
        <ele>1248</ele>
        <time>2019-09-03T20:31:52Z</time>
      </trkpt>
      <trkpt lat="45.66778" lon="6.77484">
        <ele>1254</ele>
        <time>2019-09-03T20:31:57Z</time>
      </trkpt>
      <trkpt lat="45.6678" lon="6.77486">
        <ele>1255</ele>
        <time>2019-09-03T20:31:58Z</time>
      </trkpt>
      <trkpt lat="45.66783" lon="6.77485">
        <ele>1256</ele>
        <time>2019-09-03T20:31:58Z</time>
      </trkpt>
      <trkpt lat="45.66786" lon="6.77484">
        <ele>1258</ele>
        <time>2019-09-03T20:31:59Z</time>
      </trkpt>
      <trkpt lat="45.66786" lon="6.77473">
        <ele>1258</ele>
        <time>2019-09-03T20:32:00Z</time>
      </trkpt>
      <trkpt lat="45.66775" lon="6.77436">
        <ele>1251</ele>
        <time>2019-09-03T20:32:05Z</time>
      </trkpt>
      <trkpt lat="45.66764" lon="6.77371">
        <ele>1249</ele>
        <time>2019-09-03T20:32:14Z</time>
      </trkpt>
      <trkpt lat="45.66761" lon="6.77325">
        <ele>1251</ele>
        <time>2019-09-03T20:32:19Z</time>
      </trkpt>
      <trkpt lat="45.66762" lon="6.77275">
        <ele>1254</ele>
        <time>2019-09-03T20:32:26Z</time>
      </trkpt>
      <trkpt lat="45.6676" lon="6.77259">
        <ele>1254</ele>
        <time>2019-09-03T20:32:28Z</time>
      </trkpt>
      <trkpt lat="45.6676" lon="6.77246">
        <ele>1254</ele>
        <time>2019-09-03T20:32:29Z</time>
      </trkpt>
      <trkpt lat="45.66761" lon="6.77239">
        <ele>1254</ele>
        <time>2019-09-03T20:32:30Z</time>
      </trkpt>
      <trkpt lat="45.66767" lon="6.77233">
        <ele>1256</ele>
        <time>2019-09-03T20:32:31Z</time>
      </trkpt>
      <trkpt lat="45.66796" lon="6.77218">
        <ele>1269</ele>
        <time>2019-09-03T20:32:37Z</time>
      </trkpt>
      <trkpt lat="45.66799" lon="6.7721">
        <ele>1270</ele>
        <time>2019-09-03T20:32:38Z</time>
      </trkpt>
      <trkpt lat="45.66804" lon="6.7717">
        <ele>1267</ele>
        <time>2019-09-03T20:32:43Z</time>
      </trkpt>
      <trkpt lat="45.66807" lon="6.77168">
        <ele>1269</ele>
        <time>2019-09-03T20:32:44Z</time>
      </trkpt>
      <trkpt lat="45.6681" lon="6.77168">
        <ele>1270</ele>
        <time>2019-09-03T20:32:44Z</time>
      </trkpt>
      <trkpt lat="45.66813" lon="6.7718">
        <ele>1273</ele>
        <time>2019-09-03T20:32:46Z</time>
      </trkpt>
      <trkpt lat="45.66812" lon="6.77212">
        <ele>1277</ele>
        <time>2019-09-03T20:32:50Z</time>
      </trkpt>
      <trkpt lat="45.66808" lon="6.77227">
        <ele>1277</ele>
        <time>2019-09-03T20:32:52Z</time>
      </trkpt>
      <trkpt lat="45.66798" lon="6.77256">
        <ele>1274</ele>
        <time>2019-09-03T20:32:56Z</time>
      </trkpt>
      <trkpt lat="45.66798" lon="6.77281">
        <ele>1272</ele>
        <time>2019-09-03T20:32:59Z</time>
      </trkpt>
      <trkpt lat="45.66802" lon="6.77298">
        <ele>1273</ele>
        <time>2019-09-03T20:33:01Z</time>
      </trkpt>
      <trkpt lat="45.66817" lon="6.77342">
        <ele>1277</ele>
        <time>2019-09-03T20:33:07Z</time>
      </trkpt>
      <trkpt lat="45.66821" lon="6.77359">
        <ele>1279</ele>
        <time>2019-09-03T20:33:10Z</time>
      </trkpt>
      <trkpt lat="45.66825" lon="6.77406">
        <ele>1278</ele>
        <time>2019-09-03T20:33:15Z</time>
      </trkpt>
      <trkpt lat="45.66828" lon="6.77421">
        <ele>1279</ele>
        <time>2019-09-03T20:33:17Z</time>
      </trkpt>
      <trkpt lat="45.66842" lon="6.77446">
        <ele>1287</ele>
        <time>2019-09-03T20:33:21Z</time>
      </trkpt>
      <trkpt lat="45.66853" lon="6.77459">
        <ele>1294</ele>
        <time>2019-09-03T20:33:24Z</time>
      </trkpt>
      <trkpt lat="45.66859" lon="6.77473">
        <ele>1297</ele>
        <time>2019-09-03T20:33:26Z</time>
      </trkpt>
      <trkpt lat="45.6686" lon="6.7749">
        <ele>1298</ele>
        <time>2019-09-03T20:33:28Z</time>
      </trkpt>
      <trkpt lat="45.66851" lon="6.77528">
        <ele>1297</ele>
        <time>2019-09-03T20:33:33Z</time>
      </trkpt>
      <trkpt lat="45.66851" lon="6.77536">
        <ele>1299</ele>
        <time>2019-09-03T20:33:34Z</time>
      </trkpt>
      <trkpt lat="45.66853" lon="6.77541">
        <ele>1301</ele>
        <time>2019-09-03T20:33:35Z</time>
      </trkpt>
      <trkpt lat="45.66856" lon="6.77542">
        <ele>1303</ele>
        <time>2019-09-03T20:33:35Z</time>
      </trkpt>
      <trkpt lat="45.66862" lon="6.77534">
        <ele>1305</ele>
        <time>2019-09-03T20:33:37Z</time>
      </trkpt>
      <trkpt lat="45.66877" lon="6.77482">
        <ele>1308</ele>
        <time>2019-09-03T20:33:44Z</time>
      </trkpt>
      <trkpt lat="45.66875" lon="6.77465">
        <ele>1306</ele>
        <time>2019-09-03T20:33:46Z</time>
      </trkpt>
      <trkpt lat="45.66869" lon="6.77452">
        <ele>1303</ele>
        <time>2019-09-03T20:33:48Z</time>
      </trkpt>
      <trkpt lat="45.66861" lon="6.77427">
        <ele>1298</ele>
        <time>2019-09-03T20:33:51Z</time>
      </trkpt>
      <trkpt lat="45.66864" lon="6.77386">
        <ele>1301</ele>
        <time>2019-09-03T20:33:56Z</time>
      </trkpt>
      <trkpt lat="45.66864" lon="6.77302">
        <ele>1305</ele>
        <time>2019-09-03T20:34:07Z</time>
      </trkpt>
      <trkpt lat="45.66878" lon="6.77202">
        <ele>1310</ele>
        <time>2019-09-03T20:34:19Z</time>
      </trkpt>
      <trkpt lat="45.66882" lon="6.77184">
        <ele>1309</ele>
        <time>2019-09-03T20:34:22Z</time>
      </trkpt>
      <trkpt lat="45.66886" lon="6.77181">
        <ele>1311</ele>
        <time>2019-09-03T20:34:23Z</time>
      </trkpt>
      <trkpt lat="45.66889" lon="6.77187">
        <ele>1313</ele>
        <time>2019-09-03T20:34:24Z</time>
      </trkpt>
      <trkpt lat="45.66893" lon="6.77267">
        <ele>1322</ele>
        <time>2019-09-03T20:34:34Z</time>
      </trkpt>
      <trkpt lat="45.66899" lon="6.77312">
        <ele>1323</ele>
        <time>2019-09-03T20:34:39Z</time>
      </trkpt>
      <trkpt lat="45.66918" lon="6.77383">
        <ele>1331</ele>
        <time>2019-09-03T20:34:49Z</time>
      </trkpt>
      <trkpt lat="45.6692" lon="6.77408">
        <ele>1332</ele>
        <time>2019-09-03T20:34:52Z</time>
      </trkpt>
      <trkpt lat="45.66923" lon="6.77413">
        <ele>1333</ele>
        <time>2019-09-03T20:34:53Z</time>
      </trkpt>
      <trkpt lat="45.66926" lon="6.77413">
        <ele>1335</ele>
        <time>2019-09-03T20:34:53Z</time>
      </trkpt>
      <trkpt lat="45.66929" lon="6.77406">
        <ele>1337</ele>
        <time>2019-09-03T20:34:54Z</time>
      </trkpt>
      <trkpt lat="45.6693" lon="6.77399">
        <ele>1337</ele>
        <time>2019-09-03T20:34:55Z</time>
      </trkpt>
      <trkpt lat="45.66925" lon="6.77337">
        <ele>1335</ele>
        <time>2019-09-03T20:35:03Z</time>
      </trkpt>
      <trkpt lat="45.66927" lon="6.77257">
        <ele>1339</ele>
        <time>2019-09-03T20:35:13Z</time>
      </trkpt>
      <trkpt lat="45.66931" lon="6.77237">
        <ele>1340</ele>
        <time>2019-09-03T20:35:15Z</time>
      </trkpt>
      <trkpt lat="45.66951" lon="6.77193">
        <ele>1347</ele>
        <time>2019-09-03T20:35:22Z</time>
      </trkpt>
      <trkpt lat="45.66956" lon="6.77171">
        <ele>1348</ele>
        <time>2019-09-03T20:35:25Z</time>
      </trkpt>
      <trkpt lat="45.66959" lon="6.77166">
        <ele>1350</ele>
        <time>2019-09-03T20:35:26Z</time>
      </trkpt>
      <trkpt lat="45.66965" lon="6.77164">
        <ele>1353</ele>
        <time>2019-09-03T20:35:27Z</time>
      </trkpt>
      <trkpt lat="45.66968" lon="6.77173">
        <ele>1355</ele>
        <time>2019-09-03T20:35:28Z</time>
      </trkpt>
      <trkpt lat="45.66963" lon="6.77201">
        <ele>1353</ele>
        <time>2019-09-03T20:35:32Z</time>
      </trkpt>
      <trkpt lat="45.66963" lon="6.77246">
        <ele>1354</ele>
        <time>2019-09-03T20:35:37Z</time>
      </trkpt>
      <trkpt lat="45.66976" lon="6.77373">
        <ele>1361</ele>
        <time>2019-09-03T20:35:53Z</time>
      </trkpt>
      <trkpt lat="45.66977" lon="6.77402">
        <ele>1362</ele>
        <time>2019-09-03T20:35:57Z</time>
      </trkpt>
      <trkpt lat="45.66973" lon="6.77434">
        <ele>1361</ele>
        <time>2019-09-03T20:36:01Z</time>
      </trkpt>
      <trkpt lat="45.66973" lon="6.77439">
        <ele>1361</ele>
        <time>2019-09-03T20:36:01Z</time>
      </trkpt>
      <trkpt lat="45.66976" lon="6.77442">
        <ele>1362</ele>
        <time>2019-09-03T20:36:02Z</time>
      </trkpt>
      <trkpt lat="45.6698" lon="6.77442">
        <ele>1365</ele>
        <time>2019-09-03T20:36:03Z</time>
      </trkpt>
      <trkpt lat="45.66982" lon="6.77437">
        <ele>1366</ele>
        <time>2019-09-03T20:36:03Z</time>
      </trkpt>
      <trkpt lat="45.66984" lon="6.77421">
        <ele>1366</ele>
        <time>2019-09-03T20:36:05Z</time>
      </trkpt>
      <trkpt lat="45.66991" lon="6.77392">
        <ele>1369</ele>
        <time>2019-09-03T20:36:09Z</time>
      </trkpt>
      <trkpt lat="45.66999" lon="6.77366">
        <ele>1372</ele>
        <time>2019-09-03T20:36:13Z</time>
      </trkpt>
      <trkpt lat="45.67007" lon="6.77325">
        <ele>1375</ele>
        <time>2019-09-03T20:36:18Z</time>
      </trkpt>
      <trkpt lat="45.67008" lon="6.77283">
        <ele>1375</ele>
        <time>2019-09-03T20:36:23Z</time>
      </trkpt>
      <trkpt lat="45.6701" lon="6.77266">
        <ele>1375</ele>
        <time>2019-09-03T20:36:25Z</time>
      </trkpt>
      <trkpt lat="45.67008" lon="6.77215">
        <ele>1375</ele>
        <time>2019-09-03T20:36:32Z</time>
      </trkpt>
      <trkpt lat="45.67009" lon="6.77183">
        <ele>1377</ele>
        <time>2019-09-03T20:36:36Z</time>
      </trkpt>
      <trkpt lat="45.67018" lon="6.77127">
        <ele>1385</ele>
        <time>2019-09-03T20:36:43Z</time>
      </trkpt>
      <trkpt lat="45.67023" lon="6.77114">
        <ele>1389</ele>
        <time>2019-09-03T20:36:45Z</time>
      </trkpt>
      <trkpt lat="45.67034" lon="6.771">
        <ele>1396</ele>
        <time>2019-09-03T20:36:47Z</time>
      </trkpt>
      <trkpt lat="45.67035" lon="6.77093">
        <ele>1397</ele>
        <time>2019-09-03T20:36:48Z</time>
      </trkpt>
      <trkpt lat="45.67035" lon="6.77082">
        <ele>1398</ele>
        <time>2019-09-03T20:36:50Z</time>
      </trkpt>
      <trkpt lat="45.67034" lon="6.77077">
        <ele>1398</ele>
        <time>2019-09-03T20:36:50Z</time>
      </trkpt>
      <trkpt lat="45.67018" lon="6.77055">
        <ele>1388</ele>
        <time>2019-09-03T20:36:54Z</time>
      </trkpt>
      <trkpt lat="45.67015" lon="6.77042">
        <ele>1387</ele>
        <time>2019-09-03T20:36:56Z</time>
      </trkpt>
      <trkpt lat="45.67016" lon="6.77031">
        <ele>1388</ele>
        <time>2019-09-03T20:36:57Z</time>
      </trkpt>
      <trkpt lat="45.6702" lon="6.77018">
        <ele>1391</ele>
        <time>2019-09-03T20:36:59Z</time>
      </trkpt>
      <trkpt lat="45.67036" lon="6.76987">
        <ele>1399</ele>
        <time>2019-09-03T20:37:04Z</time>
      </trkpt>
      <trkpt lat="45.67063" lon="6.76949">
        <ele>1410</ele>
        <time>2019-09-03T20:37:11Z</time>
      </trkpt>
      <trkpt lat="45.67078" lon="6.76912">
        <ele>1414</ele>
        <time>2019-09-03T20:37:16Z</time>
      </trkpt>
      <trkpt lat="45.67088" lon="6.76867">
        <ele>1416</ele>
        <time>2019-09-03T20:37:22Z</time>
      </trkpt>
      <trkpt lat="45.671" lon="6.76795">
        <ele>1422</ele>
        <time>2019-09-03T20:37:31Z</time>
      </trkpt>
      <trkpt lat="45.67101" lon="6.76681">
        <ele>1425</ele>
        <time>2019-09-03T20:37:45Z</time>
      </trkpt>
      <trkpt lat="45.67107" lon="6.76618">
        <ele>1428</ele>
        <time>2019-09-03T20:37:53Z</time>
      </trkpt>
      <trkpt lat="45.67109" lon="6.76565">
        <ele>1429</ele>
        <time>2019-09-03T20:38:00Z</time>
      </trkpt>
      <trkpt lat="45.67112" lon="6.76524">
        <ele>1431</ele>
        <time>2019-09-03T20:38:05Z</time>
      </trkpt>
      <trkpt lat="45.67119" lon="6.76496">
        <ele>1436</ele>
        <time>2019-09-03T20:38:09Z</time>
      </trkpt>
      <trkpt lat="45.6712" lon="6.76475">
        <ele>1437</ele>
        <time>2019-09-03T20:38:11Z</time>
      </trkpt>
      <trkpt lat="45.67111" lon="6.76426">
        <ele>1433</ele>
        <time>2019-09-03T20:38:17Z</time>
      </trkpt>
      <trkpt lat="45.67107" lon="6.76364">
        <ele>1430</ele>
        <time>2019-09-03T20:38:25Z</time>
      </trkpt>
      <trkpt lat="45.67107" lon="6.7635">
        <ele>1430</ele>
        <time>2019-09-03T20:38:27Z</time>
      </trkpt>
      <trkpt lat="45.67119" lon="6.76289">
        <ele>1439</ele>
        <time>2019-09-03T20:38:35Z</time>
      </trkpt>
      <trkpt lat="45.67122" lon="6.76263">
        <ele>1441</ele>
        <time>2019-09-03T20:38:38Z</time>
      </trkpt>
      <trkpt lat="45.67126" lon="6.76124">
        <ele>1456</ele>
        <time>2019-09-03T20:38:55Z</time>
      </trkpt>
      <trkpt lat="45.67124" lon="6.76099">
        <ele>1459</ele>
        <time>2019-09-03T20:38:58Z</time>
      </trkpt>
      <trkpt lat="45.67108" lon="6.76038">
        <ele>1459</ele>
        <time>2019-09-03T20:39:07Z</time>
      </trkpt>
      <trkpt lat="45.67106" lon="6.76021">
        <ele>1461</ele>
        <time>2019-09-03T20:39:09Z</time>
      </trkpt>
      <trkpt lat="45.67106" lon="6.76005">
        <ele>1464</ele>
        <time>2019-09-03T20:39:11Z</time>
      </trkpt>
      <trkpt lat="45.67104" lon="6.75991">
        <ele>1465</ele>
        <time>2019-09-03T20:39:12Z</time>
      </trkpt>
      <trkpt lat="45.67099" lon="6.7598">
        <ele>1465</ele>
        <time>2019-09-03T20:39:14Z</time>
      </trkpt>
      <trkpt lat="45.67085" lon="6.75961">
        <ele>1464</ele>
        <time>2019-09-03T20:39:18Z</time>
      </trkpt>
      <trkpt lat="45.67048" lon="6.7592">
        <ele>1454</ele>
        <time>2019-09-03T20:39:26Z</time>
      </trkpt>
      <trkpt lat="45.67045" lon="6.75912">
        <ele>1453</ele>
        <time>2019-09-03T20:39:27Z</time>
      </trkpt>
      <trkpt lat="45.67044" lon="6.75903">
        <ele>1453</ele>
        <time>2019-09-03T20:39:28Z</time>
      </trkpt>
      <trkpt lat="45.67046" lon="6.75894">
        <ele>1455</ele>
        <time>2019-09-03T20:39:29Z</time>
      </trkpt>
      <trkpt lat="45.67053" lon="6.75875">
        <ele>1458</ele>
        <time>2019-09-03T20:39:32Z</time>
      </trkpt>
      <trkpt lat="45.67067" lon="6.75848">
        <ele>1464</ele>
        <time>2019-09-03T20:39:36Z</time>
      </trkpt>
      <trkpt lat="45.67102" lon="6.75774">
        <ele>1467</ele>
        <time>2019-09-03T20:39:47Z</time>
      </trkpt>
      <trkpt lat="45.6711" lon="6.75762">
        <ele>1467</ele>
        <time>2019-09-03T20:39:49Z</time>
      </trkpt>
      <trkpt lat="45.67117" lon="6.75754">
        <ele>1467</ele>
        <time>2019-09-03T20:39:51Z</time>
      </trkpt>
      <trkpt lat="45.67125" lon="6.75748">
        <ele>1468</ele>
        <time>2019-09-03T20:39:53Z</time>
      </trkpt>
      <trkpt lat="45.67133" lon="6.75747">
        <ele>1469</ele>
        <time>2019-09-03T20:39:54Z</time>
      </trkpt>
      <trkpt lat="45.67146" lon="6.75748">
        <ele>1471</ele>
        <time>2019-09-03T20:39:56Z</time>
      </trkpt>
      <trkpt lat="45.67165" lon="6.75754">
        <ele>1474</ele>
        <time>2019-09-03T20:40:00Z</time>
      </trkpt>
      <trkpt lat="45.67176" lon="6.75752">
        <ele>1476</ele>
        <time>2019-09-03T20:40:02Z</time>
      </trkpt>
      <trkpt lat="45.67212" lon="6.75735">
        <ele>1482</ele>
        <time>2019-09-03T20:40:08Z</time>
      </trkpt>
      <trkpt lat="45.6724" lon="6.7571">
        <ele>1484</ele>
        <time>2019-09-03T20:40:14Z</time>
      </trkpt>
      <trkpt lat="45.67282" lon="6.75652">
        <ele>1486</ele>
        <time>2019-09-03T20:40:25Z</time>
      </trkpt>
      <trkpt lat="45.67294" lon="6.75629">
        <ele>1485</ele>
        <time>2019-09-03T20:40:28Z</time>
      </trkpt>
      <trkpt lat="45.67312" lon="6.75574">
        <ele>1480</ele>
        <time>2019-09-03T20:40:36Z</time>
      </trkpt>
      <trkpt lat="45.67332" lon="6.75524">
        <ele>1476</ele>
        <time>2019-09-03T20:40:43Z</time>
      </trkpt>
      <trkpt lat="45.67351" lon="6.75498">
        <ele>1479</ele>
        <time>2019-09-03T20:40:48Z</time>
      </trkpt>
      <trkpt lat="45.6737" lon="6.75476">
        <ele>1484</ele>
        <time>2019-09-03T20:40:52Z</time>
      </trkpt>
      <trkpt lat="45.67384" lon="6.75453">
        <ele>1486</ele>
        <time>2019-09-03T20:40:56Z</time>
      </trkpt>
      <trkpt lat="45.674" lon="6.75415">
        <ele>1487</ele>
        <time>2019-09-03T20:41:01Z</time>
      </trkpt>
      <trkpt lat="45.67413" lon="6.75371">
        <ele>1486</ele>
        <time>2019-09-03T20:41:07Z</time>
      </trkpt>
      <trkpt lat="45.67415" lon="6.75353">
        <ele>1483</ele>
        <time>2019-09-03T20:41:10Z</time>
      </trkpt>
      <trkpt lat="45.67415" lon="6.75323">
        <ele>1480</ele>
        <time>2019-09-03T20:41:13Z</time>
      </trkpt>
      <trkpt lat="45.6741" lon="6.75251">
        <ele>1477</ele>
        <time>2019-09-03T20:41:22Z</time>
      </trkpt>
      <trkpt lat="45.67412" lon="6.75213">
        <ele>1478</ele>
        <time>2019-09-03T20:41:27Z</time>
      </trkpt>
      <trkpt lat="45.67416" lon="6.75184">
        <ele>1479</ele>
        <time>2019-09-03T20:41:31Z</time>
      </trkpt>
      <trkpt lat="45.67423" lon="6.75155">
        <ele>1480</ele>
        <time>2019-09-03T20:41:35Z</time>
      </trkpt>
      <trkpt lat="45.67438" lon="6.75129">
        <ele>1482</ele>
        <time>2019-09-03T20:41:39Z</time>
      </trkpt>
      <trkpt lat="45.67479" lon="6.75074">
        <ele>1484</ele>
        <time>2019-09-03T20:41:49Z</time>
      </trkpt>
      <trkpt lat="45.67533" lon="6.75008">
        <ele>1493</ele>
        <time>2019-09-03T20:42:01Z</time>
      </trkpt>
      <trkpt lat="45.67545" lon="6.74983">
        <ele>1495</ele>
        <time>2019-09-03T20:42:05Z</time>
      </trkpt>
      <trkpt lat="45.67553" lon="6.74958">
        <ele>1495</ele>
        <time>2019-09-03T20:42:09Z</time>
      </trkpt>
      <trkpt lat="45.67561" lon="6.74928">
        <ele>1495</ele>
        <time>2019-09-03T20:42:13Z</time>
      </trkpt>
      <trkpt lat="45.67566" lon="6.74852">
        <ele>1494</ele>
        <time>2019-09-03T20:42:22Z</time>
      </trkpt>
      <trkpt lat="45.67583" lon="6.7481">
        <ele>1492</ele>
        <time>2019-09-03T20:42:28Z</time>
      </trkpt>
      <trkpt lat="45.67601" lon="6.74778">
        <ele>1495</ele>
        <time>2019-09-03T20:42:33Z</time>
      </trkpt>
      <trkpt lat="45.67616" lon="6.74725">
        <ele>1496</ele>
        <time>2019-09-03T20:42:40Z</time>
      </trkpt>
      <trkpt lat="45.67629" lon="6.74703">
        <ele>1498</ele>
        <time>2019-09-03T20:42:44Z</time>
      </trkpt>
      <trkpt lat="45.67676" lon="6.7467">
        <ele>1500</ele>
        <time>2019-09-03T20:42:53Z</time>
      </trkpt>
      <trkpt lat="45.67695" lon="6.74648">
        <ele>1503</ele>
        <time>2019-09-03T20:42:57Z</time>
      </trkpt>
      <trkpt lat="45.6772" lon="6.74612">
        <ele>1503</ele>
        <time>2019-09-03T20:43:04Z</time>
      </trkpt>
      <trkpt lat="45.67748" lon="6.74545">
        <ele>1496</ele>
        <time>2019-09-03T20:43:14Z</time>
      </trkpt>
      <trkpt lat="45.67811" lon="6.74372">
        <ele>1508</ele>
        <time>2019-09-03T20:43:38Z</time>
      </trkpt>
      <trkpt lat="45.67861" lon="6.74285">
        <ele>1517</ele>
        <time>2019-09-03T20:43:52Z</time>
      </trkpt>
      <trkpt lat="45.68037" lon="6.7408">
        <ele>1527</ele>
        <time>2019-09-03T20:44:32Z</time>
      </trkpt>
      <trkpt lat="45.68106" lon="6.74008">
        <ele>1534</ele>
        <time>2019-09-03T20:44:47Z</time>
      </trkpt>
      <trkpt lat="45.68123" lon="6.73993">
        <ele>1535</ele>
        <time>2019-09-03T20:44:51Z</time>
      </trkpt>
      <trkpt lat="45.68192" lon="6.73954">
        <ele>1535</ele>
        <time>2019-09-03T20:45:04Z</time>
      </trkpt>
      <trkpt lat="45.68207" lon="6.73942">
        <ele>1535</ele>
        <time>2019-09-03T20:45:07Z</time>
      </trkpt>
      <trkpt lat="45.68274" lon="6.73822">
        <ele>1542</ele>
        <time>2019-09-03T20:45:26Z</time>
      </trkpt>
      <trkpt lat="45.68303" lon="6.73781">
        <ele>1542</ele>
        <time>2019-09-03T20:45:33Z</time>
      </trkpt>
      <trkpt lat="45.68325" lon="6.73765">
        <ele>1540</ele>
        <time>2019-09-03T20:45:38Z</time>
      </trkpt>
      <trkpt lat="45.68343" lon="6.73755">
        <ele>1539</ele>
        <time>2019-09-03T20:45:41Z</time>
      </trkpt>
      <trkpt lat="45.68447" lon="6.73724">
        <ele>1540</ele>
        <time>2019-09-03T20:46:00Z</time>
      </trkpt>
      <trkpt lat="45.68468" lon="6.73714">
        <ele>1541</ele>
        <time>2019-09-03T20:46:04Z</time>
      </trkpt>
      <trkpt lat="45.6849" lon="6.73699">
        <ele>1542</ele>
        <time>2019-09-03T20:46:08Z</time>
      </trkpt>
      <trkpt lat="45.68516" lon="6.73675">
        <ele>1542</ele>
        <time>2019-09-03T20:46:14Z</time>
      </trkpt>
      <trkpt lat="45.68558" lon="6.73594">
        <ele>1548</ele>
        <time>2019-09-03T20:46:27Z</time>
      </trkpt>
      <trkpt lat="45.68581" lon="6.73523">
        <ele>1548</ele>
        <time>2019-09-03T20:46:36Z</time>
      </trkpt>
      <trkpt lat="45.68585" lon="6.73489">
        <ele>1548</ele>
        <time>2019-09-03T20:46:41Z</time>
      </trkpt>
      <trkpt lat="45.68584" lon="6.73409">
        <ele>1554</ele>
        <time>2019-09-03T20:46:51Z</time>
      </trkpt>
      <trkpt lat="45.68596" lon="6.73367">
        <ele>1561</ele>
        <time>2019-09-03T20:46:56Z</time>
      </trkpt>
      <trkpt lat="45.68615" lon="6.7334">
        <ele>1565</ele>
        <time>2019-09-03T20:47:01Z</time>
      </trkpt>
      <trkpt lat="45.68651" lon="6.73315">
        <ele>1568</ele>
        <time>2019-09-03T20:47:08Z</time>
      </trkpt>
      <trkpt lat="45.68743" lon="6.73289">
        <ele>1572</ele>
        <time>2019-09-03T20:47:25Z</time>
      </trkpt>
      <trkpt lat="45.68797" lon="6.73277">
        <ele>1580</ele>
        <time>2019-09-03T20:47:34Z</time>
      </trkpt>
      <trkpt lat="45.68854" lon="6.73295">
        <ele>1580</ele>
        <time>2019-09-03T20:47:45Z</time>
      </trkpt>
      <trkpt lat="45.68887" lon="6.7331">
        <ele>1580</ele>
        <time>2019-09-03T20:47:51Z</time>
      </trkpt>
      <trkpt lat="45.68907" lon="6.73308">
        <ele>1584</ele>
        <time>2019-09-03T20:47:55Z</time>
      </trkpt>
      <trkpt lat="45.69009" lon="6.73287">
        <ele>1589</ele>
        <time>2019-09-03T20:48:13Z</time>
      </trkpt>
      <trkpt lat="45.69067" lon="6.73266">
        <ele>1599</ele>
        <time>2019-09-03T20:48:24Z</time>
      </trkpt>
      <trkpt lat="45.69174" lon="6.73256">
        <ele>1606</ele>
        <time>2019-09-03T20:48:43Z</time>
      </trkpt>
      <trkpt lat="45.69283" lon="6.73231">
        <ele>1611</ele>
        <time>2019-09-03T20:49:02Z</time>
      </trkpt>
      <trkpt lat="45.6933" lon="6.73198">
        <ele>1609</ele>
        <time>2019-09-03T20:49:12Z</time>
      </trkpt>
      <trkpt lat="45.69335" lon="6.73182">
        <ele>1611</ele>
        <time>2019-09-03T20:49:14Z</time>
      </trkpt>
      <trkpt lat="45.69335" lon="6.73162">
        <ele>1616</ele>
        <time>2019-09-03T20:49:16Z</time>
      </trkpt>
      <trkpt lat="45.69332" lon="6.73121">
        <ele>1623</ele>
        <time>2019-09-03T20:49:21Z</time>
      </trkpt>
      <trkpt lat="45.69333" lon="6.73096">
        <ele>1626</ele>
        <time>2019-09-03T20:49:24Z</time>
      </trkpt>
      <trkpt lat="45.69353" lon="6.72971">
        <ele>1634</ele>
        <time>2019-09-03T20:49:40Z</time>
      </trkpt>
      <trkpt lat="45.69361" lon="6.72892">
        <ele>1636</ele>
        <time>2019-09-03T20:49:50Z</time>
      </trkpt>
      <trkpt lat="45.694" lon="6.72667">
        <ele>1655</ele>
        <time>2019-09-03T20:50:19Z</time>
      </trkpt>
      <trkpt lat="45.69403" lon="6.72633">
        <ele>1657</ele>
        <time>2019-09-03T20:50:23Z</time>
      </trkpt>
      <trkpt lat="45.69405" lon="6.72591">
        <ele>1660</ele>
        <time>2019-09-03T20:50:29Z</time>
      </trkpt>
      <trkpt lat="45.69396" lon="6.72461">
        <ele>1671</ele>
        <time>2019-09-03T20:50:45Z</time>
      </trkpt>
      <trkpt lat="45.6939" lon="6.72418">
        <ele>1678</ele>
        <time>2019-09-03T20:50:50Z</time>
      </trkpt>
      <trkpt lat="45.69388" lon="6.72385">
        <ele>1681</ele>
        <time>2019-09-03T20:50:54Z</time>
      </trkpt>
      <trkpt lat="45.6939" lon="6.72352">
        <ele>1682</ele>
        <time>2019-09-03T20:50:59Z</time>
      </trkpt>
      <trkpt lat="45.69395" lon="6.7233">
        <ele>1682</ele>
        <time>2019-09-03T20:51:01Z</time>
      </trkpt>
      <trkpt lat="45.6941" lon="6.72301">
        <ele>1683</ele>
        <time>2019-09-03T20:51:06Z</time>
      </trkpt>
      <trkpt lat="45.69426" lon="6.72257">
        <ele>1689</ele>
        <time>2019-09-03T20:51:12Z</time>
      </trkpt>
      <trkpt lat="45.69444" lon="6.72228">
        <ele>1697</ele>
        <time>2019-09-03T20:51:17Z</time>
      </trkpt>
      <trkpt lat="45.69465" lon="6.72208">
        <ele>1703</ele>
        <time>2019-09-03T20:51:21Z</time>
      </trkpt>
      <trkpt lat="45.69476" lon="6.72202">
        <ele>1705</ele>
        <time>2019-09-03T20:51:23Z</time>
      </trkpt>
      <trkpt lat="45.69485" lon="6.72203">
        <ele>1706</ele>
        <time>2019-09-03T20:51:25Z</time>
      </trkpt>
      <trkpt lat="45.69494" lon="6.72207">
        <ele>1705</ele>
        <time>2019-09-03T20:51:27Z</time>
      </trkpt>
      <trkpt lat="45.69507" lon="6.72224">
        <ele>1704</ele>
        <time>2019-09-03T20:51:30Z</time>
      </trkpt>
      <trkpt lat="45.69518" lon="6.72248">
        <ele>1702</ele>
        <time>2019-09-03T20:51:33Z</time>
      </trkpt>
      <trkpt lat="45.69529" lon="6.72313">
        <ele>1702</ele>
        <time>2019-09-03T20:51:42Z</time>
      </trkpt>
      <trkpt lat="45.6953" lon="6.72327">
        <ele>1702</ele>
        <time>2019-09-03T20:51:44Z</time>
      </trkpt>
      <trkpt lat="45.69529" lon="6.72341">
        <ele>1700</ele>
        <time>2019-09-03T20:51:45Z</time>
      </trkpt>
      <trkpt lat="45.69516" lon="6.72394">
        <ele>1691</ele>
        <time>2019-09-03T20:51:52Z</time>
      </trkpt>
      <trkpt lat="45.69516" lon="6.72413">
        <ele>1690</ele>
        <time>2019-09-03T20:51:55Z</time>
      </trkpt>
      <trkpt lat="45.69519" lon="6.72425">
        <ele>1690</ele>
        <time>2019-09-03T20:51:56Z</time>
      </trkpt>
      <trkpt lat="45.69525" lon="6.72438">
        <ele>1690</ele>
        <time>2019-09-03T20:51:58Z</time>
      </trkpt>
      <trkpt lat="45.69547" lon="6.72474">
        <ele>1695</ele>
        <time>2019-09-03T20:52:04Z</time>
      </trkpt>
      <trkpt lat="45.69562" lon="6.72505">
        <ele>1697</ele>
        <time>2019-09-03T20:52:09Z</time>
      </trkpt>
      <trkpt lat="45.69576" lon="6.72544">
        <ele>1697</ele>
        <time>2019-09-03T20:52:14Z</time>
      </trkpt>
      <trkpt lat="45.69597" lon="6.72616">
        <ele>1693</ele>
        <time>2019-09-03T20:52:24Z</time>
      </trkpt>
      <trkpt lat="45.69601" lon="6.7265">
        <ele>1690</ele>
        <time>2019-09-03T20:52:28Z</time>
      </trkpt>
      <trkpt lat="45.69605" lon="6.72667">
        <ele>1689</ele>
        <time>2019-09-03T20:52:30Z</time>
      </trkpt>
      <trkpt lat="45.69609" lon="6.72673">
        <ele>1689</ele>
        <time>2019-09-03T20:52:31Z</time>
      </trkpt>
      <trkpt lat="45.69613" lon="6.72676">
        <ele>1690</ele>
        <time>2019-09-03T20:52:32Z</time>
      </trkpt>
      <trkpt lat="45.6962" lon="6.72677">
        <ele>1692</ele>
        <time>2019-09-03T20:52:34Z</time>
      </trkpt>
      <trkpt lat="45.69627" lon="6.72673">
        <ele>1694</ele>
        <time>2019-09-03T20:52:35Z</time>
      </trkpt>
      <trkpt lat="45.69632" lon="6.72664">
        <ele>1697</ele>
        <time>2019-09-03T20:52:36Z</time>
      </trkpt>
      <trkpt lat="45.69635" lon="6.7265">
        <ele>1700</ele>
        <time>2019-09-03T20:52:38Z</time>
      </trkpt>
      <trkpt lat="45.69633" lon="6.72624">
        <ele>1702</ele>
        <time>2019-09-03T20:52:41Z</time>
      </trkpt>
      <trkpt lat="45.69629" lon="6.72603">
        <ele>1704</ele>
        <time>2019-09-03T20:52:44Z</time>
      </trkpt>
      <trkpt lat="45.69614" lon="6.7255">
        <ele>1708</ele>
        <time>2019-09-03T20:52:51Z</time>
      </trkpt>
      <trkpt lat="45.69612" lon="6.72532">
        <ele>1710</ele>
        <time>2019-09-03T20:52:53Z</time>
      </trkpt>
      <trkpt lat="45.69609" lon="6.72477">
        <ele>1717</ele>
        <time>2019-09-03T20:53:00Z</time>
      </trkpt>
      <trkpt lat="45.6961" lon="6.72375">
        <ele>1726</ele>
        <time>2019-09-03T20:53:13Z</time>
      </trkpt>
      <trkpt lat="45.69609" lon="6.72351">
        <ele>1728</ele>
        <time>2019-09-03T20:53:16Z</time>
      </trkpt>
      <trkpt lat="45.69603" lon="6.7232">
        <ele>1728</ele>
        <time>2019-09-03T20:53:20Z</time>
      </trkpt>
      <trkpt lat="45.69598" lon="6.72306">
        <ele>1727</ele>
        <time>2019-09-03T20:53:22Z</time>
      </trkpt>
      <trkpt lat="45.69583" lon="6.72278">
        <ele>1724</ele>
        <time>2019-09-03T20:53:26Z</time>
      </trkpt>
      <trkpt lat="45.69581" lon="6.72268">
        <ele>1723</ele>
        <time>2019-09-03T20:53:28Z</time>
      </trkpt>
      <trkpt lat="45.69585" lon="6.72256">
        <ele>1725</ele>
        <time>2019-09-03T20:53:29Z</time>
      </trkpt>
      <trkpt lat="45.6959" lon="6.72253">
        <ele>1727</ele>
        <time>2019-09-03T20:53:30Z</time>
      </trkpt>
      <trkpt lat="45.69597" lon="6.72254">
        <ele>1729</ele>
        <time>2019-09-03T20:53:31Z</time>
      </trkpt>
      <trkpt lat="45.69602" lon="6.7226">
        <ele>1730</ele>
        <time>2019-09-03T20:53:33Z</time>
      </trkpt>
      <trkpt lat="45.69607" lon="6.72269">
        <ele>1732</ele>
        <time>2019-09-03T20:53:34Z</time>
      </trkpt>
      <trkpt lat="45.69678" lon="6.72424">
        <ele>1745</ele>
        <time>2019-09-03T20:53:57Z</time>
      </trkpt>
      <trkpt lat="45.69707" lon="6.72492">
        <ele>1746</ele>
        <time>2019-09-03T20:54:07Z</time>
      </trkpt>
      <trkpt lat="45.69714" lon="6.72505">
        <ele>1746</ele>
        <time>2019-09-03T20:54:09Z</time>
      </trkpt>
      <trkpt lat="45.69728" lon="6.72514">
        <ele>1749</ele>
        <time>2019-09-03T20:54:12Z</time>
      </trkpt>
      <trkpt lat="45.69774" lon="6.72533">
        <ele>1754</ele>
        <time>2019-09-03T20:54:20Z</time>
      </trkpt>
      <trkpt lat="45.69787" lon="6.72533">
        <ele>1756</ele>
        <time>2019-09-03T20:54:23Z</time>
      </trkpt>
      <trkpt lat="45.69796" lon="6.72528">
        <ele>1758</ele>
        <time>2019-09-03T20:54:24Z</time>
      </trkpt>
      <trkpt lat="45.69803" lon="6.72522">
        <ele>1761</ele>
        <time>2019-09-03T20:54:26Z</time>
      </trkpt>
      <trkpt lat="45.69807" lon="6.72509">
        <ele>1764</ele>
        <time>2019-09-03T20:54:28Z</time>
      </trkpt>
      <trkpt lat="45.69809" lon="6.72493">
        <ele>1766</ele>
        <time>2019-09-03T20:54:30Z</time>
      </trkpt>
      <trkpt lat="45.69806" lon="6.72479">
        <ele>1767</ele>
        <time>2019-09-03T20:54:31Z</time>
      </trkpt>
      <trkpt lat="45.69795" lon="6.7246">
        <ele>1768</ele>
        <time>2019-09-03T20:54:34Z</time>
      </trkpt>
      <trkpt lat="45.6978" lon="6.7244">
        <ele>1768</ele>
        <time>2019-09-03T20:54:38Z</time>
      </trkpt>
      <trkpt lat="45.69754" lon="6.72413">
        <ele>1768</ele>
        <time>2019-09-03T20:54:44Z</time>
      </trkpt>
      <trkpt lat="45.69746" lon="6.72399">
        <ele>1767</ele>
        <time>2019-09-03T20:54:46Z</time>
      </trkpt>
      <trkpt lat="45.69741" lon="6.72376">
        <ele>1766</ele>
        <time>2019-09-03T20:54:49Z</time>
      </trkpt>
      <trkpt lat="45.6974" lon="6.72354">
        <ele>1767</ele>
        <time>2019-09-03T20:54:52Z</time>
      </trkpt>
      <trkpt lat="45.69744" lon="6.72333">
        <ele>1769</ele>
        <time>2019-09-03T20:54:54Z</time>
      </trkpt>
      <trkpt lat="45.6976" lon="6.72299">
        <ele>1774</ele>
        <time>2019-09-03T20:55:00Z</time>
      </trkpt>
      <trkpt lat="45.69771" lon="6.72263">
        <ele>1779</ele>
        <time>2019-09-03T20:55:04Z</time>
      </trkpt>
      <trkpt lat="45.69768" lon="6.72226">
        <ele>1779</ele>
        <time>2019-09-03T20:55:09Z</time>
      </trkpt>
      <trkpt lat="45.69765" lon="6.72214">
        <ele>1779</ele>
        <time>2019-09-03T20:55:11Z</time>
      </trkpt>
      <trkpt lat="45.69755" lon="6.72195">
        <ele>1777</ele>
        <time>2019-09-03T20:55:14Z</time>
      </trkpt>
      <trkpt lat="45.69732" lon="6.72164">
        <ele>1773</ele>
        <time>2019-09-03T20:55:19Z</time>
      </trkpt>
      <trkpt lat="45.69728" lon="6.72147">
        <ele>1773</ele>
        <time>2019-09-03T20:55:21Z</time>
      </trkpt>
      <trkpt lat="45.69736" lon="6.72051">
        <ele>1780</ele>
        <time>2019-09-03T20:55:33Z</time>
      </trkpt>
      <trkpt lat="45.6974" lon="6.71973">
        <ele>1789</ele>
        <time>2019-09-03T20:55:43Z</time>
      </trkpt>
      <trkpt lat="45.69737" lon="6.71958">
        <ele>1792</ele>
        <time>2019-09-03T20:55:45Z</time>
      </trkpt>
      <trkpt lat="45.69727" lon="6.71942">
        <ele>1794</ele>
        <time>2019-09-03T20:55:48Z</time>
      </trkpt>
      <trkpt lat="45.69701" lon="6.71925">
        <ele>1792</ele>
        <time>2019-09-03T20:55:53Z</time>
      </trkpt>
      <trkpt lat="45.69603" lon="6.71865">
        <ele>1791</ele>
        <time>2019-09-03T20:56:12Z</time>
      </trkpt>
      <trkpt lat="45.69583" lon="6.71837">
        <ele>1791</ele>
        <time>2019-09-03T20:56:17Z</time>
      </trkpt>
      <trkpt lat="45.69573" lon="6.71806">
        <ele>1793</ele>
        <time>2019-09-03T20:56:21Z</time>
      </trkpt>
      <trkpt lat="45.69568" lon="6.71759">
        <ele>1797</ele>
        <time>2019-09-03T20:56:27Z</time>
      </trkpt>
      <trkpt lat="45.69569" lon="6.71728">
        <ele>1800</ele>
        <time>2019-09-03T20:56:31Z</time>
      </trkpt>
      <trkpt lat="45.69587" lon="6.71685">
        <ele>1803</ele>
        <time>2019-09-03T20:56:37Z</time>
      </trkpt>
      <trkpt lat="45.69587" lon="6.71664">
        <ele>1804</ele>
        <time>2019-09-03T20:56:40Z</time>
      </trkpt>
      <trkpt lat="45.69579" lon="6.71644">
        <ele>1806</ele>
        <time>2019-09-03T20:56:43Z</time>
      </trkpt>
      <trkpt lat="45.69557" lon="6.71634">
        <ele>1808</ele>
        <time>2019-09-03T20:56:47Z</time>
      </trkpt>
      <trkpt lat="45.69532" lon="6.71637">
        <ele>1808</ele>
        <time>2019-09-03T20:56:51Z</time>
      </trkpt>
      <trkpt lat="45.69479" lon="6.71664">
        <ele>1802</ele>
        <time>2019-09-03T20:57:01Z</time>
      </trkpt>
      <trkpt lat="45.69464" lon="6.71665">
        <ele>1801</ele>
        <time>2019-09-03T20:57:04Z</time>
      </trkpt>
      <trkpt lat="45.6945" lon="6.71653">
        <ele>1802</ele>
        <time>2019-09-03T20:57:07Z</time>
      </trkpt>
      <trkpt lat="45.69441" lon="6.71642">
        <ele>1803</ele>
        <time>2019-09-03T20:57:09Z</time>
      </trkpt>
      <trkpt lat="45.69433" lon="6.71619">
        <ele>1805</ele>
        <time>2019-09-03T20:57:12Z</time>
      </trkpt>
      <trkpt lat="45.6943" lon="6.71601">
        <ele>1806</ele>
        <time>2019-09-03T20:57:14Z</time>
      </trkpt>
      <trkpt lat="45.69432" lon="6.71583">
        <ele>1809</ele>
        <time>2019-09-03T20:57:17Z</time>
      </trkpt>
      <trkpt lat="45.69449" lon="6.71508">
        <ele>1818</ele>
        <time>2019-09-03T20:57:26Z</time>
      </trkpt>
      <trkpt lat="45.69447" lon="6.71467">
        <ele>1822</ele>
        <time>2019-09-03T20:57:31Z</time>
      </trkpt>
      <trkpt lat="45.69428" lon="6.71392">
        <ele>1824</ele>
        <time>2019-09-03T20:57:41Z</time>
      </trkpt>
      <trkpt lat="45.69404" lon="6.71321">
        <ele>1826</ele>
        <time>2019-09-03T20:57:51Z</time>
      </trkpt>
      <trkpt lat="45.69389" lon="6.71247">
        <ele>1828</ele>
        <time>2019-09-03T20:58:01Z</time>
      </trkpt>
      <trkpt lat="45.69298" lon="6.70479">
        <ele>1875</ele>
        <time>2019-09-03T20:59:38Z</time>
      </trkpt>
      <trkpt lat="45.69281" lon="6.70407">
        <ele>1875</ele>
        <time>2019-09-03T20:59:47Z</time>
      </trkpt>
      <trkpt lat="45.69261" lon="6.7033">
        <ele>1875</ele>
        <time>2019-09-03T20:59:57Z</time>
      </trkpt>
      <trkpt lat="45.69216" lon="6.70189">
        <ele>1894</ele>
        <time>2019-09-03T21:00:16Z</time>
      </trkpt>
      <trkpt lat="45.69212" lon="6.70151">
        <ele>1897</ele>
        <time>2019-09-03T21:00:21Z</time>
      </trkpt>
      <trkpt lat="45.69211" lon="6.70114">
        <ele>1898</ele>
        <time>2019-09-03T21:00:26Z</time>
      </trkpt>
      <trkpt lat="45.69217" lon="6.70075">
        <ele>1900</ele>
        <time>2019-09-03T21:00:31Z</time>
      </trkpt>
      <trkpt lat="45.69227" lon="6.70037">
        <ele>1901</ele>
        <time>2019-09-03T21:00:36Z</time>
      </trkpt>
      <trkpt lat="45.69341" lon="6.69772">
        <ele>1915</ele>
        <time>2019-09-03T21:01:15Z</time>
      </trkpt>
      <trkpt lat="45.69364" lon="6.697">
        <ele>1917</ele>
        <time>2019-09-03T21:01:24Z</time>
      </trkpt>
      <trkpt lat="45.69379" lon="6.69627">
        <ele>1921</ele>
        <time>2019-09-03T21:01:34Z</time>
      </trkpt>
      <trkpt lat="45.69387" lon="6.69552">
        <ele>1927</ele>
        <time>2019-09-03T21:01:43Z</time>
      </trkpt>
      <trkpt lat="45.6939" lon="6.69518">
        <ele>1931</ele>
        <time>2019-09-03T21:01:48Z</time>
      </trkpt>
      <trkpt lat="45.69389" lon="6.69473">
        <ele>1936</ele>
        <time>2019-09-03T21:01:53Z</time>
      </trkpt>
      <trkpt lat="45.69385" lon="6.69438">
        <ele>1941</ele>
        <time>2019-09-03T21:01:58Z</time>
      </trkpt>
      <trkpt lat="45.69377" lon="6.694">
        <ele>1944</ele>
        <time>2019-09-03T21:02:02Z</time>
      </trkpt>
      <trkpt lat="45.69348" lon="6.69332">
        <ele>1948</ele>
        <time>2019-09-03T21:02:12Z</time>
      </trkpt>
      <trkpt lat="45.69333" lon="6.69304">
        <ele>1949</ele>
        <time>2019-09-03T21:02:17Z</time>
      </trkpt>
      <trkpt lat="45.69313" lon="6.69276">
        <ele>1953</ele>
        <time>2019-09-03T21:02:22Z</time>
      </trkpt>
      <trkpt lat="45.69289" lon="6.69256">
        <ele>1956</ele>
        <time>2019-09-03T21:02:27Z</time>
      </trkpt>
      <trkpt lat="45.69264" lon="6.69249">
        <ele>1956</ele>
        <time>2019-09-03T21:02:31Z</time>
      </trkpt>
      <trkpt lat="45.69207" lon="6.69243">
        <ele>1962</ele>
        <time>2019-09-03T21:02:41Z</time>
      </trkpt>
      <trkpt lat="45.69195" lon="6.69239">
        <ele>1963</ele>
        <time>2019-09-03T21:02:44Z</time>
      </trkpt>
      <trkpt lat="45.69183" lon="6.6923">
        <ele>1965</ele>
        <time>2019-09-03T21:02:46Z</time>
      </trkpt>
      <trkpt lat="45.69172" lon="6.69217">
        <ele>1966</ele>
        <time>2019-09-03T21:02:49Z</time>
      </trkpt>
      <trkpt lat="45.69161" lon="6.69193">
        <ele>1967</ele>
        <time>2019-09-03T21:02:52Z</time>
      </trkpt>
      <trkpt lat="45.69144" lon="6.69122">
        <ele>1972</ele>
        <time>2019-09-03T21:03:01Z</time>
      </trkpt>
      <trkpt lat="45.69131" lon="6.69055">
        <ele>1974</ele>
        <time>2019-09-03T21:03:10Z</time>
      </trkpt>
      <trkpt lat="45.6912" lon="6.68985">
        <ele>1972</ele>
        <time>2019-09-03T21:03:19Z</time>
      </trkpt>
      <trkpt lat="45.6912" lon="6.68964">
        <ele>1970</ele>
        <time>2019-09-03T21:03:22Z</time>
      </trkpt>
      <trkpt lat="45.69123" lon="6.68945">
        <ele>1969</ele>
        <time>2019-09-03T21:03:24Z</time>
      </trkpt>
      <trkpt lat="45.69133" lon="6.68899">
        <ele>1968</ele>
        <time>2019-09-03T21:03:30Z</time>
      </trkpt>
      <trkpt lat="45.69134" lon="6.68885">
        <ele>1968</ele>
        <time>2019-09-03T21:03:32Z</time>
      </trkpt>
      <trkpt lat="45.69132" lon="6.6884">
        <ele>1966</ele>
        <time>2019-09-03T21:03:37Z</time>
      </trkpt>
      <trkpt lat="45.69136" lon="6.68813">
        <ele>1966</ele>
        <time>2019-09-03T21:03:41Z</time>
      </trkpt>
      <trkpt lat="45.69145" lon="6.68782">
        <ele>1966</ele>
        <time>2019-09-03T21:03:45Z</time>
      </trkpt>
      <trkpt lat="45.69144" lon="6.68762">
        <ele>1964</ele>
        <time>2019-09-03T21:03:47Z</time>
      </trkpt>
      <trkpt lat="45.69139" lon="6.68745">
        <ele>1963</ele>
        <time>2019-09-03T21:03:50Z</time>
      </trkpt>
      <trkpt lat="45.69115" lon="6.68717">
        <ele>1960</ele>
        <time>2019-09-03T21:03:55Z</time>
      </trkpt>
      <trkpt lat="45.69105" lon="6.68699">
        <ele>1958</ele>
        <time>2019-09-03T21:03:58Z</time>
      </trkpt>
      <trkpt lat="45.69105" lon="6.68682">
        <ele>1958</ele>
        <time>2019-09-03T21:04:00Z</time>
      </trkpt>
      <trkpt lat="45.69118" lon="6.68507">
        <ele>1953</ele>
        <time>2019-09-03T21:04:22Z</time>
      </trkpt>
      <trkpt lat="45.69134" lon="6.6847">
        <ele>1953</ele>
        <time>2019-09-03T21:04:28Z</time>
      </trkpt>
      <trkpt lat="45.69155" lon="6.68435">
        <ele>1953</ele>
        <time>2019-09-03T21:04:33Z</time>
      </trkpt>
      <trkpt lat="45.69157" lon="6.68416">
        <ele>1952</ele>
        <time>2019-09-03T21:04:36Z</time>
      </trkpt>
      <trkpt lat="45.69153" lon="6.68396">
        <ele>1951</ele>
        <time>2019-09-03T21:04:38Z</time>
      </trkpt>
      <trkpt lat="45.69122" lon="6.68345">
        <ele>1947</ele>
        <time>2019-09-03T21:04:47Z</time>
      </trkpt>
      <trkpt lat="45.69103" lon="6.68298">
        <ele>1944</ele>
        <time>2019-09-03T21:04:53Z</time>
      </trkpt>
      <trkpt lat="45.69093" lon="6.68265">
        <ele>1943</ele>
        <time>2019-09-03T21:04:58Z</time>
      </trkpt>
      <trkpt lat="45.69074" lon="6.68238">
        <ele>1942</ele>
        <time>2019-09-03T21:05:03Z</time>
      </trkpt>
      <trkpt lat="45.69025" lon="6.68198">
        <ele>1941</ele>
        <time>2019-09-03T21:05:13Z</time>
      </trkpt>
      <trkpt lat="45.69008" lon="6.6817">
        <ele>1940</ele>
        <time>2019-09-03T21:05:17Z</time>
      </trkpt>
      <trkpt lat="45.69001" lon="6.68132">
        <ele>1939</ele>
        <time>2019-09-03T21:05:22Z</time>
      </trkpt>
      <trkpt lat="45.69006" lon="6.68082">
        <ele>1937</ele>
        <time>2019-09-03T21:05:28Z</time>
      </trkpt>
      <trkpt lat="45.69017" lon="6.68047">
        <ele>1934</ele>
        <time>2019-09-03T21:05:33Z</time>
      </trkpt>
      <trkpt lat="45.69032" lon="6.68022">
        <ele>1930</ele>
        <time>2019-09-03T21:05:37Z</time>
      </trkpt>
      <trkpt lat="45.69047" lon="6.68009">
        <ele>1928</ele>
        <time>2019-09-03T21:05:40Z</time>
      </trkpt>
      <trkpt lat="45.69061" lon="6.68">
        <ele>1926</ele>
        <time>2019-09-03T21:05:43Z</time>
      </trkpt>
      <trkpt lat="45.69078" lon="6.67996">
        <ele>1924</ele>
        <time>2019-09-03T21:05:46Z</time>
      </trkpt>
      <trkpt lat="45.69093" lon="6.67999">
        <ele>1922</ele>
        <time>2019-09-03T21:05:49Z</time>
      </trkpt>
      <trkpt lat="45.6912" lon="6.68017">
        <ele>1920</ele>
        <time>2019-09-03T21:05:54Z</time>
      </trkpt>
      <trkpt lat="45.6917" lon="6.68065">
        <ele>1919</ele>
        <time>2019-09-03T21:06:05Z</time>
      </trkpt>
      <trkpt lat="45.69242" lon="6.68161">
        <ele>1917</ele>
        <time>2019-09-03T21:06:22Z</time>
      </trkpt>
      <trkpt lat="45.69255" lon="6.68176">
        <ele>1917</ele>
        <time>2019-09-03T21:06:25Z</time>
      </trkpt>
      <trkpt lat="45.69272" lon="6.68189">
        <ele>1916</ele>
        <time>2019-09-03T21:06:29Z</time>
      </trkpt>
      <trkpt lat="45.69366" lon="6.68246">
        <ele>1910</ele>
        <time>2019-09-03T21:06:47Z</time>
      </trkpt>
      <trkpt lat="45.69402" lon="6.68275">
        <ele>1909</ele>
        <time>2019-09-03T21:06:54Z</time>
      </trkpt>
      <trkpt lat="45.69408" lon="6.68277">
        <ele>1909</ele>
        <time>2019-09-03T21:06:55Z</time>
      </trkpt>
      <trkpt lat="45.69418" lon="6.68274">
        <ele>1906</ele>
        <time>2019-09-03T21:06:57Z</time>
      </trkpt>
      <trkpt lat="45.69423" lon="6.68266">
        <ele>1903</ele>
        <time>2019-09-03T21:06:59Z</time>
      </trkpt>
      <trkpt lat="45.69424" lon="6.68261">
        <ele>1902</ele>
        <time>2019-09-03T21:06:59Z</time>
      </trkpt>
      <trkpt lat="45.69421" lon="6.68245">
        <ele>1899</ele>
        <time>2019-09-03T21:07:01Z</time>
      </trkpt>
      <trkpt lat="45.69354" lon="6.68175">
        <ele>1898</ele>
        <time>2019-09-03T21:07:16Z</time>
      </trkpt>
      <trkpt lat="45.69339" lon="6.68157">
        <ele>1898</ele>
        <time>2019-09-03T21:07:20Z</time>
      </trkpt>
      <trkpt lat="45.69332" lon="6.68141">
        <ele>1898</ele>
        <time>2019-09-03T21:07:22Z</time>
      </trkpt>
      <trkpt lat="45.69325" lon="6.68078">
        <ele>1890</ele>
        <time>2019-09-03T21:07:30Z</time>
      </trkpt>
      <trkpt lat="45.69306" lon="6.67996">
        <ele>1881</ele>
        <time>2019-09-03T21:07:41Z</time>
      </trkpt>
      <trkpt lat="45.69301" lon="6.67979">
        <ele>1878</ele>
        <time>2019-09-03T21:07:43Z</time>
      </trkpt>
      <trkpt lat="45.69295" lon="6.6797">
        <ele>1878</ele>
        <time>2019-09-03T21:07:44Z</time>
      </trkpt>
      <trkpt lat="45.69288" lon="6.67958">
        <ele>1877</ele>
        <time>2019-09-03T21:07:46Z</time>
      </trkpt>
      <trkpt lat="45.69275" lon="6.67946">
        <ele>1877</ele>
        <time>2019-09-03T21:07:49Z</time>
      </trkpt>
      <trkpt lat="45.69236" lon="6.67925">
        <ele>1880</ele>
        <time>2019-09-03T21:07:56Z</time>
      </trkpt>
      <trkpt lat="45.69222" lon="6.67904">
        <ele>1879</ele>
        <time>2019-09-03T21:08:00Z</time>
      </trkpt>
      <trkpt lat="45.69198" lon="6.67854">
        <ele>1874</ele>
        <time>2019-09-03T21:08:08Z</time>
      </trkpt>
      <trkpt lat="45.69121" lon="6.67731">
        <ele>1869</ele>
        <time>2019-09-03T21:08:28Z</time>
      </trkpt>
      <trkpt lat="45.69117" lon="6.67721">
        <ele>1869</ele>
        <time>2019-09-03T21:08:30Z</time>
      </trkpt>
      <trkpt lat="45.69114" lon="6.6771">
        <ele>1868</ele>
        <time>2019-09-03T21:08:31Z</time>
      </trkpt>
      <trkpt lat="45.69108" lon="6.67665">
        <ele>1865</ele>
        <time>2019-09-03T21:08:37Z</time>
      </trkpt>
      <trkpt lat="45.69095" lon="6.676">
        <ele>1862</ele>
        <time>2019-09-03T21:08:45Z</time>
      </trkpt>
      <trkpt lat="45.69088" lon="6.6755">
        <ele>1859</ele>
        <time>2019-09-03T21:08:51Z</time>
      </trkpt>
      <trkpt lat="45.69086" lon="6.67505">
        <ele>1855</ele>
        <time>2019-09-03T21:08:57Z</time>
      </trkpt>
      <trkpt lat="45.69095" lon="6.67438">
        <ele>1851</ele>
        <time>2019-09-03T21:09:06Z</time>
      </trkpt>
      <trkpt lat="45.69098" lon="6.67427">
        <ele>1850</ele>
        <time>2019-09-03T21:09:07Z</time>
      </trkpt>
      <trkpt lat="45.69109" lon="6.67405">
        <ele>1847</ele>
        <time>2019-09-03T21:09:10Z</time>
      </trkpt>
      <trkpt lat="45.69112" lon="6.67393">
        <ele>1847</ele>
        <time>2019-09-03T21:09:12Z</time>
      </trkpt>
      <trkpt lat="45.69114" lon="6.67353">
        <ele>1847</ele>
        <time>2019-09-03T21:09:17Z</time>
      </trkpt>
      <trkpt lat="45.69122" lon="6.67325">
        <ele>1846</ele>
        <time>2019-09-03T21:09:21Z</time>
      </trkpt>
      <trkpt lat="45.69127" lon="6.67314">
        <ele>1845</ele>
        <time>2019-09-03T21:09:22Z</time>
      </trkpt>
      <trkpt lat="45.69137" lon="6.67301">
        <ele>1843</ele>
        <time>2019-09-03T21:09:25Z</time>
      </trkpt>
      <trkpt lat="45.69173" lon="6.67273">
        <ele>1837</ele>
        <time>2019-09-03T21:09:32Z</time>
      </trkpt>
      <trkpt lat="45.69182" lon="6.67262">
        <ele>1836</ele>
        <time>2019-09-03T21:09:34Z</time>
      </trkpt>
      <trkpt lat="45.69206" lon="6.6721">
        <ele>1834</ele>
        <time>2019-09-03T21:09:42Z</time>
      </trkpt>
      <trkpt lat="45.69246" lon="6.67147">
        <ele>1828</ele>
        <time>2019-09-03T21:09:52Z</time>
      </trkpt>
      <trkpt lat="45.69251" lon="6.67131">
        <ele>1827</ele>
        <time>2019-09-03T21:09:55Z</time>
      </trkpt>
      <trkpt lat="45.69258" lon="6.67095">
        <ele>1827</ele>
        <time>2019-09-03T21:09:59Z</time>
      </trkpt>
      <trkpt lat="45.69263" lon="6.6708">
        <ele>1826</ele>
        <time>2019-09-03T21:10:01Z</time>
      </trkpt>
      <trkpt lat="45.6929" lon="6.67029">
        <ele>1822</ele>
        <time>2019-09-03T21:10:09Z</time>
      </trkpt>
      <trkpt lat="45.69297" lon="6.67014">
        <ele>1821</ele>
        <time>2019-09-03T21:10:12Z</time>
      </trkpt>
      <trkpt lat="45.69352" lon="6.66768">
        <ele>1813</ele>
        <time>2019-09-03T21:10:44Z</time>
      </trkpt>
      <trkpt lat="45.69354" lon="6.66748">
        <ele>1812</ele>
        <time>2019-09-03T21:10:46Z</time>
      </trkpt>
      <trkpt lat="45.69354" lon="6.66674">
        <ele>1811</ele>
        <time>2019-09-03T21:10:55Z</time>
      </trkpt>
      <trkpt lat="45.69356" lon="6.66654">
        <ele>1812</ele>
        <time>2019-09-03T21:10:58Z</time>
      </trkpt>
      <trkpt lat="45.69362" lon="6.66623">
        <ele>1812</ele>
        <time>2019-09-03T21:11:02Z</time>
      </trkpt>
      <trkpt lat="45.69379" lon="6.66573">
        <ele>1809</ele>
        <time>2019-09-03T21:11:09Z</time>
      </trkpt>
      <trkpt lat="45.69388" lon="6.66549">
        <ele>1810</ele>
        <time>2019-09-03T21:11:12Z</time>
      </trkpt>
      <trkpt lat="45.69399" lon="6.66537">
        <ele>1808</ele>
        <time>2019-09-03T21:11:15Z</time>
      </trkpt>
      <trkpt lat="45.69426" lon="6.66514">
        <ele>1803</ele>
        <time>2019-09-03T21:11:20Z</time>
      </trkpt>
      <trkpt lat="45.69449" lon="6.66501">
        <ele>1803</ele>
        <time>2019-09-03T21:11:25Z</time>
      </trkpt>
      <trkpt lat="45.69493" lon="6.66494">
        <ele>1801</ele>
        <time>2019-09-03T21:11:33Z</time>
      </trkpt>
      <trkpt lat="45.69504" lon="6.66497">
        <ele>1798</ele>
        <time>2019-09-03T21:11:35Z</time>
      </trkpt>
      <trkpt lat="45.69534" lon="6.66515">
        <ele>1794</ele>
        <time>2019-09-03T21:11:40Z</time>
      </trkpt>
      <trkpt lat="45.69551" lon="6.66515">
        <ele>1793</ele>
        <time>2019-09-03T21:11:43Z</time>
      </trkpt>
      <trkpt lat="45.6956" lon="6.66509">
        <ele>1792</ele>
        <time>2019-09-03T21:11:45Z</time>
      </trkpt>
      <trkpt lat="45.69581" lon="6.66474">
        <ele>1793</ele>
        <time>2019-09-03T21:11:51Z</time>
      </trkpt>
      <trkpt lat="45.69627" lon="6.66383">
        <ele>1776</ele>
        <time>2019-09-03T21:12:05Z</time>
      </trkpt>
      <trkpt lat="45.69632" lon="6.66367">
        <ele>1771</ele>
        <time>2019-09-03T21:12:07Z</time>
      </trkpt>
      <trkpt lat="45.69626" lon="6.66285">
        <ele>1773</ele>
        <time>2019-09-03T21:12:17Z</time>
      </trkpt>
      <trkpt lat="45.69614" lon="6.66225">
        <ele>1774</ele>
        <time>2019-09-03T21:12:25Z</time>
      </trkpt>
      <trkpt lat="45.69596" lon="6.66166">
        <ele>1768</ele>
        <time>2019-09-03T21:12:33Z</time>
      </trkpt>
      <trkpt lat="45.69562" lon="6.66098">
        <ele>1761</ele>
        <time>2019-09-03T21:12:43Z</time>
      </trkpt>
      <trkpt lat="45.69544" lon="6.66058">
        <ele>1755</ele>
        <time>2019-09-03T21:12:49Z</time>
      </trkpt>
      <trkpt lat="45.69528" lon="6.66033">
        <ele>1752</ele>
        <time>2019-09-03T21:12:53Z</time>
      </trkpt>
      <trkpt lat="45.69477" lon="6.65986">
        <ele>1752</ele>
        <time>2019-09-03T21:13:04Z</time>
      </trkpt>
      <trkpt lat="45.69441" lon="6.65949">
        <ele>1749</ele>
        <time>2019-09-03T21:13:12Z</time>
      </trkpt>
      <trkpt lat="45.69386" lon="6.65874">
        <ele>1740</ele>
        <time>2019-09-03T21:13:26Z</time>
      </trkpt>
      <trkpt lat="45.69344" lon="6.65809">
        <ele>1733</ele>
        <time>2019-09-03T21:13:37Z</time>
      </trkpt>
      <trkpt lat="45.6933" lon="6.65792">
        <ele>1733</ele>
        <time>2019-09-03T21:13:40Z</time>
      </trkpt>
      <trkpt lat="45.6932" lon="6.65776">
        <ele>1733</ele>
        <time>2019-09-03T21:13:43Z</time>
      </trkpt>
      <trkpt lat="45.69299" lon="6.65732">
        <ele>1726</ele>
        <time>2019-09-03T21:13:49Z</time>
      </trkpt>
      <trkpt lat="45.69232" lon="6.65617">
        <ele>1716</ele>
        <time>2019-09-03T21:14:08Z</time>
      </trkpt>
      <trkpt lat="45.69175" lon="6.65475">
        <ele>1700</ele>
        <time>2019-09-03T21:14:28Z</time>
      </trkpt>
      <trkpt lat="45.69126" lon="6.65403">
        <ele>1695</ele>
        <time>2019-09-03T21:14:41Z</time>
      </trkpt>
      <trkpt lat="45.69105" lon="6.65378">
        <ele>1693</ele>
        <time>2019-09-03T21:14:46Z</time>
      </trkpt>
      <trkpt lat="45.69104" lon="6.65372">
        <ele>1692</ele>
        <time>2019-09-03T21:14:46Z</time>
      </trkpt>
      <trkpt lat="45.69105" lon="6.65366">
        <ele>1689</ele>
        <time>2019-09-03T21:14:47Z</time>
      </trkpt>
      <trkpt lat="45.69108" lon="6.65361">
        <ele>1686</ele>
        <time>2019-09-03T21:14:48Z</time>
      </trkpt>
      <trkpt lat="45.69112" lon="6.6536">
        <ele>1685</ele>
        <time>2019-09-03T21:14:49Z</time>
      </trkpt>
      <trkpt lat="45.69118" lon="6.65362">
        <ele>1683</ele>
        <time>2019-09-03T21:14:50Z</time>
      </trkpt>
      <trkpt lat="45.69124" lon="6.65367">
        <ele>1683</ele>
        <time>2019-09-03T21:14:51Z</time>
      </trkpt>
      <trkpt lat="45.69166" lon="6.65424">
        <ele>1689</ele>
        <time>2019-09-03T21:15:01Z</time>
      </trkpt>
      <trkpt lat="45.69207" lon="6.6547">
        <ele>1685</ele>
        <time>2019-09-03T21:15:11Z</time>
      </trkpt>
      <trkpt lat="45.69252" lon="6.65544">
        <ele>1684</ele>
        <time>2019-09-03T21:15:23Z</time>
      </trkpt>
      <trkpt lat="45.69342" lon="6.65633">
        <ele>1673</ele>
        <time>2019-09-03T21:15:42Z</time>
      </trkpt>
      <trkpt lat="45.69382" lon="6.65683">
        <ele>1669</ele>
        <time>2019-09-03T21:15:52Z</time>
      </trkpt>
      <trkpt lat="45.69398" lon="6.65707">
        <ele>1671</ele>
        <time>2019-09-03T21:15:56Z</time>
      </trkpt>
      <trkpt lat="45.69412" lon="6.65746">
        <ele>1682</ele>
        <time>2019-09-03T21:16:01Z</time>
      </trkpt>
      <trkpt lat="45.69417" lon="6.65757">
        <ele>1684</ele>
        <time>2019-09-03T21:16:03Z</time>
      </trkpt>
      <trkpt lat="45.69422" lon="6.65762">
        <ele>1684</ele>
        <time>2019-09-03T21:16:04Z</time>
      </trkpt>
      <trkpt lat="45.69451" lon="6.65776">
        <ele>1679</ele>
        <time>2019-09-03T21:16:09Z</time>
      </trkpt>
      <trkpt lat="45.69553" lon="6.65799">
        <ele>1659</ele>
        <time>2019-09-03T21:16:28Z</time>
      </trkpt>
      <trkpt lat="45.69571" lon="6.65797">
        <ele>1655</ele>
        <time>2019-09-03T21:16:31Z</time>
      </trkpt>
      <trkpt lat="45.69582" lon="6.65787">
        <ele>1651</ele>
        <time>2019-09-03T21:16:33Z</time>
      </trkpt>
      <trkpt lat="45.69592" lon="6.65772">
        <ele>1647</ele>
        <time>2019-09-03T21:16:36Z</time>
      </trkpt>
      <trkpt lat="45.696" lon="6.65741">
        <ele>1642</ele>
        <time>2019-09-03T21:16:40Z</time>
      </trkpt>
      <trkpt lat="45.69598" lon="6.65714">
        <ele>1639</ele>
        <time>2019-09-03T21:16:43Z</time>
      </trkpt>
      <trkpt lat="45.69587" lon="6.65692">
        <ele>1638</ele>
        <time>2019-09-03T21:16:47Z</time>
      </trkpt>
      <trkpt lat="45.69574" lon="6.65677">
        <ele>1637</ele>
        <time>2019-09-03T21:16:50Z</time>
      </trkpt>
      <trkpt lat="45.69551" lon="6.65675">
        <ele>1637</ele>
        <time>2019-09-03T21:16:54Z</time>
      </trkpt>
      <trkpt lat="45.69492" lon="6.65681">
        <ele>1638</ele>
        <time>2019-09-03T21:17:04Z</time>
      </trkpt>
      <trkpt lat="45.69478" lon="6.65681">
        <ele>1640</ele>
        <time>2019-09-03T21:17:07Z</time>
      </trkpt>
      <trkpt lat="45.69465" lon="6.65674">
        <ele>1640</ele>
        <time>2019-09-03T21:17:09Z</time>
      </trkpt>
      <trkpt lat="45.69454" lon="6.65659">
        <ele>1639</ele>
        <time>2019-09-03T21:17:12Z</time>
      </trkpt>
      <trkpt lat="45.69444" lon="6.65639">
        <ele>1638</ele>
        <time>2019-09-03T21:17:15Z</time>
      </trkpt>
      <trkpt lat="45.69439" lon="6.65612">
        <ele>1635</ele>
        <time>2019-09-03T21:17:18Z</time>
      </trkpt>
      <trkpt lat="45.6944" lon="6.65598">
        <ele>1634</ele>
        <time>2019-09-03T21:17:20Z</time>
      </trkpt>
      <trkpt lat="45.69446" lon="6.65572">
        <ele>1630</ele>
        <time>2019-09-03T21:17:24Z</time>
      </trkpt>
      <trkpt lat="45.69451" lon="6.65563">
        <ele>1628</ele>
        <time>2019-09-03T21:17:25Z</time>
      </trkpt>
      <trkpt lat="45.69458" lon="6.65553">
        <ele>1625</ele>
        <time>2019-09-03T21:17:27Z</time>
      </trkpt>
      <trkpt lat="45.69469" lon="6.65545">
        <ele>1622</ele>
        <time>2019-09-03T21:17:29Z</time>
      </trkpt>
      <trkpt lat="45.69492" lon="6.65543">
        <ele>1618</ele>
        <time>2019-09-03T21:17:33Z</time>
      </trkpt>
      <trkpt lat="45.69555" lon="6.65563">
        <ele>1616</ele>
        <time>2019-09-03T21:17:45Z</time>
      </trkpt>
      <trkpt lat="45.69621" lon="6.65588">
        <ele>1611</ele>
        <time>2019-09-03T21:17:57Z</time>
      </trkpt>
      <trkpt lat="45.69697" lon="6.65624">
        <ele>1607</ele>
        <time>2019-09-03T21:18:11Z</time>
      </trkpt>
      <trkpt lat="45.6973" lon="6.65636">
        <ele>1604</ele>
        <time>2019-09-03T21:18:17Z</time>
      </trkpt>
      <trkpt lat="45.6976" lon="6.65639">
        <ele>1600</ele>
        <time>2019-09-03T21:18:22Z</time>
      </trkpt>
      <trkpt lat="45.69788" lon="6.65634">
        <ele>1597</ele>
        <time>2019-09-03T21:18:27Z</time>
      </trkpt>
      <trkpt lat="45.6981" lon="6.65619">
        <ele>1593</ele>
        <time>2019-09-03T21:18:32Z</time>
      </trkpt>
      <trkpt lat="45.69826" lon="6.65603">
        <ele>1589</ele>
        <time>2019-09-03T21:18:35Z</time>
      </trkpt>
      <trkpt lat="45.69872" lon="6.65545">
        <ele>1587</ele>
        <time>2019-09-03T21:18:46Z</time>
      </trkpt>
      <trkpt lat="45.69879" lon="6.65538">
        <ele>1587</ele>
        <time>2019-09-03T21:18:48Z</time>
      </trkpt>
      <trkpt lat="45.69888" lon="6.65533">
        <ele>1587</ele>
        <time>2019-09-03T21:18:49Z</time>
      </trkpt>
      <trkpt lat="45.69932" lon="6.65522">
        <ele>1593</ele>
        <time>2019-09-03T21:18:57Z</time>
      </trkpt>
      <trkpt lat="45.69944" lon="6.65517">
        <ele>1596</ele>
        <time>2019-09-03T21:19:00Z</time>
      </trkpt>
      <trkpt lat="45.69954" lon="6.65508">
        <ele>1596</ele>
        <time>2019-09-03T21:19:02Z</time>
      </trkpt>
      <trkpt lat="45.6996" lon="6.65497">
        <ele>1596</ele>
        <time>2019-09-03T21:19:03Z</time>
      </trkpt>
      <trkpt lat="45.69965" lon="6.65483">
        <ele>1595</ele>
        <time>2019-09-03T21:19:05Z</time>
      </trkpt>
      <trkpt lat="45.6998" lon="6.65419">
        <ele>1590</ele>
        <time>2019-09-03T21:19:14Z</time>
      </trkpt>
      <trkpt lat="45.69994" lon="6.65388">
        <ele>1591</ele>
        <time>2019-09-03T21:19:18Z</time>
      </trkpt>
      <trkpt lat="45.70018" lon="6.65352">
        <ele>1597</ele>
        <time>2019-09-03T21:19:24Z</time>
      </trkpt>
      <trkpt lat="45.70029" lon="6.65328">
        <ele>1600</ele>
        <time>2019-09-03T21:19:28Z</time>
      </trkpt>
      <trkpt lat="45.70036" lon="6.65299">
        <ele>1602</ele>
        <time>2019-09-03T21:19:32Z</time>
      </trkpt>
      <trkpt lat="45.70033" lon="6.65256">
        <ele>1600</ele>
        <time>2019-09-03T21:19:37Z</time>
      </trkpt>
      <trkpt lat="45.70027" lon="6.65209">
        <ele>1598</ele>
        <time>2019-09-03T21:19:43Z</time>
      </trkpt>
      <trkpt lat="45.70027" lon="6.65136">
        <ele>1601</ele>
        <time>2019-09-03T21:19:52Z</time>
      </trkpt>
      <trkpt lat="45.70024" lon="6.65099">
        <ele>1602</ele>
        <time>2019-09-03T21:19:57Z</time>
      </trkpt>
      <trkpt lat="45.70018" lon="6.65061">
        <ele>1601</ele>
        <time>2019-09-03T21:20:02Z</time>
      </trkpt>
      <trkpt lat="45.70021" lon="6.65036">
        <ele>1602</ele>
        <time>2019-09-03T21:20:05Z</time>
      </trkpt>
      <trkpt lat="45.7003" lon="6.65014">
        <ele>1604</ele>
        <time>2019-09-03T21:20:08Z</time>
      </trkpt>
      <trkpt lat="45.70043" lon="6.65002">
        <ele>1606</ele>
        <time>2019-09-03T21:20:11Z</time>
      </trkpt>
      <trkpt lat="45.70069" lon="6.64982">
        <ele>1609</ele>
        <time>2019-09-03T21:20:16Z</time>
      </trkpt>
      <trkpt lat="45.70082" lon="6.64968">
        <ele>1610</ele>
        <time>2019-09-03T21:20:19Z</time>
      </trkpt>
      <trkpt lat="45.70096" lon="6.64949">
        <ele>1612</ele>
        <time>2019-09-03T21:20:22Z</time>
      </trkpt>
      <trkpt lat="45.70101" lon="6.64935">
        <ele>1613</ele>
        <time>2019-09-03T21:20:24Z</time>
      </trkpt>
      <trkpt lat="45.70106" lon="6.64911">
        <ele>1613</ele>
        <time>2019-09-03T21:20:27Z</time>
      </trkpt>
      <trkpt lat="45.70106" lon="6.64885">
        <ele>1617</ele>
        <time>2019-09-03T21:20:31Z</time>
      </trkpt>
      <trkpt lat="45.70102" lon="6.64853">
        <ele>1619</ele>
        <time>2019-09-03T21:20:35Z</time>
      </trkpt>
      <trkpt lat="45.70091" lon="6.64828">
        <ele>1618</ele>
        <time>2019-09-03T21:20:38Z</time>
      </trkpt>
      <trkpt lat="45.70043" lon="6.64762">
        <ele>1610</ele>
        <time>2019-09-03T21:20:50Z</time>
      </trkpt>
      <trkpt lat="45.70036" lon="6.64749">
        <ele>1610</ele>
        <time>2019-09-03T21:20:52Z</time>
      </trkpt>
      <trkpt lat="45.69982" lon="6.64613">
        <ele>1600</ele>
        <time>2019-09-03T21:21:12Z</time>
      </trkpt>
      <trkpt lat="45.69976" lon="6.64593">
        <ele>1598</ele>
        <time>2019-09-03T21:21:14Z</time>
      </trkpt>
      <trkpt lat="45.69975" lon="6.6458">
        <ele>1597</ele>
        <time>2019-09-03T21:21:16Z</time>
      </trkpt>
      <trkpt lat="45.69977" lon="6.64564">
        <ele>1596</ele>
        <time>2019-09-03T21:21:18Z</time>
      </trkpt>
      <trkpt lat="45.69982" lon="6.64549">
        <ele>1597</ele>
        <time>2019-09-03T21:21:20Z</time>
      </trkpt>
      <trkpt lat="45.69995" lon="6.64532">
        <ele>1601</ele>
        <time>2019-09-03T21:21:23Z</time>
      </trkpt>
      <trkpt lat="45.70047" lon="6.64498">
        <ele>1608</ele>
        <time>2019-09-03T21:21:33Z</time>
      </trkpt>
      <trkpt lat="45.70058" lon="6.64484">
        <ele>1609</ele>
        <time>2019-09-03T21:21:36Z</time>
      </trkpt>
      <trkpt lat="45.70067" lon="6.64466">
        <ele>1610</ele>
        <time>2019-09-03T21:21:39Z</time>
      </trkpt>
      <trkpt lat="45.70073" lon="6.64438">
        <ele>1611</ele>
        <time>2019-09-03T21:21:42Z</time>
      </trkpt>
      <trkpt lat="45.70075" lon="6.64414">
        <ele>1611</ele>
        <time>2019-09-03T21:21:45Z</time>
      </trkpt>
      <trkpt lat="45.70071" lon="6.64389">
        <ele>1611</ele>
        <time>2019-09-03T21:21:49Z</time>
      </trkpt>
      <trkpt lat="45.70044" lon="6.64317">
        <ele>1607</ele>
        <time>2019-09-03T21:21:59Z</time>
      </trkpt>
      <trkpt lat="45.7003" lon="6.64237">
        <ele>1612</ele>
        <time>2019-09-03T21:22:09Z</time>
      </trkpt>
      <trkpt lat="45.70004" lon="6.64166">
        <ele>1615</ele>
        <time>2019-09-03T21:22:19Z</time>
      </trkpt>
      <trkpt lat="45.69975" lon="6.64097">
        <ele>1621</ele>
        <time>2019-09-03T21:22:29Z</time>
      </trkpt>
      <trkpt lat="45.6994" lon="6.64035">
        <ele>1622</ele>
        <time>2019-09-03T21:22:39Z</time>
      </trkpt>
      <trkpt lat="45.69798" lon="6.63851">
        <ele>1623</ele>
        <time>2019-09-03T21:23:13Z</time>
      </trkpt>
      <trkpt lat="45.69769" lon="6.63829">
        <ele>1618</ele>
        <time>2019-09-03T21:23:19Z</time>
      </trkpt>
      <trkpt lat="45.69717" lon="6.63794">
        <ele>1610</ele>
        <time>2019-09-03T21:23:29Z</time>
      </trkpt>
      <trkpt lat="45.69703" lon="6.63781">
        <ele>1610</ele>
        <time>2019-09-03T21:23:32Z</time>
      </trkpt>
      <trkpt lat="45.69679" lon="6.63749">
        <ele>1611</ele>
        <time>2019-09-03T21:23:38Z</time>
      </trkpt>
      <trkpt lat="45.6964" lon="6.63671">
        <ele>1622</ele>
        <time>2019-09-03T21:23:50Z</time>
      </trkpt>
      <trkpt lat="45.69625" lon="6.63656">
        <ele>1619</ele>
        <time>2019-09-03T21:23:53Z</time>
      </trkpt>
      <trkpt lat="45.6959" lon="6.63629">
        <ele>1610</ele>
        <time>2019-09-03T21:24:00Z</time>
      </trkpt>
      <trkpt lat="45.69577" lon="6.63612">
        <ele>1610</ele>
        <time>2019-09-03T21:24:03Z</time>
      </trkpt>
      <trkpt lat="45.69537" lon="6.63545">
        <ele>1615</ele>
        <time>2019-09-03T21:24:14Z</time>
      </trkpt>
      <trkpt lat="45.6952" lon="6.63513">
        <ele>1616</ele>
        <time>2019-09-03T21:24:19Z</time>
      </trkpt>
      <trkpt lat="45.69512" lon="6.63495">
        <ele>1617</ele>
        <time>2019-09-03T21:24:22Z</time>
      </trkpt>
      <trkpt lat="45.69497" lon="6.63447">
        <ele>1614</ele>
        <time>2019-09-03T21:24:28Z</time>
      </trkpt>
      <trkpt lat="45.69491" lon="6.63411">
        <ele>1614</ele>
        <time>2019-09-03T21:24:33Z</time>
      </trkpt>
      <trkpt lat="45.69489" lon="6.63387">
        <ele>1614</ele>
        <time>2019-09-03T21:24:36Z</time>
      </trkpt>
      <trkpt lat="45.69489" lon="6.63364">
        <ele>1614</ele>
        <time>2019-09-03T21:24:39Z</time>
      </trkpt>
      <trkpt lat="45.69493" lon="6.63344">
        <ele>1614</ele>
        <time>2019-09-03T21:24:41Z</time>
      </trkpt>
      <trkpt lat="45.69498" lon="6.63327">
        <ele>1615</ele>
        <time>2019-09-03T21:24:44Z</time>
      </trkpt>
      <trkpt lat="45.69505" lon="6.63316">
        <ele>1615</ele>
        <time>2019-09-03T21:24:46Z</time>
      </trkpt>
      <trkpt lat="45.69514" lon="6.63305">
        <ele>1615</ele>
        <time>2019-09-03T21:24:48Z</time>
      </trkpt>
      <trkpt lat="45.69524" lon="6.633">
        <ele>1616</ele>
        <time>2019-09-03T21:24:50Z</time>
      </trkpt>
      <trkpt lat="45.69537" lon="6.63299">
        <ele>1616</ele>
        <time>2019-09-03T21:24:52Z</time>
      </trkpt>
      <trkpt lat="45.69552" lon="6.63303">
        <ele>1616</ele>
        <time>2019-09-03T21:24:55Z</time>
      </trkpt>
      <trkpt lat="45.69567" lon="6.63312">
        <ele>1616</ele>
        <time>2019-09-03T21:24:57Z</time>
      </trkpt>
      <trkpt lat="45.69598" lon="6.63337">
        <ele>1614</ele>
        <time>2019-09-03T21:25:04Z</time>
      </trkpt>
      <trkpt lat="45.69652" lon="6.63354">
        <ele>1609</ele>
        <time>2019-09-03T21:25:14Z</time>
      </trkpt>
      <trkpt lat="45.69671" lon="6.63367">
        <ele>1609</ele>
        <time>2019-09-03T21:25:17Z</time>
      </trkpt>
      <trkpt lat="45.69691" lon="6.63376">
        <ele>1608</ele>
        <time>2019-09-03T21:25:21Z</time>
      </trkpt>
      <trkpt lat="45.6973" lon="6.6339">
        <ele>1605</ele>
        <time>2019-09-03T21:25:28Z</time>
      </trkpt>
      <trkpt lat="45.69737" lon="6.6339">
        <ele>1604</ele>
        <time>2019-09-03T21:25:30Z</time>
      </trkpt>
      <trkpt lat="45.69777" lon="6.63381">
        <ele>1594</ele>
        <time>2019-09-03T21:25:37Z</time>
      </trkpt>
      <trkpt lat="45.69791" lon="6.63382">
        <ele>1592</ele>
        <time>2019-09-03T21:25:39Z</time>
      </trkpt>
      <trkpt lat="45.69804" lon="6.6339">
        <ele>1591</ele>
        <time>2019-09-03T21:25:42Z</time>
      </trkpt>
      <trkpt lat="45.6983" lon="6.63416">
        <ele>1594</ele>
        <time>2019-09-03T21:25:47Z</time>
      </trkpt>
      <trkpt lat="45.69864" lon="6.6342">
        <ele>1593</ele>
        <time>2019-09-03T21:25:53Z</time>
      </trkpt>
      <trkpt lat="45.69882" lon="6.6342">
        <ele>1592</ele>
        <time>2019-09-03T21:25:57Z</time>
      </trkpt>
      <trkpt lat="45.69905" lon="6.63416">
        <ele>1589</ele>
        <time>2019-09-03T21:26:01Z</time>
      </trkpt>
      <trkpt lat="45.69921" lon="6.63409">
        <ele>1586</ele>
        <time>2019-09-03T21:26:04Z</time>
      </trkpt>
      <trkpt lat="45.69943" lon="6.6339">
        <ele>1580</ele>
        <time>2019-09-03T21:26:08Z</time>
      </trkpt>
      <trkpt lat="45.69953" lon="6.63384">
        <ele>1578</ele>
        <time>2019-09-03T21:26:10Z</time>
      </trkpt>
      <trkpt lat="45.6996" lon="6.63383">
        <ele>1577</ele>
        <time>2019-09-03T21:26:12Z</time>
      </trkpt>
      <trkpt lat="45.69996" lon="6.63388">
        <ele>1578</ele>
        <time>2019-09-03T21:26:18Z</time>
      </trkpt>
      <trkpt lat="45.70119" lon="6.63382">
        <ele>1564</ele>
        <time>2019-09-03T21:26:40Z</time>
      </trkpt>
      <trkpt lat="45.7019" lon="6.63374">
        <ele>1555</ele>
        <time>2019-09-03T21:26:53Z</time>
      </trkpt>
      <trkpt lat="45.70223" lon="6.63368">
        <ele>1550</ele>
        <time>2019-09-03T21:26:58Z</time>
      </trkpt>
      <trkpt lat="45.70256" lon="6.63361">
        <ele>1545</ele>
        <time>2019-09-03T21:27:04Z</time>
      </trkpt>
      <trkpt lat="45.70308" lon="6.63343">
        <ele>1537</ele>
        <time>2019-09-03T21:27:14Z</time>
      </trkpt>
      <trkpt lat="45.70322" lon="6.63345">
        <ele>1538</ele>
        <time>2019-09-03T21:27:16Z</time>
      </trkpt>
      <trkpt lat="45.70373" lon="6.63359">
        <ele>1540</ele>
        <time>2019-09-03T21:27:26Z</time>
      </trkpt>
      <trkpt lat="45.70385" lon="6.63356">
        <ele>1538</ele>
        <time>2019-09-03T21:27:28Z</time>
      </trkpt>
      <trkpt lat="45.70408" lon="6.63346">
        <ele>1532</ele>
        <time>2019-09-03T21:27:32Z</time>
      </trkpt>
      <trkpt lat="45.70424" lon="6.63348">
        <ele>1532</ele>
        <time>2019-09-03T21:27:35Z</time>
      </trkpt>
      <trkpt lat="45.70447" lon="6.63356">
        <ele>1532</ele>
        <time>2019-09-03T21:27:39Z</time>
      </trkpt>
      <trkpt lat="45.70465" lon="6.63358">
        <ele>1531</ele>
        <time>2019-09-03T21:27:42Z</time>
      </trkpt>
      <trkpt lat="45.70503" lon="6.63358">
        <ele>1528</ele>
        <time>2019-09-03T21:27:49Z</time>
      </trkpt>
      <trkpt lat="45.70543" lon="6.63353">
        <ele>1522</ele>
        <time>2019-09-03T21:27:56Z</time>
      </trkpt>
      <trkpt lat="45.70589" lon="6.63341">
        <ele>1513</ele>
        <time>2019-09-03T21:28:05Z</time>
      </trkpt>
      <trkpt lat="45.70604" lon="6.63341">
        <ele>1514</ele>
        <time>2019-09-03T21:28:07Z</time>
      </trkpt>
      <trkpt lat="45.70621" lon="6.63336">
        <ele>1512</ele>
        <time>2019-09-03T21:28:10Z</time>
      </trkpt>
      <trkpt lat="45.70646" lon="6.63323">
        <ele>1508</ele>
        <time>2019-09-03T21:28:15Z</time>
      </trkpt>
      <trkpt lat="45.70662" lon="6.63317">
        <ele>1506</ele>
        <time>2019-09-03T21:28:18Z</time>
      </trkpt>
      <trkpt lat="45.70686" lon="6.63317">
        <ele>1502</ele>
        <time>2019-09-03T21:28:22Z</time>
      </trkpt>
      <trkpt lat="45.70693" lon="6.63315">
        <ele>1499</ele>
        <time>2019-09-03T21:28:24Z</time>
      </trkpt>
      <trkpt lat="45.70699" lon="6.6331">
        <ele>1495</ele>
        <time>2019-09-03T21:28:25Z</time>
      </trkpt>
      <trkpt lat="45.70701" lon="6.63302">
        <ele>1490</ele>
        <time>2019-09-03T21:28:26Z</time>
      </trkpt>
      <trkpt lat="45.70699" lon="6.63293">
        <ele>1486</ele>
        <time>2019-09-03T21:28:27Z</time>
      </trkpt>
      <trkpt lat="45.70693" lon="6.63288">
        <ele>1485</ele>
        <time>2019-09-03T21:28:28Z</time>
      </trkpt>
      <trkpt lat="45.70686" lon="6.63288">
        <ele>1488</ele>
        <time>2019-09-03T21:28:29Z</time>
      </trkpt>
      <trkpt lat="45.70661" lon="6.63299">
        <ele>1498</ele>
        <time>2019-09-03T21:28:34Z</time>
      </trkpt>
      <trkpt lat="45.70624" lon="6.63311">
        <ele>1501</ele>
        <time>2019-09-03T21:28:41Z</time>
      </trkpt>
      <trkpt lat="45.70538" lon="6.63302">
        <ele>1499</ele>
        <time>2019-09-03T21:28:56Z</time>
      </trkpt>
      <trkpt lat="45.70513" lon="6.63294">
        <ele>1498</ele>
        <time>2019-09-03T21:29:01Z</time>
      </trkpt>
      <trkpt lat="45.70459" lon="6.63252">
        <ele>1485</ele>
        <time>2019-09-03T21:29:12Z</time>
      </trkpt>
      <trkpt lat="45.70443" lon="6.63245">
        <ele>1484</ele>
        <time>2019-09-03T21:29:15Z</time>
      </trkpt>
      <trkpt lat="45.70423" lon="6.63242">
        <ele>1485</ele>
        <time>2019-09-03T21:29:18Z</time>
      </trkpt>
      <trkpt lat="45.70404" lon="6.63233">
        <ele>1482</ele>
        <time>2019-09-03T21:29:22Z</time>
      </trkpt>
      <trkpt lat="45.70376" lon="6.63212">
        <ele>1472</ele>
        <time>2019-09-03T21:29:27Z</time>
      </trkpt>
      <trkpt lat="45.70357" lon="6.63208">
        <ele>1471</ele>
        <time>2019-09-03T21:29:31Z</time>
      </trkpt>
      <trkpt lat="45.70292" lon="6.6322">
        <ele>1476</ele>
        <time>2019-09-03T21:29:43Z</time>
      </trkpt>
      <trkpt lat="45.70278" lon="6.6322">
        <ele>1476</ele>
        <time>2019-09-03T21:29:45Z</time>
      </trkpt>
      <trkpt lat="45.70219" lon="6.63208">
        <ele>1471</ele>
        <time>2019-09-03T21:29:56Z</time>
      </trkpt>
      <trkpt lat="45.70163" lon="6.63201">
        <ele>1472</ele>
        <time>2019-09-03T21:30:06Z</time>
      </trkpt>
      <trkpt lat="45.7014" lon="6.63191">
        <ele>1470</ele>
        <time>2019-09-03T21:30:10Z</time>
      </trkpt>
      <trkpt lat="45.7009" lon="6.63162">
        <ele>1466</ele>
        <time>2019-09-03T21:30:20Z</time>
      </trkpt>
      <trkpt lat="45.70059" lon="6.63125">
        <ele>1460</ele>
        <time>2019-09-03T21:30:27Z</time>
      </trkpt>
      <trkpt lat="45.70024" lon="6.63098">
        <ele>1461</ele>
        <time>2019-09-03T21:30:34Z</time>
      </trkpt>
      <trkpt lat="45.70017" lon="6.6309">
        <ele>1460</ele>
        <time>2019-09-03T21:30:35Z</time>
      </trkpt>
      <trkpt lat="45.70014" lon="6.63082">
        <ele>1458</ele>
        <time>2019-09-03T21:30:36Z</time>
      </trkpt>
      <trkpt lat="45.70014" lon="6.63075">
        <ele>1456</ele>
        <time>2019-09-03T21:30:37Z</time>
      </trkpt>
      <trkpt lat="45.7002" lon="6.63068">
        <ele>1452</ele>
        <time>2019-09-03T21:30:39Z</time>
      </trkpt>
      <trkpt lat="45.70029" lon="6.6307">
        <ele>1449</ele>
        <time>2019-09-03T21:30:40Z</time>
      </trkpt>
      <trkpt lat="45.70056" lon="6.63094">
        <ele>1449</ele>
        <time>2019-09-03T21:30:46Z</time>
      </trkpt>
      <trkpt lat="45.70103" lon="6.63106">
        <ele>1441</ele>
        <time>2019-09-03T21:30:55Z</time>
      </trkpt>
      <trkpt lat="45.70165" lon="6.63136">
        <ele>1439</ele>
        <time>2019-09-03T21:31:06Z</time>
      </trkpt>
      <trkpt lat="45.70186" lon="6.63141">
        <ele>1439</ele>
        <time>2019-09-03T21:31:10Z</time>
      </trkpt>
      <trkpt lat="45.7023" lon="6.63129">
        <ele>1430</ele>
        <time>2019-09-03T21:31:18Z</time>
      </trkpt>
      <trkpt lat="45.70275" lon="6.63127">
        <ele>1427</ele>
        <time>2019-09-03T21:31:26Z</time>
      </trkpt>
      <trkpt lat="45.70299" lon="6.63121">
        <ele>1424</ele>
        <time>2019-09-03T21:31:30Z</time>
      </trkpt>
      <trkpt lat="45.70357" lon="6.63101">
        <ele>1413</ele>
        <time>2019-09-03T21:31:41Z</time>
      </trkpt>
      <trkpt lat="45.70384" lon="6.63095">
        <ele>1411</ele>
        <time>2019-09-03T21:31:46Z</time>
      </trkpt>
      <trkpt lat="45.7041" lon="6.6309">
        <ele>1409</ele>
        <time>2019-09-03T21:31:50Z</time>
      </trkpt>
      <trkpt lat="45.70437" lon="6.6309">
        <ele>1407</ele>
        <time>2019-09-03T21:31:55Z</time>
      </trkpt>
      <trkpt lat="45.70462" lon="6.63086">
        <ele>1403</ele>
        <time>2019-09-03T21:32:00Z</time>
      </trkpt>
      <trkpt lat="45.70484" lon="6.63073">
        <ele>1394</ele>
        <time>2019-09-03T21:32:04Z</time>
      </trkpt>
      <trkpt lat="45.705" lon="6.63067">
        <ele>1391</ele>
        <time>2019-09-03T21:32:07Z</time>
      </trkpt>
      <trkpt lat="45.70517" lon="6.63073">
        <ele>1392</ele>
        <time>2019-09-03T21:32:10Z</time>
      </trkpt>
      <trkpt lat="45.70546" lon="6.63097">
        <ele>1401</ele>
        <time>2019-09-03T21:32:16Z</time>
      </trkpt>
      <trkpt lat="45.70565" lon="6.63096">
        <ele>1399</ele>
        <time>2019-09-03T21:32:19Z</time>
      </trkpt>
      <trkpt lat="45.70589" lon="6.63086">
        <ele>1393</ele>
        <time>2019-09-03T21:32:24Z</time>
      </trkpt>
      <trkpt lat="45.70615" lon="6.63086">
        <ele>1390</ele>
        <time>2019-09-03T21:32:28Z</time>
      </trkpt>
      <trkpt lat="45.70645" lon="6.63097">
        <ele>1393</ele>
        <time>2019-09-03T21:32:34Z</time>
      </trkpt>
      <trkpt lat="45.70741" lon="6.63119">
        <ele>1384</ele>
        <time>2019-09-03T21:32:51Z</time>
      </trkpt>
      <trkpt lat="45.70751" lon="6.63109">
        <ele>1378</ele>
        <time>2019-09-03T21:32:53Z</time>
      </trkpt>
      <trkpt lat="45.70753" lon="6.63096">
        <ele>1373</ele>
        <time>2019-09-03T21:32:55Z</time>
      </trkpt>
      <trkpt lat="45.70749" lon="6.63084">
        <ele>1370</ele>
        <time>2019-09-03T21:32:57Z</time>
      </trkpt>
      <trkpt lat="45.70734" lon="6.63078">
        <ele>1371</ele>
        <time>2019-09-03T21:32:59Z</time>
      </trkpt>
      <trkpt lat="45.70693" lon="6.63076">
        <ele>1376</ele>
        <time>2019-09-03T21:33:07Z</time>
      </trkpt>
      <trkpt lat="45.70558" lon="6.63001">
        <ele>1360</ele>
        <time>2019-09-03T21:33:33Z</time>
      </trkpt>
      <trkpt lat="45.70539" lon="6.62985">
        <ele>1356</ele>
        <time>2019-09-03T21:33:36Z</time>
      </trkpt>
      <trkpt lat="45.70519" lon="6.6296">
        <ele>1350</ele>
        <time>2019-09-03T21:33:41Z</time>
      </trkpt>
      <trkpt lat="45.70507" lon="6.62952">
        <ele>1348</ele>
        <time>2019-09-03T21:33:44Z</time>
      </trkpt>
      <trkpt lat="45.70482" lon="6.62944">
        <ele>1347</ele>
        <time>2019-09-03T21:33:48Z</time>
      </trkpt>
      <trkpt lat="45.70425" lon="6.6294">
        <ele>1346</ele>
        <time>2019-09-03T21:33:58Z</time>
      </trkpt>
      <trkpt lat="45.70365" lon="6.62949">
        <ele>1345</ele>
        <time>2019-09-03T21:34:09Z</time>
      </trkpt>
      <trkpt lat="45.70326" lon="6.62952">
        <ele>1344</ele>
        <time>2019-09-03T21:34:16Z</time>
      </trkpt>
      <trkpt lat="45.703" lon="6.6295">
        <ele>1348</ele>
        <time>2019-09-03T21:34:21Z</time>
      </trkpt>
      <trkpt lat="45.70269" lon="6.62936">
        <ele>1348</ele>
        <time>2019-09-03T21:34:26Z</time>
      </trkpt>
      <trkpt lat="45.70191" lon="6.62873">
        <ele>1335</ele>
        <time>2019-09-03T21:34:42Z</time>
      </trkpt>
      <trkpt lat="45.70156" lon="6.62841">
        <ele>1326</ele>
        <time>2019-09-03T21:34:50Z</time>
      </trkpt>
      <trkpt lat="45.70118" lon="6.6283">
        <ele>1332</ele>
        <time>2019-09-03T21:34:57Z</time>
      </trkpt>
      <trkpt lat="45.70109" lon="6.62821">
        <ele>1332</ele>
        <time>2019-09-03T21:34:59Z</time>
      </trkpt>
      <trkpt lat="45.70061" lon="6.62751">
        <ele>1323</ele>
        <time>2019-09-03T21:35:11Z</time>
      </trkpt>
      <trkpt lat="45.69971" lon="6.6265">
        <ele>1321</ele>
        <time>2019-09-03T21:35:31Z</time>
      </trkpt>
      <trkpt lat="45.69937" lon="6.62582">
        <ele>1327</ele>
        <time>2019-09-03T21:35:41Z</time>
      </trkpt>
      <trkpt lat="45.69898" lon="6.62343">
        <ele>1286</ele>
        <time>2019-09-03T21:36:12Z</time>
      </trkpt>
      <trkpt lat="45.69873" lon="6.62282">
        <ele>1295</ele>
        <time>2019-09-03T21:36:21Z</time>
      </trkpt>
      <trkpt lat="45.6985" lon="6.62201">
        <ele>1290</ele>
        <time>2019-09-03T21:36:32Z</time>
      </trkpt>
      <trkpt lat="45.69851" lon="6.62118">
        <ele>1263</ele>
        <time>2019-09-03T21:36:42Z</time>
      </trkpt>
      <trkpt lat="45.69844" lon="6.621">
        <ele>1262</ele>
        <time>2019-09-03T21:36:44Z</time>
      </trkpt>
      <trkpt lat="45.69828" lon="6.62085">
        <ele>1268</ele>
        <time>2019-09-03T21:36:48Z</time>
      </trkpt>
      <trkpt lat="45.69798" lon="6.62038">
        <ele>1270</ele>
        <time>2019-09-03T21:36:56Z</time>
      </trkpt>
      <trkpt lat="45.69783" lon="6.62002">
        <ele>1266</ele>
        <time>2019-09-03T21:37:01Z</time>
      </trkpt>
      <trkpt lat="45.69748" lon="6.61934">
        <ele>1265</ele>
        <time>2019-09-03T21:37:11Z</time>
      </trkpt>
      <trkpt lat="45.69724" lon="6.61861">
        <ele>1265</ele>
        <time>2019-09-03T21:37:22Z</time>
      </trkpt>
      <trkpt lat="45.69681" lon="6.61698">
        <ele>1272</ele>
        <time>2019-09-03T21:37:43Z</time>
      </trkpt>
      <trkpt lat="45.69682" lon="6.6168">
        <ele>1269</ele>
        <time>2019-09-03T21:37:45Z</time>
      </trkpt>
      <trkpt lat="45.69688" lon="6.61675">
        <ele>1266</ele>
        <time>2019-09-03T21:37:47Z</time>
      </trkpt>
      <trkpt lat="45.697" lon="6.61681">
        <ele>1260</ele>
        <time>2019-09-03T21:37:49Z</time>
      </trkpt>
      <trkpt lat="45.69747" lon="6.61791">
        <ele>1241</ele>
        <time>2019-09-03T21:38:05Z</time>
      </trkpt>
      <trkpt lat="45.69781" lon="6.619">
        <ele>1239</ele>
        <time>2019-09-03T21:38:20Z</time>
      </trkpt>
      <trkpt lat="45.6983" lon="6.61971">
        <ele>1230</ele>
        <time>2019-09-03T21:38:32Z</time>
      </trkpt>
      <trkpt lat="45.69852" lon="6.62013">
        <ele>1230</ele>
        <time>2019-09-03T21:38:39Z</time>
      </trkpt>
      <trkpt lat="45.6986" lon="6.62015">
        <ele>1226</ele>
        <time>2019-09-03T21:38:40Z</time>
      </trkpt>
      <trkpt lat="45.69864" lon="6.62012">
        <ele>1223</ele>
        <time>2019-09-03T21:38:41Z</time>
      </trkpt>
      <trkpt lat="45.69866" lon="6.62003">
        <ele>1219</ele>
        <time>2019-09-03T21:38:42Z</time>
      </trkpt>
      <trkpt lat="45.69829" lon="6.6194">
        <ele>1222</ele>
        <time>2019-09-03T21:38:52Z</time>
      </trkpt>
      <trkpt lat="45.69817" lon="6.619">
        <ele>1221</ele>
        <time>2019-09-03T21:38:58Z</time>
      </trkpt>
      <trkpt lat="45.69802" lon="6.61812">
        <ele>1217</ele>
        <time>2019-09-03T21:39:09Z</time>
      </trkpt>
      <trkpt lat="45.69799" lon="6.61758">
        <ele>1213</ele>
        <time>2019-09-03T21:39:16Z</time>
      </trkpt>
      <trkpt lat="45.698" lon="6.61725">
        <ele>1211</ele>
        <time>2019-09-03T21:39:20Z</time>
      </trkpt>
      <trkpt lat="45.6981" lon="6.61644">
        <ele>1200</ele>
        <time>2019-09-03T21:39:30Z</time>
      </trkpt>
      <trkpt lat="45.6981" lon="6.61623">
        <ele>1197</ele>
        <time>2019-09-03T21:39:33Z</time>
      </trkpt>
      <trkpt lat="45.69806" lon="6.61602">
        <ele>1196</ele>
        <time>2019-09-03T21:39:35Z</time>
      </trkpt>
      <trkpt lat="45.69795" lon="6.61577">
        <ele>1197</ele>
        <time>2019-09-03T21:39:39Z</time>
      </trkpt>
      <trkpt lat="45.69757" lon="6.61518">
        <ele>1194</ele>
        <time>2019-09-03T21:39:49Z</time>
      </trkpt>
      <trkpt lat="45.69695" lon="6.61451">
        <ele>1195</ele>
        <time>2019-09-03T21:40:03Z</time>
      </trkpt>
      <trkpt lat="45.69692" lon="6.61443">
        <ele>1193</ele>
        <time>2019-09-03T21:40:04Z</time>
      </trkpt>
      <trkpt lat="45.69691" lon="6.61434">
        <ele>1191</ele>
        <time>2019-09-03T21:40:05Z</time>
      </trkpt>
      <trkpt lat="45.69695" lon="6.61423">
        <ele>1187</ele>
        <time>2019-09-03T21:40:07Z</time>
      </trkpt>
      <trkpt lat="45.69701" lon="6.61418">
        <ele>1184</ele>
        <time>2019-09-03T21:40:08Z</time>
      </trkpt>
      <trkpt lat="45.69707" lon="6.6142">
        <ele>1183</ele>
        <time>2019-09-03T21:40:09Z</time>
      </trkpt>
      <trkpt lat="45.69731" lon="6.61446">
        <ele>1184</ele>
        <time>2019-09-03T21:40:14Z</time>
      </trkpt>
      <trkpt lat="45.6975" lon="6.61453">
        <ele>1180</ele>
        <time>2019-09-03T21:40:18Z</time>
      </trkpt>
      <trkpt lat="45.69775" lon="6.6146">
        <ele>1177</ele>
        <time>2019-09-03T21:40:22Z</time>
      </trkpt>
      <trkpt lat="45.69817" lon="6.61467">
        <ele>1170</ele>
        <time>2019-09-03T21:40:30Z</time>
      </trkpt>
      <trkpt lat="45.69832" lon="6.61478">
        <ele>1168</ele>
        <time>2019-09-03T21:40:33Z</time>
      </trkpt>
      <trkpt lat="45.69841" lon="6.61493">
        <ele>1167</ele>
        <time>2019-09-03T21:40:35Z</time>
      </trkpt>
      <trkpt lat="45.69911" lon="6.61739">
        <ele>1162</ele>
        <time>2019-09-03T21:41:08Z</time>
      </trkpt>
      <trkpt lat="45.6992" lon="6.61763">
        <ele>1160</ele>
        <time>2019-09-03T21:41:12Z</time>
      </trkpt>
      <trkpt lat="45.69933" lon="6.61788">
        <ele>1160</ele>
        <time>2019-09-03T21:41:16Z</time>
      </trkpt>
      <trkpt lat="45.69945" lon="6.61809">
        <ele>1158</ele>
        <time>2019-09-03T21:41:19Z</time>
      </trkpt>
      <trkpt lat="45.6996" lon="6.61829">
        <ele>1156</ele>
        <time>2019-09-03T21:41:23Z</time>
      </trkpt>
      <trkpt lat="45.69974" lon="6.61844">
        <ele>1154</ele>
        <time>2019-09-03T21:41:26Z</time>
      </trkpt>
      <trkpt lat="45.69988" lon="6.61856">
        <ele>1152</ele>
        <time>2019-09-03T21:41:29Z</time>
      </trkpt>
      <trkpt lat="45.70046" lon="6.61882">
        <ele>1139</ele>
        <time>2019-09-03T21:41:39Z</time>
      </trkpt>
      <trkpt lat="45.70068" lon="6.61897">
        <ele>1135</ele>
        <time>2019-09-03T21:41:44Z</time>
      </trkpt>
      <trkpt lat="45.7008" lon="6.61916">
        <ele>1135</ele>
        <time>2019-09-03T21:41:47Z</time>
      </trkpt>
      <trkpt lat="45.70085" lon="6.61941">
        <ele>1136</ele>
        <time>2019-09-03T21:41:50Z</time>
      </trkpt>
      <trkpt lat="45.70086" lon="6.61963">
        <ele>1137</ele>
        <time>2019-09-03T21:41:53Z</time>
      </trkpt>
      <trkpt lat="45.70091" lon="6.62012">
        <ele>1139</ele>
        <time>2019-09-03T21:41:59Z</time>
      </trkpt>
      <trkpt lat="45.701" lon="6.62059">
        <ele>1135</ele>
        <time>2019-09-03T21:42:05Z</time>
      </trkpt>
      <trkpt lat="45.70122" lon="6.62127">
        <ele>1130</ele>
        <time>2019-09-03T21:42:14Z</time>
      </trkpt>
      <trkpt lat="45.70143" lon="6.62186">
        <ele>1124</ele>
        <time>2019-09-03T21:42:23Z</time>
      </trkpt>
      <trkpt lat="45.70222" lon="6.62325">
        <ele>1108</ele>
        <time>2019-09-03T21:42:45Z</time>
      </trkpt>
      <trkpt lat="45.70263" lon="6.6236">
        <ele>1103</ele>
        <time>2019-09-03T21:42:53Z</time>
      </trkpt>
      <trkpt lat="45.70311" lon="6.62391">
        <ele>1098</ele>
        <time>2019-09-03T21:43:03Z</time>
      </trkpt>
      <trkpt lat="45.70343" lon="6.62416">
        <ele>1095</ele>
        <time>2019-09-03T21:43:09Z</time>
      </trkpt>
      <trkpt lat="45.70376" lon="6.62432">
        <ele>1093</ele>
        <time>2019-09-03T21:43:16Z</time>
      </trkpt>
      <trkpt lat="45.70414" lon="6.62445">
        <ele>1088</ele>
        <time>2019-09-03T21:43:22Z</time>
      </trkpt>
      <trkpt lat="45.70504" lon="6.62464">
        <ele>1084</ele>
        <time>2019-09-03T21:43:39Z</time>
      </trkpt>
      <trkpt lat="45.70521" lon="6.62465">
        <ele>1085</ele>
        <time>2019-09-03T21:43:42Z</time>
      </trkpt>
      <trkpt lat="45.7053" lon="6.62459">
        <ele>1083</ele>
        <time>2019-09-03T21:43:43Z</time>
      </trkpt>
      <trkpt lat="45.70531" lon="6.62447">
        <ele>1078</ele>
        <time>2019-09-03T21:43:45Z</time>
      </trkpt>
      <trkpt lat="45.70526" lon="6.62437">
        <ele>1073</ele>
        <time>2019-09-03T21:43:46Z</time>
      </trkpt>
      <trkpt lat="45.70512" lon="6.62432">
        <ele>1070</ele>
        <time>2019-09-03T21:43:49Z</time>
      </trkpt>
      <trkpt lat="45.70489" lon="6.62427">
        <ele>1069</ele>
        <time>2019-09-03T21:43:53Z</time>
      </trkpt>
      <trkpt lat="45.70459" lon="6.62417">
        <ele>1070</ele>
        <time>2019-09-03T21:43:59Z</time>
      </trkpt>
      <trkpt lat="45.70424" lon="6.624">
        <ele>1071</ele>
        <time>2019-09-03T21:44:05Z</time>
      </trkpt>
      <trkpt lat="45.70392" lon="6.62364">
        <ele>1069</ele>
        <time>2019-09-03T21:44:12Z</time>
      </trkpt>
      <trkpt lat="45.70375" lon="6.62335">
        <ele>1066</ele>
        <time>2019-09-03T21:44:17Z</time>
      </trkpt>
      <trkpt lat="45.70363" lon="6.62298">
        <ele>1065</ele>
        <time>2019-09-03T21:44:22Z</time>
      </trkpt>
      <trkpt lat="45.70362" lon="6.62267">
        <ele>1061</ele>
        <time>2019-09-03T21:44:26Z</time>
      </trkpt>
      <trkpt lat="45.70367" lon="6.62227">
        <ele>1056</ele>
        <time>2019-09-03T21:44:31Z</time>
      </trkpt>
      <trkpt lat="45.70375" lon="6.62189">
        <ele>1051</ele>
        <time>2019-09-03T21:44:36Z</time>
      </trkpt>
      <trkpt lat="45.70373" lon="6.6216">
        <ele>1048</ele>
        <time>2019-09-03T21:44:40Z</time>
      </trkpt>
      <trkpt lat="45.70366" lon="6.62137">
        <ele>1047</ele>
        <time>2019-09-03T21:44:43Z</time>
      </trkpt>
      <trkpt lat="45.70351" lon="6.62115">
        <ele>1048</ele>
        <time>2019-09-03T21:44:47Z</time>
      </trkpt>
      <trkpt lat="45.70348" lon="6.62101">
        <ele>1047</ele>
        <time>2019-09-03T21:44:48Z</time>
      </trkpt>
      <trkpt lat="45.70348" lon="6.62087">
        <ele>1045</ele>
        <time>2019-09-03T21:44:50Z</time>
      </trkpt>
      <trkpt lat="45.7035" lon="6.62074">
        <ele>1047</ele>
        <time>2019-09-03T21:44:52Z</time>
      </trkpt>
      <trkpt lat="45.70354" lon="6.62065">
        <ele>1049</ele>
        <time>2019-09-03T21:44:53Z</time>
      </trkpt>
      <trkpt lat="45.70361" lon="6.62057">
        <ele>1051</ele>
        <time>2019-09-03T21:44:55Z</time>
      </trkpt>
      <trkpt lat="45.70498" lon="6.61998">
        <ele>1057</ele>
        <time>2019-09-03T21:45:20Z</time>
      </trkpt>
      <trkpt lat="45.70548" lon="6.61969">
        <ele>1054</ele>
        <time>2019-09-03T21:45:30Z</time>
      </trkpt>
      <trkpt lat="45.70589" lon="6.61932">
        <ele>1046</ele>
        <time>2019-09-03T21:45:38Z</time>
      </trkpt>
      <trkpt lat="45.70595" lon="6.61922">
        <ele>1046</ele>
        <time>2019-09-03T21:45:40Z</time>
      </trkpt>
      <trkpt lat="45.70612" lon="6.6188">
        <ele>1051</ele>
        <time>2019-09-03T21:45:46Z</time>
      </trkpt>
      <trkpt lat="45.70621" lon="6.6183">
        <ele>1056</ele>
        <time>2019-09-03T21:45:53Z</time>
      </trkpt>
      <trkpt lat="45.70627" lon="6.61773">
        <ele>1059</ele>
        <time>2019-09-03T21:46:00Z</time>
      </trkpt>
      <trkpt lat="45.70635" lon="6.61697">
        <ele>1052</ele>
        <time>2019-09-03T21:46:09Z</time>
      </trkpt>
      <trkpt lat="45.70638" lon="6.61521">
        <ele>1047</ele>
        <time>2019-09-03T21:46:31Z</time>
      </trkpt>
      <trkpt lat="45.70643" lon="6.61477">
        <ele>1043</ele>
        <time>2019-09-03T21:46:37Z</time>
      </trkpt>
      <trkpt lat="45.70655" lon="6.6142">
        <ele>1033</ele>
        <time>2019-09-03T21:46:44Z</time>
      </trkpt>
      <trkpt lat="45.70673" lon="6.61373">
        <ele>1029</ele>
        <time>2019-09-03T21:46:51Z</time>
      </trkpt>
      <trkpt lat="45.70691" lon="6.61337">
        <ele>1031</ele>
        <time>2019-09-03T21:46:56Z</time>
      </trkpt>
      <trkpt lat="45.70703" lon="6.61321">
        <ele>1030</ele>
        <time>2019-09-03T21:46:59Z</time>
      </trkpt>
      <trkpt lat="45.70709" lon="6.61305">
        <ele>1029</ele>
        <time>2019-09-03T21:47:01Z</time>
      </trkpt>
      <trkpt lat="45.70708" lon="6.61288">
        <ele>1029</ele>
        <time>2019-09-03T21:47:04Z</time>
      </trkpt>
      <trkpt lat="45.70704" lon="6.61271">
        <ele>1028</ele>
        <time>2019-09-03T21:47:06Z</time>
      </trkpt>
      <trkpt lat="45.70704" lon="6.61251">
        <ele>1027</ele>
        <time>2019-09-03T21:47:08Z</time>
      </trkpt>
      <trkpt lat="45.70707" lon="6.6123">
        <ele>1027</ele>
        <time>2019-09-03T21:47:11Z</time>
      </trkpt>
      <trkpt lat="45.70712" lon="6.61212">
        <ele>1025</ele>
        <time>2019-09-03T21:47:13Z</time>
      </trkpt>
      <trkpt lat="45.7071" lon="6.61194">
        <ele>1025</ele>
        <time>2019-09-03T21:47:16Z</time>
      </trkpt>
      <trkpt lat="45.70704" lon="6.61173">
        <ele>1026</ele>
        <time>2019-09-03T21:47:18Z</time>
      </trkpt>
      <trkpt lat="45.70682" lon="6.61143">
        <ele>1028</ele>
        <time>2019-09-03T21:47:24Z</time>
      </trkpt>
      <trkpt lat="45.70676" lon="6.61116">
        <ele>1028</ele>
        <time>2019-09-03T21:47:27Z</time>
      </trkpt>
      <trkpt lat="45.70678" lon="6.61086">
        <ele>1026</ele>
        <time>2019-09-03T21:47:31Z</time>
      </trkpt>
      <trkpt lat="45.70694" lon="6.6099">
        <ele>1019</ele>
        <time>2019-09-03T21:47:43Z</time>
      </trkpt>
      <trkpt lat="45.7071" lon="6.60937">
        <ele>1018</ele>
        <time>2019-09-03T21:47:51Z</time>
      </trkpt>
      <trkpt lat="45.70724" lon="6.60906">
        <ele>1015</ele>
        <time>2019-09-03T21:47:55Z</time>
      </trkpt>
      <trkpt lat="45.70729" lon="6.60888">
        <ele>1013</ele>
        <time>2019-09-03T21:47:57Z</time>
      </trkpt>
      <trkpt lat="45.70728" lon="6.60871">
        <ele>1013</ele>
        <time>2019-09-03T21:48:00Z</time>
      </trkpt>
      <trkpt lat="45.70722" lon="6.60838">
        <ele>1016</ele>
        <time>2019-09-03T21:48:04Z</time>
      </trkpt>
      <trkpt lat="45.70705" lon="6.60792">
        <ele>1028</ele>
        <time>2019-09-03T21:48:10Z</time>
      </trkpt>
      <trkpt lat="45.70698" lon="6.60765">
        <ele>1037</ele>
        <time>2019-09-03T21:48:14Z</time>
      </trkpt>
      <trkpt lat="45.707" lon="6.60725">
        <ele>1039</ele>
        <time>2019-09-03T21:48:19Z</time>
      </trkpt>
      <trkpt lat="45.70711" lon="6.60653">
        <ele>1028</ele>
        <time>2019-09-03T21:48:28Z</time>
      </trkpt>
      <trkpt lat="45.70731" lon="6.60607">
        <ele>997</ele>
        <time>2019-09-03T21:48:35Z</time>
      </trkpt>
      <trkpt lat="45.70735" lon="6.60586">
        <ele>989</ele>
        <time>2019-09-03T21:48:37Z</time>
      </trkpt>
      <trkpt lat="45.70733" lon="6.60542">
        <ele>992</ele>
        <time>2019-09-03T21:48:43Z</time>
      </trkpt>
      <trkpt lat="45.70737" lon="6.60527">
        <ele>986</ele>
        <time>2019-09-03T21:48:45Z</time>
      </trkpt>
      <trkpt lat="45.70747" lon="6.6051">
        <ele>972</ele>
        <time>2019-09-03T21:48:48Z</time>
      </trkpt>
      <trkpt lat="45.70751" lon="6.60486">
        <ele>967</ele>
        <time>2019-09-03T21:48:51Z</time>
      </trkpt>
      <trkpt lat="45.70739" lon="6.60396">
        <ele>967</ele>
        <time>2019-09-03T21:49:02Z</time>
      </trkpt>
      <trkpt lat="45.70724" lon="6.60326">
        <ele>965</ele>
        <time>2019-09-03T21:49:11Z</time>
      </trkpt>
      <trkpt lat="45.70696" lon="6.60265">
        <ele>963</ele>
        <time>2019-09-03T21:49:20Z</time>
      </trkpt>
      <trkpt lat="45.7066" lon="6.60132">
        <ele>952</ele>
        <time>2019-09-03T21:49:38Z</time>
      </trkpt>
      <trkpt lat="45.70656" lon="6.60097">
        <ele>949</ele>
        <time>2019-09-03T21:49:42Z</time>
      </trkpt>
      <trkpt lat="45.70664" lon="6.59994">
        <ele>937</ele>
        <time>2019-09-03T21:49:55Z</time>
      </trkpt>
      <trkpt lat="45.70678" lon="6.59905">
        <ele>929</ele>
        <time>2019-09-03T21:50:07Z</time>
      </trkpt>
      <trkpt lat="45.70698" lon="6.59797">
        <ele>917</ele>
        <time>2019-09-03T21:50:21Z</time>
      </trkpt>
      <trkpt lat="45.70705" lon="6.59724">
        <ele>911</ele>
        <time>2019-09-03T21:50:30Z</time>
      </trkpt>
      <trkpt lat="45.70701" lon="6.59642">
        <ele>910</ele>
        <time>2019-09-03T21:50:40Z</time>
      </trkpt>
      <trkpt lat="45.70701" lon="6.59537">
        <ele>904</ele>
        <time>2019-09-03T21:50:53Z</time>
      </trkpt>
      <trkpt lat="45.70709" lon="6.59443">
        <ele>896</ele>
        <time>2019-09-03T21:51:05Z</time>
      </trkpt>
      <trkpt lat="45.70711" lon="6.59382">
        <ele>895</ele>
        <time>2019-09-03T21:51:12Z</time>
      </trkpt>
      <trkpt lat="45.70717" lon="6.59362">
        <ele>892</ele>
        <time>2019-09-03T21:51:15Z</time>
      </trkpt>
      <trkpt lat="45.70734" lon="6.59333">
        <ele>886</ele>
        <time>2019-09-03T21:51:20Z</time>
      </trkpt>
      <trkpt lat="45.70752" lon="6.59304">
        <ele>881</ele>
        <time>2019-09-03T21:51:25Z</time>
      </trkpt>
      <trkpt lat="45.70764" lon="6.59275">
        <ele>880</ele>
        <time>2019-09-03T21:51:29Z</time>
      </trkpt>
      <trkpt lat="45.70779" lon="6.59216">
        <ele>880</ele>
        <time>2019-09-03T21:51:37Z</time>
      </trkpt>
      <trkpt lat="45.70788" lon="6.59194">
        <ele>880</ele>
        <time>2019-09-03T21:51:40Z</time>
      </trkpt>
      <trkpt lat="45.70802" lon="6.59178">
        <ele>877</ele>
        <time>2019-09-03T21:51:43Z</time>
      </trkpt>
      <trkpt lat="45.70821" lon="6.59169">
        <ele>872</ele>
        <time>2019-09-03T21:51:46Z</time>
      </trkpt>
      <trkpt lat="45.70851" lon="6.59162">
        <ele>867</ele>
        <time>2019-09-03T21:51:52Z</time>
      </trkpt>
      <trkpt lat="45.7086" lon="6.59154">
        <ele>867</ele>
        <time>2019-09-03T21:51:54Z</time>
      </trkpt>
      <trkpt lat="45.70958" lon="6.59001">
        <ele>883</ele>
        <time>2019-09-03T21:52:20Z</time>
      </trkpt>
      <trkpt lat="45.70973" lon="6.58982">
        <ele>879</ele>
        <time>2019-09-03T21:52:23Z</time>
      </trkpt>
      <trkpt lat="45.70991" lon="6.58964">
        <ele>871</ele>
        <time>2019-09-03T21:52:27Z</time>
      </trkpt>
      <trkpt lat="45.71013" lon="6.58932">
        <ele>869</ele>
        <time>2019-09-03T21:52:33Z</time>
      </trkpt>
      <trkpt lat="45.71019" lon="6.58929">
        <ele>868</ele>
        <time>2019-09-03T21:52:34Z</time>
      </trkpt>
      <trkpt lat="45.71023" lon="6.5893">
        <ele>867</ele>
        <time>2019-09-03T21:52:34Z</time>
      </trkpt>
      <trkpt lat="45.71028" lon="6.58937">
        <ele>866</ele>
        <time>2019-09-03T21:52:36Z</time>
      </trkpt>
      <trkpt lat="45.71028" lon="6.58948">
        <ele>864</ele>
        <time>2019-09-03T21:52:37Z</time>
      </trkpt>
      <trkpt lat="45.71026" lon="6.58958">
        <ele>863</ele>
        <time>2019-09-03T21:52:38Z</time>
      </trkpt>
      <trkpt lat="45.71014" lon="6.5898">
        <ele>861</ele>
        <time>2019-09-03T21:52:42Z</time>
      </trkpt>
      <trkpt lat="45.7099" lon="6.58998">
        <ele>864</ele>
        <time>2019-09-03T21:52:47Z</time>
      </trkpt>
      <trkpt lat="45.70987" lon="6.59007">
        <ele>864</ele>
        <time>2019-09-03T21:52:48Z</time>
      </trkpt>
      <trkpt lat="45.70988" lon="6.59013">
        <ele>863</ele>
        <time>2019-09-03T21:52:49Z</time>
      </trkpt>
      <trkpt lat="45.70994" lon="6.59019">
        <ele>860</ele>
        <time>2019-09-03T21:52:50Z</time>
      </trkpt>
      <trkpt lat="45.71003" lon="6.59019">
        <ele>857</ele>
        <time>2019-09-03T21:52:52Z</time>
      </trkpt>
      <trkpt lat="45.71023" lon="6.59006">
        <ele>858</ele>
        <time>2019-09-03T21:52:55Z</time>
      </trkpt>
      <trkpt lat="45.71044" lon="6.5899">
        <ele>859</ele>
        <time>2019-09-03T21:53:00Z</time>
      </trkpt>
      <trkpt lat="45.71065" lon="6.58977">
        <ele>859</ele>
        <time>2019-09-03T21:53:04Z</time>
      </trkpt>
      <trkpt lat="45.71081" lon="6.58959">
        <ele>857</ele>
        <time>2019-09-03T21:53:07Z</time>
      </trkpt>
      <trkpt lat="45.711" lon="6.58943">
        <ele>864</ele>
        <time>2019-09-03T21:53:11Z</time>
      </trkpt>
      <trkpt lat="45.71109" lon="6.58928">
        <ele>866</ele>
        <time>2019-09-03T21:53:14Z</time>
      </trkpt>
      <trkpt lat="45.71119" lon="6.58892">
        <ele>865</ele>
        <time>2019-09-03T21:53:19Z</time>
      </trkpt>
      <trkpt lat="45.71127" lon="6.58839">
        <ele>861</ele>
        <time>2019-09-03T21:53:25Z</time>
      </trkpt>
      <trkpt lat="45.7113" lon="6.58797">
        <ele>862</ele>
        <time>2019-09-03T21:53:31Z</time>
      </trkpt>
      <trkpt lat="45.71138" lon="6.5875">
        <ele>864</ele>
        <time>2019-09-03T21:53:37Z</time>
      </trkpt>
      <trkpt lat="45.71173" lon="6.58678">
        <ele>884</ele>
        <time>2019-09-03T21:53:47Z</time>
      </trkpt>
      <trkpt lat="45.7118" lon="6.58647">
        <ele>905</ele>
        <time>2019-09-03T21:53:52Z</time>
      </trkpt>
      <trkpt lat="45.71181" lon="6.58608">
        <ele>932</ele>
        <time>2019-09-03T21:53:56Z</time>
      </trkpt>
      <trkpt lat="45.71192" lon="6.58442">
        <ele>964</ele>
        <time>2019-09-03T21:54:17Z</time>
      </trkpt>
      <trkpt lat="45.71194" lon="6.58431">
        <ele>961</ele>
        <time>2019-09-03T21:54:19Z</time>
      </trkpt>
      <trkpt lat="45.712" lon="6.58415">
        <ele>956</ele>
        <time>2019-09-03T21:54:21Z</time>
      </trkpt>
      <trkpt lat="45.71211" lon="6.58393">
        <ele>937</ele>
        <time>2019-09-03T21:54:24Z</time>
      </trkpt>
      <trkpt lat="45.71235" lon="6.58353">
        <ele>895</ele>
        <time>2019-09-03T21:54:31Z</time>
      </trkpt>
      <trkpt lat="45.71249" lon="6.58336">
        <ele>873</ele>
        <time>2019-09-03T21:54:34Z</time>
      </trkpt>
      <trkpt lat="45.71252" lon="6.58329">
        <ele>869</ele>
        <time>2019-09-03T21:54:35Z</time>
      </trkpt>
      <trkpt lat="45.713" lon="6.58206">
        <ele>834</ele>
        <time>2019-09-03T21:54:52Z</time>
      </trkpt>
      <trkpt lat="45.71302" lon="6.5818">
        <ele>828</ele>
        <time>2019-09-03T21:54:56Z</time>
      </trkpt>
      <trkpt lat="45.71299" lon="6.58153">
        <ele>828</ele>
        <time>2019-09-03T21:54:59Z</time>
      </trkpt>
      <trkpt lat="45.71303" lon="6.58126">
        <ele>830</ele>
        <time>2019-09-03T21:55:03Z</time>
      </trkpt>
      <trkpt lat="45.71314" lon="6.58084">
        <ele>827</ele>
        <time>2019-09-03T21:55:08Z</time>
      </trkpt>
      <trkpt lat="45.71322" lon="6.58045">
        <ele>816</ele>
        <time>2019-09-03T21:55:13Z</time>
      </trkpt>
      <trkpt lat="45.71321" lon="6.5799">
        <ele>811</ele>
        <time>2019-09-03T21:55:20Z</time>
      </trkpt>
      <trkpt lat="45.71324" lon="6.57971">
        <ele>809</ele>
        <time>2019-09-03T21:55:22Z</time>
      </trkpt>
      <trkpt lat="45.71334" lon="6.57951">
        <ele>799</ele>
        <time>2019-09-03T21:55:25Z</time>
      </trkpt>
      <trkpt lat="45.71356" lon="6.57914">
        <ele>799</ele>
        <time>2019-09-03T21:55:32Z</time>
      </trkpt>
      <trkpt lat="45.71396" lon="6.57869">
        <ele>794</ele>
        <time>2019-09-03T21:55:41Z</time>
      </trkpt>
      <trkpt lat="45.71413" lon="6.57839">
        <ele>786</ele>
        <time>2019-09-03T21:55:45Z</time>
      </trkpt>
      <trkpt lat="45.71421" lon="6.57811">
        <ele>783</ele>
        <time>2019-09-03T21:55:49Z</time>
      </trkpt>
      <trkpt lat="45.71442" lon="6.57686">
        <ele>771</ele>
        <time>2019-09-03T21:56:05Z</time>
      </trkpt>
      <trkpt lat="45.71446" lon="6.57676">
        <ele>770</ele>
        <time>2019-09-03T21:56:07Z</time>
      </trkpt>
      <trkpt lat="45.71455" lon="6.57661">
        <ele>769</ele>
        <time>2019-09-03T21:56:09Z</time>
      </trkpt>
      <trkpt lat="45.71467" lon="6.57648">
        <ele>771</ele>
        <time>2019-09-03T21:56:12Z</time>
      </trkpt>
      <trkpt lat="45.71484" lon="6.57636">
        <ele>771</ele>
        <time>2019-09-03T21:56:15Z</time>
      </trkpt>
      <trkpt lat="45.71504" lon="6.57627">
        <ele>769</ele>
        <time>2019-09-03T21:56:19Z</time>
      </trkpt>
      <trkpt lat="45.71521" lon="6.57624">
        <ele>768</ele>
        <time>2019-09-03T21:56:22Z</time>
      </trkpt>
      <trkpt lat="45.71565" lon="6.57626">
        <ele>767</ele>
        <time>2019-09-03T21:56:30Z</time>
      </trkpt>
      <trkpt lat="45.71623" lon="6.5762">
        <ele>762</ele>
        <time>2019-09-03T21:56:40Z</time>
      </trkpt>
      <trkpt lat="45.71647" lon="6.57611">
        <ele>758</ele>
        <time>2019-09-03T21:56:44Z</time>
      </trkpt>
      <trkpt lat="45.71669" lon="6.57605">
        <ele>755</ele>
        <time>2019-09-03T21:56:48Z</time>
      </trkpt>
      <trkpt lat="45.71684" lon="6.57597">
        <ele>753</ele>
        <time>2019-09-03T21:56:51Z</time>
      </trkpt>
      <trkpt lat="45.71783" lon="6.5753">
        <ele>744</ele>
        <time>2019-09-03T21:57:11Z</time>
      </trkpt>
      <trkpt lat="45.71813" lon="6.57493">
        <ele>741</ele>
        <time>2019-09-03T21:57:18Z</time>
      </trkpt>
      <trkpt lat="45.71866" lon="6.57416">
        <ele>737</ele>
        <time>2019-09-03T21:57:31Z</time>
      </trkpt>
      <trkpt lat="45.71882" lon="6.57407">
        <ele>737</ele>
        <time>2019-09-03T21:57:34Z</time>
      </trkpt>
      <trkpt lat="45.71886" lon="6.57407">
        <ele>737</ele>
        <time>2019-09-03T21:57:35Z</time>
      </trkpt>
      <trkpt lat="45.7189" lon="6.57403">
        <ele>737</ele>
        <time>2019-09-03T21:57:36Z</time>
      </trkpt>
      <trkpt lat="45.71892" lon="6.57395">
        <ele>737</ele>
        <time>2019-09-03T21:57:37Z</time>
      </trkpt>
      <trkpt lat="45.71914" lon="6.57371">
        <ele>735</ele>
        <time>2019-09-03T21:57:42Z</time>
      </trkpt>
      <trkpt lat="45.71941" lon="6.57325">
        <ele>735</ele>
        <time>2019-09-03T21:57:49Z</time>
      </trkpt>
      <trkpt lat="45.71986" lon="6.57238">
        <ele>731</ele>
        <time>2019-09-03T21:58:03Z</time>
      </trkpt>
      <trkpt lat="45.72005" lon="6.57223">
        <ele>732</ele>
        <time>2019-09-03T21:58:07Z</time>
      </trkpt>
      <trkpt lat="45.72007" lon="6.57215">
        <ele>733</ele>
        <time>2019-09-03T21:58:08Z</time>
      </trkpt>
      <trkpt lat="45.72005" lon="6.57206">
        <ele>732</ele>
        <time>2019-09-03T21:58:09Z</time>
      </trkpt>
      <trkpt lat="45.72002" lon="6.57203">
        <ele>731</ele>
        <time>2019-09-03T21:58:09Z</time>
      </trkpt>
      <trkpt lat="45.72" lon="6.57121">
        <ele>729</ele>
        <time>2019-09-03T21:58:20Z</time>
      </trkpt>
      <trkpt lat="45.71969" lon="6.56671">
        <ele>727</ele>
        <time>2019-09-03T21:59:16Z</time>
      </trkpt>
      <trkpt lat="45.71966" lon="6.56611">
        <ele>728</ele>
        <time>2019-09-03T21:59:23Z</time>
      </trkpt>
      <trkpt lat="45.71974" lon="6.5656">
        <ele>729</ele>
        <time>2019-09-03T21:59:30Z</time>
      </trkpt>
      <trkpt lat="45.71974" lon="6.56552">
        <ele>729</ele>
        <time>2019-09-03T21:59:31Z</time>
      </trkpt>
      <trkpt lat="45.71969" lon="6.56521">
        <ele>729</ele>
        <time>2019-09-03T21:59:35Z</time>
      </trkpt>
      <trkpt lat="45.7196" lon="6.56488">
        <ele>727</ele>
        <time>2019-09-03T21:59:39Z</time>
      </trkpt>
      <trkpt lat="45.71955" lon="6.56437">
        <ele>725</ele>
        <time>2019-09-03T21:59:46Z</time>
      </trkpt>
      <trkpt lat="45.71953" lon="6.56381">
        <ele>722</ele>
        <time>2019-09-03T21:59:53Z</time>
      </trkpt>
      <trkpt lat="45.71954" lon="6.56359">
        <ele>721</ele>
        <time>2019-09-03T21:59:55Z</time>
      </trkpt>
      <trkpt lat="45.71958" lon="6.56318">
        <ele>719</ele>
        <time>2019-09-03T22:00:00Z</time>
      </trkpt>
      <trkpt lat="45.71969" lon="6.56264">
        <ele>716</ele>
        <time>2019-09-03T22:00:07Z</time>
      </trkpt>
      <trkpt lat="45.71988" lon="6.56205">
        <ele>713</ele>
        <time>2019-09-03T22:00:15Z</time>
      </trkpt>
      <trkpt lat="45.72042" lon="6.56064">
        <ele>712</ele>
        <time>2019-09-03T22:00:35Z</time>
      </trkpt>
      <trkpt lat="45.72076" lon="6.55973">
        <ele>707</ele>
        <time>2019-09-03T22:00:48Z</time>
      </trkpt>
      <trkpt lat="45.72152" lon="6.55785">
        <ele>705</ele>
        <time>2019-09-03T22:01:15Z</time>
      </trkpt>
      <trkpt lat="45.72161" lon="6.55767">
        <ele>705</ele>
        <time>2019-09-03T22:01:18Z</time>
      </trkpt>
      <trkpt lat="45.72485" lon="6.5525">
        <ele>696</ele>
        <time>2019-09-03T22:02:44Z</time>
      </trkpt>
      <trkpt lat="45.72516" lon="6.5519">
        <ele>698</ele>
        <time>2019-09-03T22:02:54Z</time>
      </trkpt>
      <trkpt lat="45.72533" lon="6.5515">
        <ele>698</ele>
        <time>2019-09-03T22:02:59Z</time>
      </trkpt>
      <trkpt lat="45.72552" lon="6.55089">
        <ele>698</ele>
        <time>2019-09-03T22:03:08Z</time>
      </trkpt>
      <trkpt lat="45.72567" lon="6.55017">
        <ele>697</ele>
        <time>2019-09-03T22:03:17Z</time>
      </trkpt>
      <trkpt lat="45.72573" lon="6.54971">
        <ele>698</ele>
        <time>2019-09-03T22:03:23Z</time>
      </trkpt>
      <trkpt lat="45.7259" lon="6.54787">
        <ele>703</ele>
        <time>2019-09-03T22:03:46Z</time>
      </trkpt>
      <trkpt lat="45.72595" lon="6.54758">
        <ele>704</ele>
        <time>2019-09-03T22:03:50Z</time>
      </trkpt>
      <trkpt lat="45.72604" lon="6.54733">
        <ele>704</ele>
        <time>2019-09-03T22:03:53Z</time>
      </trkpt>
      <trkpt lat="45.72647" lon="6.5466">
        <ele>703</ele>
        <time>2019-09-03T22:04:05Z</time>
      </trkpt>
      <trkpt lat="45.72674" lon="6.546">
        <ele>709</ele>
        <time>2019-09-03T22:04:14Z</time>
      </trkpt>
      <trkpt lat="45.72684" lon="6.54597">
        <ele>715</ele>
        <time>2019-09-03T22:04:16Z</time>
      </trkpt>
      <trkpt lat="45.72695" lon="6.54614">
        <ele>720</ele>
        <time>2019-09-03T22:04:18Z</time>
      </trkpt>
      <trkpt lat="45.72697" lon="6.54706">
        <ele>720</ele>
        <time>2019-09-03T22:04:30Z</time>
      </trkpt>
      <trkpt lat="45.727" lon="6.5474">
        <ele>722</ele>
        <time>2019-09-03T22:04:34Z</time>
      </trkpt>
      <trkpt lat="45.72736" lon="6.54934">
        <ele>736</ele>
        <time>2019-09-03T22:04:59Z</time>
      </trkpt>
      <trkpt lat="45.72735" lon="6.54948">
        <ele>737</ele>
        <time>2019-09-03T22:05:01Z</time>
      </trkpt>
      <trkpt lat="45.72731" lon="6.54967">
        <ele>737</ele>
        <time>2019-09-03T22:05:03Z</time>
      </trkpt>
      <trkpt lat="45.72724" lon="6.54984">
        <ele>736</ele>
        <time>2019-09-03T22:05:06Z</time>
      </trkpt>
      <trkpt lat="45.72699" lon="6.55019">
        <ele>730</ele>
        <time>2019-09-03T22:05:12Z</time>
      </trkpt>
      <trkpt lat="45.72689" lon="6.55039">
        <ele>727</ele>
        <time>2019-09-03T22:05:15Z</time>
      </trkpt>
      <trkpt lat="45.72686" lon="6.55053">
        <ele>726</ele>
        <time>2019-09-03T22:05:17Z</time>
      </trkpt>
      <trkpt lat="45.72686" lon="6.55088">
        <ele>728</ele>
        <time>2019-09-03T22:05:21Z</time>
      </trkpt>
      <trkpt lat="45.72692" lon="6.55127">
        <ele>731</ele>
        <time>2019-09-03T22:05:26Z</time>
      </trkpt>
      <trkpt lat="45.72693" lon="6.55145">
        <ele>732</ele>
        <time>2019-09-03T22:05:28Z</time>
      </trkpt>
      <trkpt lat="45.7269" lon="6.55208">
        <ele>734</ele>
        <time>2019-09-03T22:05:36Z</time>
      </trkpt>
      <trkpt lat="45.72697" lon="6.55271">
        <ele>739</ele>
        <time>2019-09-03T22:05:44Z</time>
      </trkpt>
      <trkpt lat="45.72699" lon="6.55309">
        <ele>741</ele>
        <time>2019-09-03T22:05:49Z</time>
      </trkpt>
      <trkpt lat="45.72699" lon="6.55339">
        <ele>743</ele>
        <time>2019-09-03T22:05:53Z</time>
      </trkpt>
      <trkpt lat="45.72697" lon="6.55369">
        <ele>744</ele>
        <time>2019-09-03T22:05:56Z</time>
      </trkpt>
      <trkpt lat="45.72699" lon="6.55384">
        <ele>745</ele>
        <time>2019-09-03T22:05:58Z</time>
      </trkpt>
      <trkpt lat="45.72702" lon="6.55389">
        <ele>747</ele>
        <time>2019-09-03T22:05:59Z</time>
      </trkpt>
      <trkpt lat="45.72708" lon="6.55389">
        <ele>749</ele>
        <time>2019-09-03T22:06:00Z</time>
      </trkpt>
      <trkpt lat="45.72712" lon="6.55386">
        <ele>751</ele>
        <time>2019-09-03T22:06:01Z</time>
      </trkpt>
      <trkpt lat="45.72717" lon="6.55379">
        <ele>753</ele>
        <time>2019-09-03T22:06:02Z</time>
      </trkpt>
      <trkpt lat="45.72722" lon="6.55329">
        <ele>752</ele>
        <time>2019-09-03T22:06:09Z</time>
      </trkpt>
      <trkpt lat="45.72743" lon="6.55276">
        <ele>758</ele>
        <time>2019-09-03T22:06:16Z</time>
      </trkpt>
      <trkpt lat="45.72756" lon="6.55237">
        <ele>761</ele>
        <time>2019-09-03T22:06:21Z</time>
      </trkpt>
      <trkpt lat="45.72763" lon="6.55202">
        <ele>762</ele>
        <time>2019-09-03T22:06:26Z</time>
      </trkpt>
      <trkpt lat="45.7277" lon="6.55119">
        <ele>759</ele>
        <time>2019-09-03T22:06:36Z</time>
      </trkpt>
      <trkpt lat="45.72774" lon="6.55112">
        <ele>761</ele>
        <time>2019-09-03T22:06:37Z</time>
      </trkpt>
      <trkpt lat="45.7278" lon="6.5511">
        <ele>765</ele>
        <time>2019-09-03T22:06:39Z</time>
      </trkpt>
      <trkpt lat="45.72786" lon="6.55112">
        <ele>768</ele>
        <time>2019-09-03T22:06:40Z</time>
      </trkpt>
      <trkpt lat="45.72789" lon="6.55117">
        <ele>770</ele>
        <time>2019-09-03T22:06:40Z</time>
      </trkpt>
      <trkpt lat="45.72791" lon="6.55129">
        <ele>772</ele>
        <time>2019-09-03T22:06:42Z</time>
      </trkpt>
      <trkpt lat="45.72783" lon="6.5517">
        <ele>770</ele>
        <time>2019-09-03T22:06:47Z</time>
      </trkpt>
      <trkpt lat="45.72781" lon="6.55227">
        <ele>774</ele>
        <time>2019-09-03T22:06:54Z</time>
      </trkpt>
      <trkpt lat="45.72772" lon="6.5528">
        <ele>773</ele>
        <time>2019-09-03T22:07:01Z</time>
      </trkpt>
      <trkpt lat="45.7277" lon="6.5533">
        <ele>775</ele>
        <time>2019-09-03T22:07:07Z</time>
      </trkpt>
      <trkpt lat="45.72761" lon="6.55399">
        <ele>773</ele>
        <time>2019-09-03T22:07:16Z</time>
      </trkpt>
      <trkpt lat="45.72761" lon="6.55473">
        <ele>782</ele>
        <time>2019-09-03T22:07:25Z</time>
      </trkpt>
      <trkpt lat="45.72752" lon="6.55517">
        <ele>786</ele>
        <time>2019-09-03T22:07:31Z</time>
      </trkpt>
      <trkpt lat="45.72741" lon="6.55545">
        <ele>788</ele>
        <time>2019-09-03T22:07:35Z</time>
      </trkpt>
      <trkpt lat="45.72724" lon="6.55575">
        <ele>789</ele>
        <time>2019-09-03T22:07:40Z</time>
      </trkpt>
      <trkpt lat="45.72722" lon="6.55586">
        <ele>791</ele>
        <time>2019-09-03T22:07:41Z</time>
      </trkpt>
      <trkpt lat="45.72727" lon="6.55599">
        <ele>797</ele>
        <time>2019-09-03T22:07:43Z</time>
      </trkpt>
      <trkpt lat="45.72733" lon="6.556">
        <ele>800</ele>
        <time>2019-09-03T22:07:44Z</time>
      </trkpt>
      <trkpt lat="45.72741" lon="6.55593">
        <ele>802</ele>
        <time>2019-09-03T22:07:46Z</time>
      </trkpt>
      <trkpt lat="45.72754" lon="6.55554">
        <ele>797</ele>
        <time>2019-09-03T22:07:51Z</time>
      </trkpt>
      <trkpt lat="45.72787" lon="6.55481">
        <ele>795</ele>
        <time>2019-09-03T22:08:02Z</time>
      </trkpt>
      <trkpt lat="45.72824" lon="6.55411">
        <ele>803</ele>
        <time>2019-09-03T22:08:13Z</time>
      </trkpt>
      <trkpt lat="45.7283" lon="6.55388">
        <ele>806</ele>
        <time>2019-09-03T22:08:16Z</time>
      </trkpt>
      <trkpt lat="45.72834" lon="6.55361">
        <ele>809</ele>
        <time>2019-09-03T22:08:19Z</time>
      </trkpt>
      <trkpt lat="45.72859" lon="6.55192">
        <ele>815</ele>
        <time>2019-09-03T22:08:41Z</time>
      </trkpt>
      <trkpt lat="45.72865" lon="6.55138">
        <ele>814</ele>
        <time>2019-09-03T22:08:48Z</time>
      </trkpt>
      <trkpt lat="45.72861" lon="6.5506">
        <ele>808</ele>
        <time>2019-09-03T22:08:57Z</time>
      </trkpt>
      <trkpt lat="45.72864" lon="6.55042">
        <ele>809</ele>
        <time>2019-09-03T22:09:00Z</time>
      </trkpt>
      <trkpt lat="45.7287" lon="6.55029">
        <ele>812</ele>
        <time>2019-09-03T22:09:02Z</time>
      </trkpt>
      <trkpt lat="45.72893" lon="6.55005">
        <ele>821</ele>
        <time>2019-09-03T22:09:07Z</time>
      </trkpt>
      <trkpt lat="45.72903" lon="6.54998">
        <ele>824</ele>
        <time>2019-09-03T22:09:09Z</time>
      </trkpt>
      <trkpt lat="45.72909" lon="6.54996">
        <ele>827</ele>
        <time>2019-09-03T22:09:10Z</time>
      </trkpt>
      <trkpt lat="45.72913" lon="6.54998">
        <ele>829</ele>
        <time>2019-09-03T22:09:10Z</time>
      </trkpt>
      <trkpt lat="45.72917" lon="6.55007">
        <ele>831</ele>
        <time>2019-09-03T22:09:12Z</time>
      </trkpt>
      <trkpt lat="45.72916" lon="6.55019">
        <ele>831</ele>
        <time>2019-09-03T22:09:13Z</time>
      </trkpt>
      <trkpt lat="45.72913" lon="6.55024">
        <ele>830</ele>
        <time>2019-09-03T22:09:14Z</time>
      </trkpt>
      <trkpt lat="45.7289" lon="6.55044">
        <ele>821</ele>
        <time>2019-09-03T22:09:19Z</time>
      </trkpt>
      <trkpt lat="45.72886" lon="6.55054">
        <ele>819</ele>
        <time>2019-09-03T22:09:20Z</time>
      </trkpt>
      <trkpt lat="45.72884" lon="6.55067">
        <ele>819</ele>
        <time>2019-09-03T22:09:22Z</time>
      </trkpt>
      <trkpt lat="45.72896" lon="6.55158">
        <ele>833</ele>
        <time>2019-09-03T22:09:33Z</time>
      </trkpt>
      <trkpt lat="45.72889" lon="6.55239">
        <ele>838</ele>
        <time>2019-09-03T22:09:44Z</time>
      </trkpt>
      <trkpt lat="45.72893" lon="6.55272">
        <ele>845</ele>
        <time>2019-09-03T22:09:48Z</time>
      </trkpt>
      <trkpt lat="45.72893" lon="6.55313">
        <ele>850</ele>
        <time>2019-09-03T22:09:53Z</time>
      </trkpt>
      <trkpt lat="45.72897" lon="6.55346">
        <ele>855</ele>
        <time>2019-09-03T22:09:57Z</time>
      </trkpt>
      <trkpt lat="45.72924" lon="6.55475">
        <ele>865</ele>
        <time>2019-09-03T22:10:14Z</time>
      </trkpt>
      <trkpt lat="45.72926" lon="6.55503">
        <ele>865</ele>
        <time>2019-09-03T22:10:17Z</time>
      </trkpt>
      <trkpt lat="45.72925" lon="6.55564">
        <ele>869</ele>
        <time>2019-09-03T22:10:25Z</time>
      </trkpt>
      <trkpt lat="45.72918" lon="6.55623">
        <ele>870</ele>
        <time>2019-09-03T22:10:32Z</time>
      </trkpt>
      <trkpt lat="45.72919" lon="6.55651">
        <ele>874</ele>
        <time>2019-09-03T22:10:36Z</time>
      </trkpt>
      <trkpt lat="45.72928" lon="6.557">
        <ele>884</ele>
        <time>2019-09-03T22:10:42Z</time>
      </trkpt>
      <trkpt lat="45.72932" lon="6.55851">
        <ele>902</ele>
        <time>2019-09-03T22:11:01Z</time>
      </trkpt>
      <trkpt lat="45.72938" lon="6.55906">
        <ele>906</ele>
        <time>2019-09-03T22:11:08Z</time>
      </trkpt>
      <trkpt lat="45.72944" lon="6.55987">
        <ele>910</ele>
        <time>2019-09-03T22:11:18Z</time>
      </trkpt>
      <trkpt lat="45.72951" lon="6.56125">
        <ele>914</ele>
        <time>2019-09-03T22:11:35Z</time>
      </trkpt>
      <trkpt lat="45.72945" lon="6.56197">
        <ele>914</ele>
        <time>2019-09-03T22:11:44Z</time>
      </trkpt>
      <trkpt lat="45.72946" lon="6.56214">
        <ele>915</ele>
        <time>2019-09-03T22:11:46Z</time>
      </trkpt>
      <trkpt lat="45.72949" lon="6.56221">
        <ele>917</ele>
        <time>2019-09-03T22:11:47Z</time>
      </trkpt>
      <trkpt lat="45.72953" lon="6.56225">
        <ele>919</ele>
        <time>2019-09-03T22:11:48Z</time>
      </trkpt>
      <trkpt lat="45.72959" lon="6.56225">
        <ele>922</ele>
        <time>2019-09-03T22:11:49Z</time>
      </trkpt>
      <trkpt lat="45.72965" lon="6.56222">
        <ele>925</ele>
        <time>2019-09-03T22:11:50Z</time>
      </trkpt>
      <trkpt lat="45.72969" lon="6.56216">
        <ele>927</ele>
        <time>2019-09-03T22:11:51Z</time>
      </trkpt>
      <trkpt lat="45.7297" lon="6.56204">
        <ele>928</ele>
        <time>2019-09-03T22:11:53Z</time>
      </trkpt>
      <trkpt lat="45.72968" lon="6.56108">
        <ele>923</ele>
        <time>2019-09-03T22:12:05Z</time>
      </trkpt>
      <trkpt lat="45.72972" lon="6.56055">
        <ele>923</ele>
        <time>2019-09-03T22:12:11Z</time>
      </trkpt>
      <trkpt lat="45.7298" lon="6.55981">
        <ele>925</ele>
        <time>2019-09-03T22:12:21Z</time>
      </trkpt>
      <trkpt lat="45.7299" lon="6.55909">
        <ele>925</ele>
        <time>2019-09-03T22:12:30Z</time>
      </trkpt>
      <trkpt lat="45.73004" lon="6.55831">
        <ele>928</ele>
        <time>2019-09-03T22:12:40Z</time>
      </trkpt>
      <trkpt lat="45.73025" lon="6.55699">
        <ele>939</ele>
        <time>2019-09-03T22:12:57Z</time>
      </trkpt>
      <trkpt lat="45.73027" lon="6.55546">
        <ele>936</ele>
        <time>2019-09-03T22:13:16Z</time>
      </trkpt>
      <trkpt lat="45.7303" lon="6.55503">
        <ele>937</ele>
        <time>2019-09-03T22:13:21Z</time>
      </trkpt>
      <trkpt lat="45.73038" lon="6.55471">
        <ele>942</ele>
        <time>2019-09-03T22:13:25Z</time>
      </trkpt>
      <trkpt lat="45.73116" lon="6.55303">
        <ele>947</ele>
        <time>2019-09-03T22:13:50Z</time>
      </trkpt>
      <trkpt lat="45.73135" lon="6.55268">
        <ele>947</ele>
        <time>2019-09-03T22:13:56Z</time>
      </trkpt>
      <trkpt lat="45.73156" lon="6.5524">
        <ele>950</ele>
        <time>2019-09-03T22:14:01Z</time>
      </trkpt>
      <trkpt lat="45.73197" lon="6.55198">
        <ele>962</ele>
        <time>2019-09-03T22:14:10Z</time>
      </trkpt>
      <trkpt lat="45.73217" lon="6.55159">
        <ele>968</ele>
        <time>2019-09-03T22:14:16Z</time>
      </trkpt>
      <trkpt lat="45.73218" lon="6.55153">
        <ele>970</ele>
        <time>2019-09-03T22:14:17Z</time>
      </trkpt>
      <trkpt lat="45.73217" lon="6.55132">
        <ele>972</ele>
        <time>2019-09-03T22:14:19Z</time>
      </trkpt>
      <trkpt lat="45.73202" lon="6.55064">
        <ele>972</ele>
        <time>2019-09-03T22:14:28Z</time>
      </trkpt>
      <trkpt lat="45.73195" lon="6.55007">
        <ele>976</ele>
        <time>2019-09-03T22:14:35Z</time>
      </trkpt>
      <trkpt lat="45.73197" lon="6.54964">
        <ele>980</ele>
        <time>2019-09-03T22:14:41Z</time>
      </trkpt>
      <trkpt lat="45.73202" lon="6.54922">
        <ele>984</ele>
        <time>2019-09-03T22:14:46Z</time>
      </trkpt>
      <trkpt lat="45.73207" lon="6.54903">
        <ele>987</ele>
        <time>2019-09-03T22:14:48Z</time>
      </trkpt>
      <trkpt lat="45.73209" lon="6.54885">
        <ele>989</ele>
        <time>2019-09-03T22:14:51Z</time>
      </trkpt>
      <trkpt lat="45.73168" lon="6.54629">
        <ele>995</ele>
        <time>2019-09-03T22:15:23Z</time>
      </trkpt>
      <trkpt lat="45.73166" lon="6.54579">
        <ele>997</ele>
        <time>2019-09-03T22:15:29Z</time>
      </trkpt>
      <trkpt lat="45.73176" lon="6.54481">
        <ele>1008</ele>
        <time>2019-09-03T22:15:42Z</time>
      </trkpt>
      <trkpt lat="45.73176" lon="6.54456">
        <ele>1011</ele>
        <time>2019-09-03T22:15:45Z</time>
      </trkpt>
      <trkpt lat="45.73166" lon="6.54403">
        <ele>1012</ele>
        <time>2019-09-03T22:15:52Z</time>
      </trkpt>
      <trkpt lat="45.73149" lon="6.54362">
        <ele>1010</ele>
        <time>2019-09-03T22:15:58Z</time>
      </trkpt>
      <trkpt lat="45.73141" lon="6.54337">
        <ele>1010</ele>
        <time>2019-09-03T22:16:01Z</time>
      </trkpt>
      <trkpt lat="45.73136" lon="6.54315">
        <ele>1008</ele>
        <time>2019-09-03T22:16:04Z</time>
      </trkpt>
      <trkpt lat="45.73136" lon="6.5429">
        <ele>1009</ele>
        <time>2019-09-03T22:16:07Z</time>
      </trkpt>
      <trkpt lat="45.73155" lon="6.54211">
        <ele>1018</ele>
        <time>2019-09-03T22:16:17Z</time>
      </trkpt>
      <trkpt lat="45.73181" lon="6.54124">
        <ele>1019</ele>
        <time>2019-09-03T22:16:29Z</time>
      </trkpt>
      <trkpt lat="45.73205" lon="6.54061">
        <ele>1018</ele>
        <time>2019-09-03T22:16:38Z</time>
      </trkpt>
      <trkpt lat="45.73211" lon="6.54051">
        <ele>1019</ele>
        <time>2019-09-03T22:16:40Z</time>
      </trkpt>
      <trkpt lat="45.73218" lon="6.54049">
        <ele>1022</ele>
        <time>2019-09-03T22:16:41Z</time>
      </trkpt>
      <trkpt lat="45.73223" lon="6.54051">
        <ele>1026</ele>
        <time>2019-09-03T22:16:42Z</time>
      </trkpt>
      <trkpt lat="45.73228" lon="6.54057">
        <ele>1030</ele>
        <time>2019-09-03T22:16:43Z</time>
      </trkpt>
      <trkpt lat="45.73229" lon="6.54066">
        <ele>1034</ele>
        <time>2019-09-03T22:16:44Z</time>
      </trkpt>
      <trkpt lat="45.73228" lon="6.54074">
        <ele>1035</ele>
        <time>2019-09-03T22:16:45Z</time>
      </trkpt>
      <trkpt lat="45.73206" lon="6.54114">
        <ele>1032</ele>
        <time>2019-09-03T22:16:51Z</time>
      </trkpt>
      <trkpt lat="45.73195" lon="6.54139">
        <ele>1031</ele>
        <time>2019-09-03T22:16:55Z</time>
      </trkpt>
      <trkpt lat="45.73175" lon="6.54259">
        <ele>1037</ele>
        <time>2019-09-03T22:17:10Z</time>
      </trkpt>
      <trkpt lat="45.73174" lon="6.54274">
        <ele>1036</ele>
        <time>2019-09-03T22:17:12Z</time>
      </trkpt>
      <trkpt lat="45.73177" lon="6.54292">
        <ele>1037</ele>
        <time>2019-09-03T22:17:15Z</time>
      </trkpt>
      <trkpt lat="45.73183" lon="6.54306">
        <ele>1040</ele>
        <time>2019-09-03T22:17:17Z</time>
      </trkpt>
      <trkpt lat="45.7321" lon="6.54359">
        <ele>1051</ele>
        <time>2019-09-03T22:17:25Z</time>
      </trkpt>
      <trkpt lat="45.73223" lon="6.54391">
        <ele>1051</ele>
        <time>2019-09-03T22:17:29Z</time>
      </trkpt>
      <trkpt lat="45.73229" lon="6.54415">
        <ele>1048</ele>
        <time>2019-09-03T22:17:33Z</time>
      </trkpt>
      <trkpt lat="45.73264" lon="6.54525">
        <ele>1055</ele>
        <time>2019-09-03T22:17:48Z</time>
      </trkpt>
      <trkpt lat="45.73285" lon="6.54557">
        <ele>1061</ele>
        <time>2019-09-03T22:17:53Z</time>
      </trkpt>
      <trkpt lat="45.73297" lon="6.5458">
        <ele>1064</ele>
        <time>2019-09-03T22:17:57Z</time>
      </trkpt>
      <trkpt lat="45.73362" lon="6.548">
        <ele>1077</ele>
        <time>2019-09-03T22:18:26Z</time>
      </trkpt>
      <trkpt lat="45.73365" lon="6.54816">
        <ele>1078</ele>
        <time>2019-09-03T22:18:28Z</time>
      </trkpt>
      <trkpt lat="45.73363" lon="6.54832">
        <ele>1076</ele>
        <time>2019-09-03T22:18:30Z</time>
      </trkpt>
      <trkpt lat="45.73336" lon="6.54941">
        <ele>1069</ele>
        <time>2019-09-03T22:18:45Z</time>
      </trkpt>
      <trkpt lat="45.73335" lon="6.54969">
        <ele>1070</ele>
        <time>2019-09-03T22:18:48Z</time>
      </trkpt>
      <trkpt lat="45.7334" lon="6.54992">
        <ele>1074</ele>
        <time>2019-09-03T22:18:51Z</time>
      </trkpt>
      <trkpt lat="45.73356" lon="6.55029">
        <ele>1074</ele>
        <time>2019-09-03T22:18:57Z</time>
      </trkpt>
      <trkpt lat="45.73373" lon="6.55056">
        <ele>1076</ele>
        <time>2019-09-03T22:19:01Z</time>
      </trkpt>
      <trkpt lat="45.73412" lon="6.55095">
        <ele>1089</ele>
        <time>2019-09-03T22:19:10Z</time>
      </trkpt>
      <trkpt lat="45.73423" lon="6.55108">
        <ele>1093</ele>
        <time>2019-09-03T22:19:12Z</time>
      </trkpt>
      <trkpt lat="45.73428" lon="6.55126">
        <ele>1091</ele>
        <time>2019-09-03T22:19:15Z</time>
      </trkpt>
      <trkpt lat="45.73427" lon="6.55141">
        <ele>1087</ele>
        <time>2019-09-03T22:19:16Z</time>
      </trkpt>
      <trkpt lat="45.73401" lon="6.55208">
        <ele>1070</ele>
        <time>2019-09-03T22:19:26Z</time>
      </trkpt>
      <trkpt lat="45.73396" lon="6.55248">
        <ele>1072</ele>
        <time>2019-09-03T22:19:31Z</time>
      </trkpt>
      <trkpt lat="45.73393" lon="6.55344">
        <ele>1083</ele>
        <time>2019-09-03T22:19:43Z</time>
      </trkpt>
      <trkpt lat="45.73381" lon="6.55428">
        <ele>1083</ele>
        <time>2019-09-03T22:19:54Z</time>
      </trkpt>
      <trkpt lat="45.73378" lon="6.55502">
        <ele>1089</ele>
        <time>2019-09-03T22:20:03Z</time>
      </trkpt>
      <trkpt lat="45.73384" lon="6.55579">
        <ele>1098</ele>
        <time>2019-09-03T22:20:12Z</time>
      </trkpt>
      <trkpt lat="45.73383" lon="6.55606">
        <ele>1103</ele>
        <time>2019-09-03T22:20:16Z</time>
      </trkpt>
      <trkpt lat="45.73379" lon="6.55633">
        <ele>1106</ele>
        <time>2019-09-03T22:20:19Z</time>
      </trkpt>
      <trkpt lat="45.73371" lon="6.55661">
        <ele>1109</ele>
        <time>2019-09-03T22:20:23Z</time>
      </trkpt>
      <trkpt lat="45.73348" lon="6.55707">
        <ele>1111</ele>
        <time>2019-09-03T22:20:30Z</time>
      </trkpt>
      <trkpt lat="45.73305" lon="6.55774">
        <ele>1107</ele>
        <time>2019-09-03T22:20:41Z</time>
      </trkpt>
      <trkpt lat="45.733" lon="6.55795">
        <ele>1108</ele>
        <time>2019-09-03T22:20:44Z</time>
      </trkpt>
      <trkpt lat="45.73298" lon="6.55817">
        <ele>1110</ele>
        <time>2019-09-03T22:20:47Z</time>
      </trkpt>
      <trkpt lat="45.73298" lon="6.55936">
        <ele>1128</ele>
        <time>2019-09-03T22:21:02Z</time>
      </trkpt>
      <trkpt lat="45.73295" lon="6.55958">
        <ele>1130</ele>
        <time>2019-09-03T22:21:04Z</time>
      </trkpt>
      <trkpt lat="45.7326" lon="6.56043">
        <ele>1119</ele>
        <time>2019-09-03T22:21:17Z</time>
      </trkpt>
      <trkpt lat="45.73255" lon="6.56068">
        <ele>1119</ele>
        <time>2019-09-03T22:21:20Z</time>
      </trkpt>
      <trkpt lat="45.73256" lon="6.56086">
        <ele>1121</ele>
        <time>2019-09-03T22:21:22Z</time>
      </trkpt>
      <trkpt lat="45.73266" lon="6.56108">
        <ele>1124</ele>
        <time>2019-09-03T22:21:25Z</time>
      </trkpt>
      <trkpt lat="45.73283" lon="6.56129">
        <ele>1130</ele>
        <time>2019-09-03T22:21:29Z</time>
      </trkpt>
      <trkpt lat="45.73387" lon="6.56245">
        <ele>1150</ele>
        <time>2019-09-03T22:21:53Z</time>
      </trkpt>
      <trkpt lat="45.73402" lon="6.56275">
        <ele>1149</ele>
        <time>2019-09-03T22:21:57Z</time>
      </trkpt>
      <trkpt lat="45.73441" lon="6.56363">
        <ele>1147</ele>
        <time>2019-09-03T22:22:10Z</time>
      </trkpt>
      <trkpt lat="45.73455" lon="6.56388">
        <ele>1147</ele>
        <time>2019-09-03T22:22:14Z</time>
      </trkpt>
      <trkpt lat="45.7347" lon="6.56406">
        <ele>1149</ele>
        <time>2019-09-03T22:22:18Z</time>
      </trkpt>
      <trkpt lat="45.73517" lon="6.56428">
        <ele>1159</ele>
        <time>2019-09-03T22:22:27Z</time>
      </trkpt>
      <trkpt lat="45.736" lon="6.56459">
        <ele>1167</ele>
        <time>2019-09-03T22:22:42Z</time>
      </trkpt>
      <trkpt lat="45.73675" lon="6.56488">
        <ele>1172</ele>
        <time>2019-09-03T22:22:56Z</time>
      </trkpt>
      <trkpt lat="45.73695" lon="6.56503">
        <ele>1173</ele>
        <time>2019-09-03T22:23:00Z</time>
      </trkpt>
      <trkpt lat="45.73755" lon="6.56563">
        <ele>1173</ele>
        <time>2019-09-03T22:23:13Z</time>
      </trkpt>
      <trkpt lat="45.73813" lon="6.56598">
        <ele>1185</ele>
        <time>2019-09-03T22:23:24Z</time>
      </trkpt>
      <trkpt lat="45.73826" lon="6.56608">
        <ele>1187</ele>
        <time>2019-09-03T22:23:27Z</time>
      </trkpt>
      <trkpt lat="45.73839" lon="6.56628">
        <ele>1185</ele>
        <time>2019-09-03T22:23:30Z</time>
      </trkpt>
      <trkpt lat="45.73859" lon="6.56679">
        <ele>1178</ele>
        <time>2019-09-03T22:23:37Z</time>
      </trkpt>
      <trkpt lat="45.7391" lon="6.56789">
        <ele>1188</ele>
        <time>2019-09-03T22:23:54Z</time>
      </trkpt>
      <trkpt lat="45.73928" lon="6.56823">
        <ele>1187</ele>
        <time>2019-09-03T22:23:59Z</time>
      </trkpt>
      <trkpt lat="45.73972" lon="6.5686">
        <ele>1194</ele>
        <time>2019-09-03T22:24:08Z</time>
      </trkpt>
      <trkpt lat="45.74032" lon="6.56899">
        <ele>1207</ele>
        <time>2019-09-03T22:24:20Z</time>
      </trkpt>
      <trkpt lat="45.74073" lon="6.56955">
        <ele>1210</ele>
        <time>2019-09-03T22:24:30Z</time>
      </trkpt>
      <trkpt lat="45.74116" lon="6.57003">
        <ele>1211</ele>
        <time>2019-09-03T22:24:39Z</time>
      </trkpt>
      <trkpt lat="45.74221" lon="6.57046">
        <ele>1224</ele>
        <time>2019-09-03T22:24:59Z</time>
      </trkpt>
      <trkpt lat="45.74265" lon="6.57077">
        <ele>1224</ele>
        <time>2019-09-03T22:25:08Z</time>
      </trkpt>
      <trkpt lat="45.74277" lon="6.57083">
        <ele>1226</ele>
        <time>2019-09-03T22:25:10Z</time>
      </trkpt>
      <trkpt lat="45.74289" lon="6.57086">
        <ele>1230</ele>
        <time>2019-09-03T22:25:12Z</time>
      </trkpt>
      <trkpt lat="45.74309" lon="6.57086">
        <ele>1239</ele>
        <time>2019-09-03T22:25:16Z</time>
      </trkpt>
      <trkpt lat="45.74315" lon="6.5709">
        <ele>1240</ele>
        <time>2019-09-03T22:25:17Z</time>
      </trkpt>
      <trkpt lat="45.74331" lon="6.5713">
        <ele>1230</ele>
        <time>2019-09-03T22:25:23Z</time>
      </trkpt>
      <trkpt lat="45.74341" lon="6.57146">
        <ele>1227</ele>
        <time>2019-09-03T22:25:25Z</time>
      </trkpt>
      <trkpt lat="45.74367" lon="6.57173">
        <ele>1227</ele>
        <time>2019-09-03T22:25:31Z</time>
      </trkpt>
      <trkpt lat="45.74506" lon="6.573">
        <ele>1214</ele>
        <time>2019-09-03T22:26:00Z</time>
      </trkpt>
      <trkpt lat="45.74579" lon="6.57385">
        <ele>1196</ele>
        <time>2019-09-03T22:26:17Z</time>
      </trkpt>
      <trkpt lat="45.74594" lon="6.57406">
        <ele>1193</ele>
        <time>2019-09-03T22:26:21Z</time>
      </trkpt>
      <trkpt lat="45.74614" lon="6.57424">
        <ele>1193</ele>
        <time>2019-09-03T22:26:25Z</time>
      </trkpt>
      <trkpt lat="45.74632" lon="6.57422">
        <ele>1198</ele>
        <time>2019-09-03T22:26:28Z</time>
      </trkpt>
      <trkpt lat="45.74636" lon="6.57425">
        <ele>1198</ele>
        <time>2019-09-03T22:26:29Z</time>
      </trkpt>
      <trkpt lat="45.74648" lon="6.57452">
        <ele>1195</ele>
        <time>2019-09-03T22:26:33Z</time>
      </trkpt>
      <trkpt lat="45.7467" lon="6.57482">
        <ele>1194</ele>
        <time>2019-09-03T22:26:38Z</time>
      </trkpt>
      <trkpt lat="45.74703" lon="6.57505">
        <ele>1198</ele>
        <time>2019-09-03T22:26:45Z</time>
      </trkpt>
      <trkpt lat="45.74748" lon="6.57532">
        <ele>1205</ele>
        <time>2019-09-03T22:26:53Z</time>
      </trkpt>
      <trkpt lat="45.74784" lon="6.57548">
        <ele>1211</ele>
        <time>2019-09-03T22:27:00Z</time>
      </trkpt>
      <trkpt lat="45.74829" lon="6.5756">
        <ele>1218</ele>
        <time>2019-09-03T22:27:08Z</time>
      </trkpt>
      <trkpt lat="45.7485" lon="6.57572">
        <ele>1220</ele>
        <time>2019-09-03T22:27:12Z</time>
      </trkpt>
      <trkpt lat="45.74872" lon="6.57598">
        <ele>1218</ele>
        <time>2019-09-03T22:27:17Z</time>
      </trkpt>
      <trkpt lat="45.74895" lon="6.57615">
        <ele>1218</ele>
        <time>2019-09-03T22:27:22Z</time>
      </trkpt>
      <trkpt lat="45.7492" lon="6.57627">
        <ele>1221</ele>
        <time>2019-09-03T22:27:27Z</time>
      </trkpt>
      <trkpt lat="45.74977" lon="6.57646">
        <ele>1226</ele>
        <time>2019-09-03T22:27:37Z</time>
      </trkpt>
      <trkpt lat="45.75003" lon="6.5766">
        <ele>1227</ele>
        <time>2019-09-03T22:27:42Z</time>
      </trkpt>
      <trkpt lat="45.75052" lon="6.57675">
        <ele>1233</ele>
        <time>2019-09-03T22:27:51Z</time>
      </trkpt>
      <trkpt lat="45.75098" lon="6.57678">
        <ele>1243</ele>
        <time>2019-09-03T22:27:59Z</time>
      </trkpt>
      <trkpt lat="45.75114" lon="6.57691">
        <ele>1245</ele>
        <time>2019-09-03T22:28:02Z</time>
      </trkpt>
      <trkpt lat="45.75126" lon="6.5771">
        <ele>1244</ele>
        <time>2019-09-03T22:28:06Z</time>
      </trkpt>
      <trkpt lat="45.75136" lon="6.57745">
        <ele>1239</ele>
        <time>2019-09-03T22:28:10Z</time>
      </trkpt>
      <trkpt lat="45.75147" lon="6.57766">
        <ele>1239</ele>
        <time>2019-09-03T22:28:14Z</time>
      </trkpt>
      <trkpt lat="45.75161" lon="6.57779">
        <ele>1241</ele>
        <time>2019-09-03T22:28:17Z</time>
      </trkpt>
      <trkpt lat="45.75184" lon="6.57789">
        <ele>1247</ele>
        <time>2019-09-03T22:28:21Z</time>
      </trkpt>
      <trkpt lat="45.75189" lon="6.57786">
        <ele>1249</ele>
        <time>2019-09-03T22:28:22Z</time>
      </trkpt>
      <trkpt lat="45.75192" lon="6.57779">
        <ele>1252</ele>
        <time>2019-09-03T22:28:23Z</time>
      </trkpt>
      <trkpt lat="45.75192" lon="6.57773">
        <ele>1253</ele>
        <time>2019-09-03T22:28:24Z</time>
      </trkpt>
      <trkpt lat="45.75189" lon="6.57765">
        <ele>1253</ele>
        <time>2019-09-03T22:28:25Z</time>
      </trkpt>
      <trkpt lat="45.75179" lon="6.57759">
        <ele>1251</ele>
        <time>2019-09-03T22:28:27Z</time>
      </trkpt>
      <trkpt lat="45.75173" lon="6.57758">
        <ele>1249</ele>
        <time>2019-09-03T22:28:28Z</time>
      </trkpt>
      <trkpt lat="45.75167" lon="6.57753">
        <ele>1248</ele>
        <time>2019-09-03T22:28:29Z</time>
      </trkpt>
      <trkpt lat="45.75162" lon="6.57744">
        <ele>1248</ele>
        <time>2019-09-03T22:28:30Z</time>
      </trkpt>
      <trkpt lat="45.75157" lon="6.57709">
        <ele>1253</ele>
        <time>2019-09-03T22:28:35Z</time>
      </trkpt>
      <trkpt lat="45.75156" lon="6.57687">
        <ele>1258</ele>
        <time>2019-09-03T22:28:38Z</time>
      </trkpt>
      <trkpt lat="45.7515" lon="6.57673">
        <ele>1259</ele>
        <time>2019-09-03T22:28:40Z</time>
      </trkpt>
      <trkpt lat="45.75101" lon="6.57605">
        <ele>1266</ele>
        <time>2019-09-03T22:28:52Z</time>
      </trkpt>
      <trkpt lat="45.75091" lon="6.57599">
        <ele>1266</ele>
        <time>2019-09-03T22:28:54Z</time>
      </trkpt>
      <trkpt lat="45.75065" lon="6.57593">
        <ele>1261</ele>
        <time>2019-09-03T22:28:58Z</time>
      </trkpt>
      <trkpt lat="45.75035" lon="6.57562">
        <ele>1264</ele>
        <time>2019-09-03T22:29:05Z</time>
      </trkpt>
      <trkpt lat="45.75008" lon="6.57509">
        <ele>1276</ele>
        <time>2019-09-03T22:29:13Z</time>
      </trkpt>
      <trkpt lat="45.74965" lon="6.57483">
        <ele>1277</ele>
        <time>2019-09-03T22:29:21Z</time>
      </trkpt>
      <trkpt lat="45.74944" lon="6.57447">
        <ele>1290</ele>
        <time>2019-09-03T22:29:27Z</time>
      </trkpt>
      <trkpt lat="45.74877" lon="6.57376">
        <ele>1301</ele>
        <time>2019-09-03T22:29:42Z</time>
      </trkpt>
      <trkpt lat="45.74818" lon="6.5731">
        <ele>1304</ele>
        <time>2019-09-03T22:29:55Z</time>
      </trkpt>
      <trkpt lat="45.74793" lon="6.57279">
        <ele>1307</ele>
        <time>2019-09-03T22:30:01Z</time>
      </trkpt>
      <trkpt lat="45.74776" lon="6.57252">
        <ele>1310</ele>
        <time>2019-09-03T22:30:06Z</time>
      </trkpt>
      <trkpt lat="45.74758" lon="6.57209">
        <ele>1321</ele>
        <time>2019-09-03T22:30:12Z</time>
      </trkpt>
      <trkpt lat="45.74752" lon="6.57199">
        <ele>1322</ele>
        <time>2019-09-03T22:30:14Z</time>
      </trkpt>
      <trkpt lat="45.7474" lon="6.57187">
        <ele>1324</ele>
        <time>2019-09-03T22:30:16Z</time>
      </trkpt>
      <trkpt lat="45.74714" lon="6.57172">
        <ele>1324</ele>
        <time>2019-09-03T22:30:21Z</time>
      </trkpt>
      <trkpt lat="45.74665" lon="6.5713">
        <ele>1325</ele>
        <time>2019-09-03T22:30:31Z</time>
      </trkpt>
      <trkpt lat="45.7461" lon="6.57089">
        <ele>1327</ele>
        <time>2019-09-03T22:30:42Z</time>
      </trkpt>
      <trkpt lat="45.74522" lon="6.57029">
        <ele>1324</ele>
        <time>2019-09-03T22:31:00Z</time>
      </trkpt>
      <trkpt lat="45.74495" lon="6.56999">
        <ele>1326</ele>
        <time>2019-09-03T22:31:06Z</time>
      </trkpt>
      <trkpt lat="45.74481" lon="6.56977">
        <ele>1326</ele>
        <time>2019-09-03T22:31:09Z</time>
      </trkpt>
      <trkpt lat="45.74455" lon="6.5693">
        <ele>1328</ele>
        <time>2019-09-03T22:31:17Z</time>
      </trkpt>
      <trkpt lat="45.74451" lon="6.56901">
        <ele>1332</ele>
        <time>2019-09-03T22:31:21Z</time>
      </trkpt>
      <trkpt lat="45.74464" lon="6.56833">
        <ele>1343</ele>
        <time>2019-09-03T22:31:29Z</time>
      </trkpt>
      <trkpt lat="45.74462" lon="6.56812">
        <ele>1345</ele>
        <time>2019-09-03T22:31:32Z</time>
      </trkpt>
      <trkpt lat="45.74457" lon="6.5679">
        <ele>1345</ele>
        <time>2019-09-03T22:31:35Z</time>
      </trkpt>
      <trkpt lat="45.74441" lon="6.56755">
        <ele>1347</ele>
        <time>2019-09-03T22:31:40Z</time>
      </trkpt>
      <trkpt lat="45.74421" lon="6.56722">
        <ele>1349</ele>
        <time>2019-09-03T22:31:45Z</time>
      </trkpt>
      <trkpt lat="45.744" lon="6.56698">
        <ele>1348</ele>
        <time>2019-09-03T22:31:50Z</time>
      </trkpt>
      <trkpt lat="45.74371" lon="6.56654">
        <ele>1348</ele>
        <time>2019-09-03T22:31:58Z</time>
      </trkpt>
      <trkpt lat="45.74341" lon="6.56579">
        <ele>1354</ele>
        <time>2019-09-03T22:32:09Z</time>
      </trkpt>
      <trkpt lat="45.74308" lon="6.56515">
        <ele>1360</ele>
        <time>2019-09-03T22:32:18Z</time>
      </trkpt>
      <trkpt lat="45.74278" lon="6.56451">
        <ele>1365</ele>
        <time>2019-09-03T22:32:28Z</time>
      </trkpt>
      <trkpt lat="45.74264" lon="6.56417">
        <ele>1368</ele>
        <time>2019-09-03T22:32:33Z</time>
      </trkpt>
      <trkpt lat="45.74262" lon="6.5639">
        <ele>1368</ele>
        <time>2019-09-03T22:32:36Z</time>
      </trkpt>
      <trkpt lat="45.74267" lon="6.56371">
        <ele>1369</ele>
        <time>2019-09-03T22:32:39Z</time>
      </trkpt>
      <trkpt lat="45.74274" lon="6.56361">
        <ele>1370</ele>
        <time>2019-09-03T22:32:41Z</time>
      </trkpt>
      <trkpt lat="45.74311" lon="6.56333">
        <ele>1373</ele>
        <time>2019-09-03T22:32:48Z</time>
      </trkpt>
      <trkpt lat="45.74323" lon="6.56321">
        <ele>1376</ele>
        <time>2019-09-03T22:32:51Z</time>
      </trkpt>
      <trkpt lat="45.74333" lon="6.56308">
        <ele>1378</ele>
        <time>2019-09-03T22:32:53Z</time>
      </trkpt>
      <trkpt lat="45.74336" lon="6.56293">
        <ele>1381</ele>
        <time>2019-09-03T22:32:55Z</time>
      </trkpt>
      <trkpt lat="45.74335" lon="6.56281">
        <ele>1382</ele>
        <time>2019-09-03T22:32:56Z</time>
      </trkpt>
      <trkpt lat="45.74329" lon="6.5625">
        <ele>1384</ele>
        <time>2019-09-03T22:33:00Z</time>
      </trkpt>
      <trkpt lat="45.74301" lon="6.56157">
        <ele>1384</ele>
        <time>2019-09-03T22:33:13Z</time>
      </trkpt>
      <trkpt lat="45.74297" lon="6.56105">
        <ele>1390</ele>
        <time>2019-09-03T22:33:19Z</time>
      </trkpt>
      <trkpt lat="45.7429" lon="6.56073">
        <ele>1392</ele>
        <time>2019-09-03T22:33:24Z</time>
      </trkpt>
      <trkpt lat="45.7427" lon="6.56038">
        <ele>1393</ele>
        <time>2019-09-03T22:33:29Z</time>
      </trkpt>
      <trkpt lat="45.7425" lon="6.56015">
        <ele>1392</ele>
        <time>2019-09-03T22:33:34Z</time>
      </trkpt>
      <trkpt lat="45.74225" lon="6.55977">
        <ele>1395</ele>
        <time>2019-09-03T22:33:40Z</time>
      </trkpt>
      <trkpt lat="45.74208" lon="6.55933">
        <ele>1399</ele>
        <time>2019-09-03T22:33:47Z</time>
      </trkpt>
      <trkpt lat="45.74208" lon="6.55902">
        <ele>1402</ele>
        <time>2019-09-03T22:33:50Z</time>
      </trkpt>
      <trkpt lat="45.74203" lon="6.55875">
        <ele>1404</ele>
        <time>2019-09-03T22:33:54Z</time>
      </trkpt>
      <trkpt lat="45.742" lon="6.55839">
        <ele>1407</ele>
        <time>2019-09-03T22:33:58Z</time>
      </trkpt>
      <trkpt lat="45.74178" lon="6.55787">
        <ele>1408</ele>
        <time>2019-09-03T22:34:06Z</time>
      </trkpt>
      <trkpt lat="45.74172" lon="6.55762">
        <ele>1408</ele>
        <time>2019-09-03T22:34:09Z</time>
      </trkpt>
      <trkpt lat="45.74164" lon="6.55673">
        <ele>1417</ele>
        <time>2019-09-03T22:34:20Z</time>
      </trkpt>
      <trkpt lat="45.74156" lon="6.55647">
        <ele>1418</ele>
        <time>2019-09-03T22:34:24Z</time>
      </trkpt>
      <trkpt lat="45.74156" lon="6.55637">
        <ele>1419</ele>
        <time>2019-09-03T22:34:25Z</time>
      </trkpt>
      <trkpt lat="45.74161" lon="6.55632">
        <ele>1420</ele>
        <time>2019-09-03T22:34:26Z</time>
      </trkpt>
      <trkpt lat="45.74167" lon="6.55633">
        <ele>1421</ele>
        <time>2019-09-03T22:34:27Z</time>
      </trkpt>
      <trkpt lat="45.74171" lon="6.55639">
        <ele>1422</ele>
        <time>2019-09-03T22:34:28Z</time>
      </trkpt>
      <trkpt lat="45.74195" lon="6.5571">
        <ele>1421</ele>
        <time>2019-09-03T22:34:38Z</time>
      </trkpt>
      <trkpt lat="45.74213" lon="6.5574">
        <ele>1421</ele>
        <time>2019-09-03T22:34:43Z</time>
      </trkpt>
      <trkpt lat="45.74258" lon="6.5577">
        <ele>1427</ele>
        <time>2019-09-03T22:34:52Z</time>
      </trkpt>
      <trkpt lat="45.74279" lon="6.55796">
        <ele>1429</ele>
        <time>2019-09-03T22:34:57Z</time>
      </trkpt>
      <trkpt lat="45.74299" lon="6.55802">
        <ele>1432</ele>
        <time>2019-09-03T22:35:00Z</time>
      </trkpt>
      <trkpt lat="45.74336" lon="6.55808">
        <ele>1440</ele>
        <time>2019-09-03T22:35:07Z</time>
      </trkpt>
      <trkpt lat="45.74362" lon="6.55818">
        <ele>1444</ele>
        <time>2019-09-03T22:35:12Z</time>
      </trkpt>
      <trkpt lat="45.74369" lon="6.55824">
        <ele>1445</ele>
        <time>2019-09-03T22:35:13Z</time>
      </trkpt>
      <trkpt lat="45.744" lon="6.55919">
        <ele>1439</ele>
        <time>2019-09-03T22:35:26Z</time>
      </trkpt>
      <trkpt lat="45.74408" lon="6.55933">
        <ele>1439</ele>
        <time>2019-09-03T22:35:29Z</time>
      </trkpt>
      <trkpt lat="45.74415" lon="6.55937">
        <ele>1440</ele>
        <time>2019-09-03T22:35:30Z</time>
      </trkpt>
      <trkpt lat="45.7442" lon="6.55935">
        <ele>1441</ele>
        <time>2019-09-03T22:35:31Z</time>
      </trkpt>
      <trkpt lat="45.74423" lon="6.55923">
        <ele>1443</ele>
        <time>2019-09-03T22:35:32Z</time>
      </trkpt>
      <trkpt lat="45.7442" lon="6.55916">
        <ele>1444</ele>
        <time>2019-09-03T22:35:33Z</time>
      </trkpt>
      <trkpt lat="45.7441" lon="6.55903">
        <ele>1443</ele>
        <time>2019-09-03T22:35:36Z</time>
      </trkpt>
      <trkpt lat="45.74402" lon="6.55889">
        <ele>1444</ele>
        <time>2019-09-03T22:35:38Z</time>
      </trkpt>
      <trkpt lat="45.74398" lon="6.55865">
        <ele>1446</ele>
        <time>2019-09-03T22:35:41Z</time>
      </trkpt>
      <trkpt lat="45.744" lon="6.55812">
        <ele>1454</ele>
        <time>2019-09-03T22:35:48Z</time>
      </trkpt>
      <trkpt lat="45.74396" lon="6.55792">
        <ele>1457</ele>
        <time>2019-09-03T22:35:50Z</time>
      </trkpt>
      <trkpt lat="45.74369" lon="6.55748">
        <ele>1457</ele>
        <time>2019-09-03T22:35:58Z</time>
      </trkpt>
      <trkpt lat="45.7436" lon="6.55708">
        <ele>1462</ele>
        <time>2019-09-03T22:36:03Z</time>
      </trkpt>
      <trkpt lat="45.74349" lon="6.55684">
        <ele>1464</ele>
        <time>2019-09-03T22:36:06Z</time>
      </trkpt>
      <trkpt lat="45.74333" lon="6.55662">
        <ele>1463</ele>
        <time>2019-09-03T22:36:10Z</time>
      </trkpt>
      <trkpt lat="45.74322" lon="6.55639">
        <ele>1464</ele>
        <time>2019-09-03T22:36:14Z</time>
      </trkpt>
      <trkpt lat="45.74316" lon="6.5557">
        <ele>1469</ele>
        <time>2019-09-03T22:36:22Z</time>
      </trkpt>
      <trkpt lat="45.7431" lon="6.55526">
        <ele>1471</ele>
        <time>2019-09-03T22:36:28Z</time>
      </trkpt>
      <trkpt lat="45.74297" lon="6.55484">
        <ele>1471</ele>
        <time>2019-09-03T22:36:34Z</time>
      </trkpt>
      <trkpt lat="45.74294" lon="6.55448">
        <ele>1472</ele>
        <time>2019-09-03T22:36:38Z</time>
      </trkpt>
      <trkpt lat="45.74314" lon="6.55332">
        <ele>1482</ele>
        <time>2019-09-03T22:36:53Z</time>
      </trkpt>
      <trkpt lat="45.74315" lon="6.55297">
        <ele>1485</ele>
        <time>2019-09-03T22:36:57Z</time>
      </trkpt>
      <trkpt lat="45.74297" lon="6.55216">
        <ele>1487</ele>
        <time>2019-09-03T22:37:08Z</time>
      </trkpt>
      <trkpt lat="45.74291" lon="6.55179">
        <ele>1488</ele>
        <time>2019-09-03T22:37:13Z</time>
      </trkpt>
      <trkpt lat="45.74304" lon="6.55106">
        <ele>1492</ele>
        <time>2019-09-03T22:37:22Z</time>
      </trkpt>
      <trkpt lat="45.74315" lon="6.5508">
        <ele>1494</ele>
        <time>2019-09-03T22:37:26Z</time>
      </trkpt>
      <trkpt lat="45.74424" lon="6.54944">
        <ele>1515</ele>
        <time>2019-09-03T22:37:52Z</time>
      </trkpt>
      <trkpt lat="45.74445" lon="6.54924">
        <ele>1515</ele>
        <time>2019-09-03T22:37:56Z</time>
      </trkpt>
      <trkpt lat="45.74459" lon="6.5492">
        <ele>1516</ele>
        <time>2019-09-03T22:37:59Z</time>
      </trkpt>
      <trkpt lat="45.74486" lon="6.54925">
        <ele>1516</ele>
        <time>2019-09-03T22:38:03Z</time>
      </trkpt>
      <trkpt lat="45.7452" lon="6.54956">
        <ele>1519</ele>
        <time>2019-09-03T22:38:11Z</time>
      </trkpt>
      <trkpt lat="45.74532" lon="6.54954">
        <ele>1520</ele>
        <time>2019-09-03T22:38:13Z</time>
      </trkpt>
      <trkpt lat="45.74564" lon="6.54936">
        <ele>1522</ele>
        <time>2019-09-03T22:38:19Z</time>
      </trkpt>
      <trkpt lat="45.74613" lon="6.54915">
        <ele>1525</ele>
        <time>2019-09-03T22:38:28Z</time>
      </trkpt>
      <trkpt lat="45.74658" lon="6.54904">
        <ele>1527</ele>
        <time>2019-09-03T22:38:36Z</time>
      </trkpt>
      <trkpt lat="45.74696" lon="6.54899">
        <ele>1532</ele>
        <time>2019-09-03T22:38:43Z</time>
      </trkpt>
      <trkpt lat="45.74724" lon="6.5487">
        <ele>1536</ele>
        <time>2019-09-03T22:38:49Z</time>
      </trkpt>
      <trkpt lat="45.74738" lon="6.54839">
        <ele>1538</ele>
        <time>2019-09-03T22:38:54Z</time>
      </trkpt>
      <trkpt lat="45.74742" lon="6.54803">
        <ele>1538</ele>
        <time>2019-09-03T22:38:58Z</time>
      </trkpt>
      <trkpt lat="45.74751" lon="6.54778">
        <ele>1539</ele>
        <time>2019-09-03T22:39:02Z</time>
      </trkpt>
      <trkpt lat="45.74767" lon="6.5476">
        <ele>1541</ele>
        <time>2019-09-03T22:39:05Z</time>
      </trkpt>
      <trkpt lat="45.74788" lon="6.54749">
        <ele>1543</ele>
        <time>2019-09-03T22:39:09Z</time>
      </trkpt>
      <trkpt lat="45.74811" lon="6.54745">
        <ele>1546</ele>
        <time>2019-09-03T22:39:13Z</time>
      </trkpt>
      <trkpt lat="45.74845" lon="6.54764">
        <ele>1550</ele>
        <time>2019-09-03T22:39:20Z</time>
      </trkpt>
      <trkpt lat="45.74867" lon="6.5477">
        <ele>1552</ele>
        <time>2019-09-03T22:39:24Z</time>
      </trkpt>
      <trkpt lat="45.74956" lon="6.54744">
        <ele>1558</ele>
        <time>2019-09-03T22:39:40Z</time>
      </trkpt>
      <trkpt lat="45.75033" lon="6.54731">
        <ele>1565</ele>
        <time>2019-09-03T22:39:54Z</time>
      </trkpt>
      <trkpt lat="45.75106" lon="6.54708">
        <ele>1569</ele>
        <time>2019-09-03T22:40:07Z</time>
      </trkpt>
      <trkpt lat="45.75277" lon="6.54638">
        <ele>1582</ele>
        <time>2019-09-03T22:40:39Z</time>
      </trkpt>
      <trkpt lat="45.75305" lon="6.54636">
        <ele>1585</ele>
        <time>2019-09-03T22:40:44Z</time>
      </trkpt>
      <trkpt lat="45.75363" lon="6.54597">
        <ele>1587</ele>
        <time>2019-09-03T22:40:55Z</time>
      </trkpt>
      <trkpt lat="45.75391" lon="6.54586">
        <ele>1588</ele>
        <time>2019-09-03T22:41:00Z</time>
      </trkpt>
      <trkpt lat="45.7542" lon="6.54593">
        <ele>1593</ele>
        <time>2019-09-03T22:41:05Z</time>
      </trkpt>
      <trkpt lat="45.75444" lon="6.54588">
        <ele>1598</ele>
        <time>2019-09-03T22:41:10Z</time>
      </trkpt>
      <trkpt lat="45.75477" lon="6.54559">
        <ele>1602</ele>
        <time>2019-09-03T22:41:17Z</time>
      </trkpt>
      <trkpt lat="45.75497" lon="6.54538">
        <ele>1604</ele>
        <time>2019-09-03T22:41:21Z</time>
      </trkpt>
      <trkpt lat="45.75518" lon="6.54498">
        <ele>1605</ele>
        <time>2019-09-03T22:41:27Z</time>
      </trkpt>
      <trkpt lat="45.75553" lon="6.54396">
        <ele>1608</ele>
        <time>2019-09-03T22:41:41Z</time>
      </trkpt>
      <trkpt lat="45.75599" lon="6.54271">
        <ele>1616</ele>
        <time>2019-09-03T22:41:59Z</time>
      </trkpt>
      <trkpt lat="45.75613" lon="6.54229">
        <ele>1619</ele>
        <time>2019-09-03T22:42:05Z</time>
      </trkpt>
      <trkpt lat="45.75629" lon="6.54143">
        <ele>1623</ele>
        <time>2019-09-03T22:42:16Z</time>
      </trkpt>
      <trkpt lat="45.75644" lon="6.54092">
        <ele>1625</ele>
        <time>2019-09-03T22:42:23Z</time>
      </trkpt>
      <trkpt lat="45.75647" lon="6.54093">
        <ele>1626</ele>
        <time>2019-09-03T22:42:23Z</time>
      </trkpt>
      <trkpt lat="45.75652" lon="6.5409">
        <ele>1627</ele>
        <time>2019-09-03T22:42:24Z</time>
      </trkpt>
      <trkpt lat="45.75653" lon="6.54083">
        <ele>1627</ele>
        <time>2019-09-03T22:42:25Z</time>
      </trkpt>
      <trkpt lat="45.7565" lon="6.54075">
        <ele>1626</ele>
        <time>2019-09-03T22:42:26Z</time>
      </trkpt>
      <trkpt lat="45.75692" lon="6.53992">
        <ele>1632</ele>
        <time>2019-09-03T22:42:39Z</time>
      </trkpt>
      <trkpt lat="45.75715" lon="6.53942">
        <ele>1635</ele>
        <time>2019-09-03T22:42:46Z</time>
      </trkpt>
      <trkpt lat="45.75719" lon="6.53944">
        <ele>1636</ele>
        <time>2019-09-03T22:42:47Z</time>
      </trkpt>
      <trkpt lat="45.75724" lon="6.53941">
        <ele>1637</ele>
        <time>2019-09-03T22:42:48Z</time>
      </trkpt>
      <trkpt lat="45.75726" lon="6.53935">
        <ele>1637</ele>
        <time>2019-09-03T22:42:49Z</time>
      </trkpt>
      <trkpt lat="45.75723" lon="6.53928">
        <ele>1636</ele>
        <time>2019-09-03T22:42:50Z</time>
      </trkpt>
      <trkpt lat="45.75732" lon="6.5391">
        <ele>1638</ele>
        <time>2019-09-03T22:42:53Z</time>
      </trkpt>
      <trkpt lat="45.75751" lon="6.53841">
        <ele>1641</ele>
        <time>2019-09-03T22:43:02Z</time>
      </trkpt>
      <trkpt lat="45.75788" lon="6.53749">
        <ele>1648</ele>
        <time>2019-09-03T22:43:15Z</time>
      </trkpt>
      <trkpt lat="45.75797" lon="6.53708">
        <ele>1649</ele>
        <time>2019-09-03T22:43:20Z</time>
      </trkpt>
      <trkpt lat="45.75805" lon="6.53683">
        <ele>1650</ele>
        <time>2019-09-03T22:43:24Z</time>
      </trkpt>
      <trkpt lat="45.75819" lon="6.53653">
        <ele>1651</ele>
        <time>2019-09-03T22:43:28Z</time>
      </trkpt>
      <trkpt lat="45.7583" lon="6.5362">
        <ele>1652</ele>
        <time>2019-09-03T22:43:33Z</time>
      </trkpt>
      <trkpt lat="45.75844" lon="6.53592">
        <ele>1653</ele>
        <time>2019-09-03T22:43:37Z</time>
      </trkpt>
      <trkpt lat="45.75878" lon="6.53551">
        <ele>1655</ele>
        <time>2019-09-03T22:43:45Z</time>
      </trkpt>
      <trkpt lat="45.75887" lon="6.53545">
        <ele>1656</ele>
        <time>2019-09-03T22:43:47Z</time>
      </trkpt>
      <trkpt lat="45.75939" lon="6.53438">
        <ele>1658</ele>
        <time>2019-09-03T22:44:03Z</time>
      </trkpt>
      <trkpt lat="45.75942" lon="6.53441">
        <ele>1658</ele>
        <time>2019-09-03T22:44:04Z</time>
      </trkpt>
      <trkpt lat="45.7595" lon="6.53443">
        <ele>1659</ele>
        <time>2019-09-03T22:44:05Z</time>
      </trkpt>
      <trkpt lat="45.75956" lon="6.53438">
        <ele>1659</ele>
        <time>2019-09-03T22:44:06Z</time>
      </trkpt>
      <trkpt lat="45.75959" lon="6.53428">
        <ele>1659</ele>
        <time>2019-09-03T22:44:08Z</time>
      </trkpt>
      <trkpt lat="45.75958" lon="6.53418">
        <ele>1659</ele>
        <time>2019-09-03T22:44:09Z</time>
      </trkpt>
      <trkpt lat="45.75956" lon="6.53414">
        <ele>1658</ele>
        <time>2019-09-03T22:44:09Z</time>
      </trkpt>
      <trkpt lat="45.75995" lon="6.53377">
        <ele>1659</ele>
        <time>2019-09-03T22:44:18Z</time>
      </trkpt>
      <trkpt lat="45.76031" lon="6.53357">
        <ele>1659</ele>
        <time>2019-09-03T22:44:25Z</time>
      </trkpt>
      <trkpt lat="45.76123" lon="6.53336">
        <ele>1658</ele>
        <time>2019-09-03T22:44:41Z</time>
      </trkpt>
      <trkpt lat="45.76177" lon="6.53333">
        <ele>1657</ele>
        <time>2019-09-03T22:44:51Z</time>
      </trkpt>
      <trkpt lat="45.76237" lon="6.53335">
        <ele>1656</ele>
        <time>2019-09-03T22:45:02Z</time>
      </trkpt>
      <trkpt lat="45.76283" lon="6.53347">
        <ele>1656</ele>
        <time>2019-09-03T22:45:10Z</time>
      </trkpt>
      <trkpt lat="45.76315" lon="6.53372">
        <ele>1658</ele>
        <time>2019-09-03T22:45:16Z</time>
      </trkpt>
      <trkpt lat="45.76316" lon="6.53383">
        <ele>1659</ele>
        <time>2019-09-03T22:45:18Z</time>
      </trkpt>
      <trkpt lat="45.7632" lon="6.53388">
        <ele>1659</ele>
        <time>2019-09-03T22:45:19Z</time>
      </trkpt>
      <trkpt lat="45.76327" lon="6.5339">
        <ele>1659</ele>
        <time>2019-09-03T22:45:20Z</time>
      </trkpt>
      <trkpt lat="45.76331" lon="6.53388">
        <ele>1659</ele>
        <time>2019-09-03T22:45:21Z</time>
      </trkpt>
      <trkpt lat="45.76335" lon="6.53382">
        <ele>1658</ele>
        <time>2019-09-03T22:45:22Z</time>
      </trkpt>
      <trkpt lat="45.76336" lon="6.53377">
        <ele>1658</ele>
        <time>2019-09-03T22:45:22Z</time>
      </trkpt>
      <trkpt lat="45.76346" lon="6.53387">
        <ele>1658</ele>
        <time>2019-09-03T22:45:25Z</time>
      </trkpt>
      <trkpt lat="45.76395" lon="6.53385">
        <ele>1658</ele>
        <time>2019-09-03T22:45:33Z</time>
      </trkpt>
      <trkpt lat="45.76505" lon="6.53346">
        <ele>1651</ele>
        <time>2019-09-03T22:45:53Z</time>
      </trkpt>
      <trkpt lat="45.76607" lon="6.53267">
        <ele>1644</ele>
        <time>2019-09-03T22:46:14Z</time>
      </trkpt>
      <trkpt lat="45.76664" lon="6.53241">
        <ele>1640</ele>
        <time>2019-09-03T22:46:25Z</time>
      </trkpt>
      <trkpt lat="45.76824" lon="6.53182">
        <ele>1628</ele>
        <time>2019-09-03T22:46:54Z</time>
      </trkpt>
      <trkpt lat="45.76844" lon="6.53181">
        <ele>1625</ele>
        <time>2019-09-03T22:46:58Z</time>
      </trkpt>
      <trkpt lat="45.76856" lon="6.53183">
        <ele>1624</ele>
        <time>2019-09-03T22:47:00Z</time>
      </trkpt>
      <trkpt lat="45.76873" lon="6.53189">
        <ele>1624</ele>
        <time>2019-09-03T22:47:03Z</time>
      </trkpt>
      <trkpt lat="45.76925" lon="6.53215">
        <ele>1625</ele>
        <time>2019-09-03T22:47:13Z</time>
      </trkpt>
      <trkpt lat="45.76971" lon="6.53264">
        <ele>1625</ele>
        <time>2019-09-03T22:47:23Z</time>
      </trkpt>
      <trkpt lat="45.77029" lon="6.5331">
        <ele>1614</ele>
        <time>2019-09-03T22:47:35Z</time>
      </trkpt>
      <trkpt lat="45.77049" lon="6.53345">
        <ele>1611</ele>
        <time>2019-09-03T22:47:40Z</time>
      </trkpt>
      <trkpt lat="45.77087" lon="6.53432">
        <ele>1607</ele>
        <time>2019-09-03T22:47:53Z</time>
      </trkpt>
      <trkpt lat="45.77097" lon="6.53451">
        <ele>1608</ele>
        <time>2019-09-03T22:47:56Z</time>
      </trkpt>
      <trkpt lat="45.77105" lon="6.53464">
        <ele>1608</ele>
        <time>2019-09-03T22:47:58Z</time>
      </trkpt>
      <trkpt lat="45.77148" lon="6.53514">
        <ele>1601</ele>
        <time>2019-09-03T22:48:08Z</time>
      </trkpt>
      <trkpt lat="45.77158" lon="6.53529">
        <ele>1600</ele>
        <time>2019-09-03T22:48:11Z</time>
      </trkpt>
      <trkpt lat="45.77202" lon="6.53611">
        <ele>1603</ele>
        <time>2019-09-03T22:48:23Z</time>
      </trkpt>
      <trkpt lat="45.77216" lon="6.5363">
        <ele>1604</ele>
        <time>2019-09-03T22:48:27Z</time>
      </trkpt>
      <trkpt lat="45.7723" lon="6.53642">
        <ele>1604</ele>
        <time>2019-09-03T22:48:30Z</time>
      </trkpt>
      <trkpt lat="45.77244" lon="6.53645">
        <ele>1604</ele>
        <time>2019-09-03T22:48:32Z</time>
      </trkpt>
      <trkpt lat="45.77251" lon="6.53644">
        <ele>1604</ele>
        <time>2019-09-03T22:48:34Z</time>
      </trkpt>
      <trkpt lat="45.7726" lon="6.53641">
        <ele>1605</ele>
        <time>2019-09-03T22:48:35Z</time>
      </trkpt>
      <trkpt lat="45.77313" lon="6.53631">
        <ele>1612</ele>
        <time>2019-09-03T22:48:45Z</time>
      </trkpt>
      <trkpt lat="45.77335" lon="6.5362">
        <ele>1614</ele>
        <time>2019-09-03T22:48:49Z</time>
      </trkpt>
      <trkpt lat="45.77349" lon="6.53609">
        <ele>1614</ele>
        <time>2019-09-03T22:48:52Z</time>
      </trkpt>
      <trkpt lat="45.77362" lon="6.53595">
        <ele>1614</ele>
        <time>2019-09-03T22:48:55Z</time>
      </trkpt>
      <trkpt lat="45.77386" lon="6.53564">
        <ele>1610</ele>
        <time>2019-09-03T22:49:00Z</time>
      </trkpt>
      <trkpt lat="45.77402" lon="6.53552">
        <ele>1608</ele>
        <time>2019-09-03T22:49:04Z</time>
      </trkpt>
      <trkpt lat="45.77423" lon="6.5355">
        <ele>1608</ele>
        <time>2019-09-03T22:49:07Z</time>
      </trkpt>
      <trkpt lat="45.77497" lon="6.53554">
        <ele>1607</ele>
        <time>2019-09-03T22:49:20Z</time>
      </trkpt>
      <trkpt lat="45.77528" lon="6.53563">
        <ele>1604</ele>
        <time>2019-09-03T22:49:26Z</time>
      </trkpt>
      <trkpt lat="45.77573" lon="6.53587">
        <ele>1603</ele>
        <time>2019-09-03T22:49:35Z</time>
      </trkpt>
      <trkpt lat="45.77594" lon="6.53601">
        <ele>1603</ele>
        <time>2019-09-03T22:49:39Z</time>
      </trkpt>
      <trkpt lat="45.77635" lon="6.53642">
        <ele>1606</ele>
        <time>2019-09-03T22:49:48Z</time>
      </trkpt>
      <trkpt lat="45.77647" lon="6.53649">
        <ele>1605</ele>
        <time>2019-09-03T22:49:50Z</time>
      </trkpt>
      <trkpt lat="45.77724" lon="6.53671">
        <ele>1593</ele>
        <time>2019-09-03T22:50:04Z</time>
      </trkpt>
      <trkpt lat="45.77795" lon="6.53698">
        <ele>1583</ele>
        <time>2019-09-03T22:50:17Z</time>
      </trkpt>
      <trkpt lat="45.7788" lon="6.5376">
        <ele>1572</ele>
        <time>2019-09-03T22:50:34Z</time>
      </trkpt>
      <trkpt lat="45.77899" lon="6.53775">
        <ele>1568</ele>
        <time>2019-09-03T22:50:38Z</time>
      </trkpt>
      <trkpt lat="45.77909" lon="6.53786">
        <ele>1566</ele>
        <time>2019-09-03T22:50:40Z</time>
      </trkpt>
      <trkpt lat="45.77944" lon="6.53844">
        <ele>1563</ele>
        <time>2019-09-03T22:50:50Z</time>
      </trkpt>
      <trkpt lat="45.77962" lon="6.53883">
        <ele>1559</ele>
        <time>2019-09-03T22:50:55Z</time>
      </trkpt>
      <trkpt lat="45.77983" lon="6.53935">
        <ele>1552</ele>
        <time>2019-09-03T22:51:03Z</time>
      </trkpt>
      <trkpt lat="45.78025" lon="6.54053">
        <ele>1543</ele>
        <time>2019-09-03T22:51:19Z</time>
      </trkpt>
      <trkpt lat="45.78049" lon="6.54137">
        <ele>1540</ele>
        <time>2019-09-03T22:51:31Z</time>
      </trkpt>
      <trkpt lat="45.78056" lon="6.54168">
        <ele>1539</ele>
        <time>2019-09-03T22:51:35Z</time>
      </trkpt>
      <trkpt lat="45.78063" lon="6.54217">
        <ele>1536</ele>
        <time>2019-09-03T22:51:41Z</time>
      </trkpt>
      <trkpt lat="45.78062" lon="6.54235">
        <ele>1536</ele>
        <time>2019-09-03T22:51:43Z</time>
      </trkpt>
      <trkpt lat="45.7806" lon="6.54245">
        <ele>1537</ele>
        <time>2019-09-03T22:51:44Z</time>
      </trkpt>
      <trkpt lat="45.78048" lon="6.54281">
        <ele>1542</ele>
        <time>2019-09-03T22:51:49Z</time>
      </trkpt>
      <trkpt lat="45.78047" lon="6.54311">
        <ele>1543</ele>
        <time>2019-09-03T22:51:53Z</time>
      </trkpt>
      <trkpt lat="45.78049" lon="6.5433">
        <ele>1542</ele>
        <time>2019-09-03T22:51:55Z</time>
      </trkpt>
      <trkpt lat="45.78053" lon="6.54336">
        <ele>1540</ele>
        <time>2019-09-03T22:51:56Z</time>
      </trkpt>
      <trkpt lat="45.7807" lon="6.54348">
        <ele>1535</ele>
        <time>2019-09-03T22:52:00Z</time>
      </trkpt>
      <trkpt lat="45.78089" lon="6.54356">
        <ele>1529</ele>
        <time>2019-09-03T22:52:03Z</time>
      </trkpt>
      <trkpt lat="45.7813" lon="6.54381">
        <ele>1524</ele>
        <time>2019-09-03T22:52:11Z</time>
      </trkpt>
      <trkpt lat="45.78141" lon="6.54394">
        <ele>1522</ele>
        <time>2019-09-03T22:52:14Z</time>
      </trkpt>
      <trkpt lat="45.7815" lon="6.54407">
        <ele>1521</ele>
        <time>2019-09-03T22:52:16Z</time>
      </trkpt>
      <trkpt lat="45.78164" lon="6.54435">
        <ele>1520</ele>
        <time>2019-09-03T22:52:20Z</time>
      </trkpt>
      <trkpt lat="45.78167" lon="6.54449">
        <ele>1520</ele>
        <time>2019-09-03T22:52:22Z</time>
      </trkpt>
      <trkpt lat="45.7817" lon="6.54472">
        <ele>1520</ele>
        <time>2019-09-03T22:52:25Z</time>
      </trkpt>
      <trkpt lat="45.78179" lon="6.5464">
        <ele>1511</ele>
        <time>2019-09-03T22:52:46Z</time>
      </trkpt>
      <trkpt lat="45.78174" lon="6.54701">
        <ele>1508</ele>
        <time>2019-09-03T22:52:54Z</time>
      </trkpt>
      <trkpt lat="45.78166" lon="6.54733">
        <ele>1507</ele>
        <time>2019-09-03T22:52:58Z</time>
      </trkpt>
      <trkpt lat="45.78155" lon="6.54765">
        <ele>1508</ele>
        <time>2019-09-03T22:53:02Z</time>
      </trkpt>
      <trkpt lat="45.78137" lon="6.54808">
        <ele>1507</ele>
        <time>2019-09-03T22:53:08Z</time>
      </trkpt>
      <trkpt lat="45.78125" lon="6.54828">
        <ele>1506</ele>
        <time>2019-09-03T22:53:12Z</time>
      </trkpt>
      <trkpt lat="45.78094" lon="6.54867">
        <ele>1500</ele>
        <time>2019-09-03T22:53:19Z</time>
      </trkpt>
      <trkpt lat="45.78061" lon="6.54914">
        <ele>1490</ele>
        <time>2019-09-03T22:53:27Z</time>
      </trkpt>
      <trkpt lat="45.78017" lon="6.54966">
        <ele>1495</ele>
        <time>2019-09-03T22:53:37Z</time>
      </trkpt>
      <trkpt lat="45.78003" lon="6.55015">
        <ele>1497</ele>
        <time>2019-09-03T22:53:44Z</time>
      </trkpt>
      <trkpt lat="45.78007" lon="6.55046">
        <ele>1496</ele>
        <time>2019-09-03T22:53:48Z</time>
      </trkpt>
      <trkpt lat="45.78023" lon="6.55091">
        <ele>1490</ele>
        <time>2019-09-03T22:53:54Z</time>
      </trkpt>
      <trkpt lat="45.78022" lon="6.55117">
        <ele>1489</ele>
        <time>2019-09-03T22:53:57Z</time>
      </trkpt>
      <trkpt lat="45.77982" lon="6.55301">
        <ele>1487</ele>
        <time>2019-09-03T22:54:21Z</time>
      </trkpt>
      <trkpt lat="45.7799" lon="6.55376">
        <ele>1475</ele>
        <time>2019-09-03T22:54:31Z</time>
      </trkpt>
      <trkpt lat="45.77968" lon="6.55545">
        <ele>1461</ele>
        <time>2019-09-03T22:54:52Z</time>
      </trkpt>
      <trkpt lat="45.7786" lon="6.55768">
        <ele>1455</ele>
        <time>2019-09-03T22:55:26Z</time>
      </trkpt>
      <trkpt lat="45.77842" lon="6.55843">
        <ele>1447</ele>
        <time>2019-09-03T22:55:36Z</time>
      </trkpt>
      <trkpt lat="45.77813" lon="6.55928">
        <ele>1440</ele>
        <time>2019-09-03T22:55:47Z</time>
      </trkpt>
      <trkpt lat="45.77815" lon="6.55946">
        <ele>1439</ele>
        <time>2019-09-03T22:55:50Z</time>
      </trkpt>
      <trkpt lat="45.77825" lon="6.55963">
        <ele>1436</ele>
        <time>2019-09-03T22:55:52Z</time>
      </trkpt>
      <trkpt lat="45.77842" lon="6.55983">
        <ele>1436</ele>
        <time>2019-09-03T22:55:56Z</time>
      </trkpt>
      <trkpt lat="45.77869" lon="6.55993">
        <ele>1440</ele>
        <time>2019-09-03T22:56:01Z</time>
      </trkpt>
      <trkpt lat="45.77897" lon="6.55987">
        <ele>1443</ele>
        <time>2019-09-03T22:56:06Z</time>
      </trkpt>
      <trkpt lat="45.77949" lon="6.55958">
        <ele>1444</ele>
        <time>2019-09-03T22:56:16Z</time>
      </trkpt>
      <trkpt lat="45.77993" lon="6.5591">
        <ele>1439</ele>
        <time>2019-09-03T22:56:26Z</time>
      </trkpt>
      <trkpt lat="45.78018" lon="6.55866">
        <ele>1439</ele>
        <time>2019-09-03T22:56:33Z</time>
      </trkpt>
      <trkpt lat="45.78042" lon="6.5582">
        <ele>1437</ele>
        <time>2019-09-03T22:56:40Z</time>
      </trkpt>
      <trkpt lat="45.78123" lon="6.55758">
        <ele>1447</ele>
        <time>2019-09-03T22:56:57Z</time>
      </trkpt>
      <trkpt lat="45.78159" lon="6.55665">
        <ele>1443</ele>
        <time>2019-09-03T22:57:10Z</time>
      </trkpt>
      <trkpt lat="45.78196" lon="6.55602">
        <ele>1450</ele>
        <time>2019-09-03T22:57:20Z</time>
      </trkpt>
      <trkpt lat="45.78229" lon="6.55508">
        <ele>1451</ele>
        <time>2019-09-03T22:57:33Z</time>
      </trkpt>
      <trkpt lat="45.78269" lon="6.55415">
        <ele>1452</ele>
        <time>2019-09-03T22:57:47Z</time>
      </trkpt>
      <trkpt lat="45.7831" lon="6.55358">
        <ele>1458</ele>
        <time>2019-09-03T22:57:57Z</time>
      </trkpt>
      <trkpt lat="45.78348" lon="6.55284">
        <ele>1455</ele>
        <time>2019-09-03T22:58:08Z</time>
      </trkpt>
      <trkpt lat="45.78406" lon="6.55193">
        <ele>1452</ele>
        <time>2019-09-03T22:58:23Z</time>
      </trkpt>
      <trkpt lat="45.78516" lon="6.55061">
        <ele>1464</ele>
        <time>2019-09-03T22:58:49Z</time>
      </trkpt>
      <trkpt lat="45.7856" lon="6.54954">
        <ele>1465</ele>
        <time>2019-09-03T22:59:04Z</time>
      </trkpt>
      <trkpt lat="45.78581" lon="6.54877">
        <ele>1459</ele>
        <time>2019-09-03T22:59:15Z</time>
      </trkpt>
      <trkpt lat="45.7866" lon="6.54733">
        <ele>1459</ele>
        <time>2019-09-03T22:59:37Z</time>
      </trkpt>
      <trkpt lat="45.787" lon="6.54708">
        <ele>1462</ele>
        <time>2019-09-03T22:59:45Z</time>
      </trkpt>
      <trkpt lat="45.7874" lon="6.54698">
        <ele>1467</ele>
        <time>2019-09-03T22:59:52Z</time>
      </trkpt>
      <trkpt lat="45.78869" lon="6.54693">
        <ele>1466</ele>
        <time>2019-09-03T23:00:15Z</time>
      </trkpt>
      <trkpt lat="45.78901" lon="6.54677">
        <ele>1464</ele>
        <time>2019-09-03T23:00:21Z</time>
      </trkpt>
      <trkpt lat="45.78925" lon="6.54656">
        <ele>1462</ele>
        <time>2019-09-03T23:00:26Z</time>
      </trkpt>
      <trkpt lat="45.7894" lon="6.5463">
        <ele>1461</ele>
        <time>2019-09-03T23:00:31Z</time>
      </trkpt>
      <trkpt lat="45.78972" lon="6.54564">
        <ele>1457</ele>
        <time>2019-09-03T23:00:41Z</time>
      </trkpt>
      <trkpt lat="45.78994" lon="6.54532">
        <ele>1455</ele>
        <time>2019-09-03T23:00:46Z</time>
      </trkpt>
      <trkpt lat="45.79028" lon="6.54496">
        <ele>1452</ele>
        <time>2019-09-03T23:00:54Z</time>
      </trkpt>
      <trkpt lat="45.79052" lon="6.54481">
        <ele>1450</ele>
        <time>2019-09-03T23:00:58Z</time>
      </trkpt>
      <trkpt lat="45.79142" lon="6.54449">
        <ele>1447</ele>
        <time>2019-09-03T23:01:15Z</time>
      </trkpt>
      <trkpt lat="45.79175" lon="6.54432">
        <ele>1444</ele>
        <time>2019-09-03T23:01:21Z</time>
      </trkpt>
      <trkpt lat="45.79226" lon="6.5439">
        <ele>1436</ele>
        <time>2019-09-03T23:01:32Z</time>
      </trkpt>
      <trkpt lat="45.79289" lon="6.54322">
        <ele>1426</ele>
        <time>2019-09-03T23:01:46Z</time>
      </trkpt>
      <trkpt lat="45.79337" lon="6.54304">
        <ele>1428</ele>
        <time>2019-09-03T23:01:54Z</time>
      </trkpt>
      <trkpt lat="45.7937" lon="6.54268">
        <ele>1425</ele>
        <time>2019-09-03T23:02:02Z</time>
      </trkpt>
      <trkpt lat="45.79421" lon="6.54242">
        <ele>1422</ele>
        <time>2019-09-03T23:02:11Z</time>
      </trkpt>
      <trkpt lat="45.79459" lon="6.54203">
        <ele>1412</ele>
        <time>2019-09-03T23:02:20Z</time>
      </trkpt>
      <trkpt lat="45.79531" lon="6.54159">
        <ele>1405</ele>
        <time>2019-09-03T23:02:34Z</time>
      </trkpt>
      <trkpt lat="45.79555" lon="6.54126">
        <ele>1402</ele>
        <time>2019-09-03T23:02:40Z</time>
      </trkpt>
      <trkpt lat="45.79579" lon="6.54099">
        <ele>1401</ele>
        <time>2019-09-03T23:02:45Z</time>
      </trkpt>
      <trkpt lat="45.79605" lon="6.54087">
        <ele>1400</ele>
        <time>2019-09-03T23:02:50Z</time>
      </trkpt>
      <trkpt lat="45.79656" lon="6.54088">
        <ele>1399</ele>
        <time>2019-09-03T23:02:59Z</time>
      </trkpt>
      <trkpt lat="45.797" lon="6.54117">
        <ele>1394</ele>
        <time>2019-09-03T23:03:08Z</time>
      </trkpt>
      <trkpt lat="45.79743" lon="6.54151">
        <ele>1388</ele>
        <time>2019-09-03T23:03:16Z</time>
      </trkpt>
      <trkpt lat="45.79754" lon="6.54178">
        <ele>1387</ele>
        <time>2019-09-03T23:03:20Z</time>
      </trkpt>
      <trkpt lat="45.79764" lon="6.54215">
        <ele>1385</ele>
        <time>2019-09-03T23:03:25Z</time>
      </trkpt>
      <trkpt lat="45.79777" lon="6.54235">
        <ele>1382</ele>
        <time>2019-09-03T23:03:28Z</time>
      </trkpt>
      <trkpt lat="45.79873" lon="6.54334">
        <ele>1369</ele>
        <time>2019-09-03T23:03:49Z</time>
      </trkpt>
      <trkpt lat="45.79968" lon="6.54444">
        <ele>1357</ele>
        <time>2019-09-03T23:04:11Z</time>
      </trkpt>
      <trkpt lat="45.80017" lon="6.54504">
        <ele>1351</ele>
        <time>2019-09-03T23:04:23Z</time>
      </trkpt>
      <trkpt lat="45.80064" lon="6.54576">
        <ele>1347</ele>
        <time>2019-09-03T23:04:35Z</time>
      </trkpt>
      <trkpt lat="45.80088" lon="6.54623">
        <ele>1344</ele>
        <time>2019-09-03T23:04:42Z</time>
      </trkpt>
      <trkpt lat="45.80112" lon="6.54663">
        <ele>1342</ele>
        <time>2019-09-03T23:04:49Z</time>
      </trkpt>
      <trkpt lat="45.80176" lon="6.54727">
        <ele>1333</ele>
        <time>2019-09-03T23:05:03Z</time>
      </trkpt>
      <trkpt lat="45.8022" lon="6.54783">
        <ele>1329</ele>
        <time>2019-09-03T23:05:13Z</time>
      </trkpt>
      <trkpt lat="45.80313" lon="6.54878">
        <ele>1320</ele>
        <time>2019-09-03T23:05:33Z</time>
      </trkpt>
      <trkpt lat="45.80349" lon="6.54925">
        <ele>1317</ele>
        <time>2019-09-03T23:05:42Z</time>
      </trkpt>
      <trkpt lat="45.80356" lon="6.54935">
        <ele>1317</ele>
        <time>2019-09-03T23:05:44Z</time>
      </trkpt>
      <trkpt lat="45.80369" lon="6.54964">
        <ele>1316</ele>
        <time>2019-09-03T23:05:48Z</time>
      </trkpt>
      <trkpt lat="45.80374" lon="6.54985">
        <ele>1316</ele>
        <time>2019-09-03T23:05:51Z</time>
      </trkpt>
      <trkpt lat="45.80379" lon="6.55021">
        <ele>1317</ele>
        <time>2019-09-03T23:05:55Z</time>
      </trkpt>
      <trkpt lat="45.80385" lon="6.55035">
        <ele>1317</ele>
        <time>2019-09-03T23:05:57Z</time>
      </trkpt>
      <trkpt lat="45.80393" lon="6.55043">
        <ele>1316</ele>
        <time>2019-09-03T23:05:59Z</time>
      </trkpt>
      <trkpt lat="45.80401" lon="6.55047">
        <ele>1315</ele>
        <time>2019-09-03T23:06:01Z</time>
      </trkpt>
      <trkpt lat="45.80415" lon="6.55045">
        <ele>1313</ele>
        <time>2019-09-03T23:06:03Z</time>
      </trkpt>
      <trkpt lat="45.80424" lon="6.55039">
        <ele>1313</ele>
        <time>2019-09-03T23:06:05Z</time>
      </trkpt>
      <trkpt lat="45.80432" lon="6.55029">
        <ele>1313</ele>
        <time>2019-09-03T23:06:07Z</time>
      </trkpt>
      <trkpt lat="45.80436" lon="6.55015">
        <ele>1314</ele>
        <time>2019-09-03T23:06:09Z</time>
      </trkpt>
      <trkpt lat="45.80438" lon="6.54999">
        <ele>1314</ele>
        <time>2019-09-03T23:06:11Z</time>
      </trkpt>
      <trkpt lat="45.80433" lon="6.54949">
        <ele>1311</ele>
        <time>2019-09-03T23:06:17Z</time>
      </trkpt>
      <trkpt lat="45.80435" lon="6.54916">
        <ele>1310</ele>
        <time>2019-09-03T23:06:21Z</time>
      </trkpt>
      <trkpt lat="45.80442" lon="6.54897">
        <ele>1309</ele>
        <time>2019-09-03T23:06:24Z</time>
      </trkpt>
      <trkpt lat="45.80456" lon="6.54874">
        <ele>1308</ele>
        <time>2019-09-03T23:06:27Z</time>
      </trkpt>
      <trkpt lat="45.80467" lon="6.54852">
        <ele>1307</ele>
        <time>2019-09-03T23:06:31Z</time>
      </trkpt>
      <trkpt lat="45.80469" lon="6.54836">
        <ele>1305</ele>
        <time>2019-09-03T23:06:33Z</time>
      </trkpt>
      <trkpt lat="45.80471" lon="6.54798">
        <ele>1302</ele>
        <time>2019-09-03T23:06:38Z</time>
      </trkpt>
      <trkpt lat="45.80474" lon="6.54782">
        <ele>1300</ele>
        <time>2019-09-03T23:06:40Z</time>
      </trkpt>
      <trkpt lat="45.8048" lon="6.54768">
        <ele>1299</ele>
        <time>2019-09-03T23:06:42Z</time>
      </trkpt>
      <trkpt lat="45.80485" lon="6.54762">
        <ele>1299</ele>
        <time>2019-09-03T23:06:43Z</time>
      </trkpt>
      <trkpt lat="45.80494" lon="6.54753">
        <ele>1298</ele>
        <time>2019-09-03T23:06:45Z</time>
      </trkpt>
      <trkpt lat="45.80517" lon="6.54738">
        <ele>1299</ele>
        <time>2019-09-03T23:06:49Z</time>
      </trkpt>
      <trkpt lat="45.80527" lon="6.54725">
        <ele>1300</ele>
        <time>2019-09-03T23:06:52Z</time>
      </trkpt>
      <trkpt lat="45.80534" lon="6.54701">
        <ele>1301</ele>
        <time>2019-09-03T23:06:55Z</time>
      </trkpt>
      <trkpt lat="45.80536" lon="6.54679">
        <ele>1301</ele>
        <time>2019-09-03T23:06:58Z</time>
      </trkpt>
      <trkpt lat="45.80534" lon="6.54623">
        <ele>1303</ele>
        <time>2019-09-03T23:07:05Z</time>
      </trkpt>
      <trkpt lat="45.8053" lon="6.54601">
        <ele>1304</ele>
        <time>2019-09-03T23:07:07Z</time>
      </trkpt>
      <trkpt lat="45.80521" lon="6.54577">
        <ele>1302</ele>
        <time>2019-09-03T23:07:11Z</time>
      </trkpt>
      <trkpt lat="45.8051" lon="6.54554">
        <ele>1300</ele>
        <time>2019-09-03T23:07:14Z</time>
      </trkpt>
      <trkpt lat="45.80505" lon="6.54537">
        <ele>1299</ele>
        <time>2019-09-03T23:07:17Z</time>
      </trkpt>
      <trkpt lat="45.80486" lon="6.54336">
        <ele>1303</ele>
        <time>2019-09-03T23:07:42Z</time>
      </trkpt>
      <trkpt lat="45.80479" lon="6.54299">
        <ele>1303</ele>
        <time>2019-09-03T23:07:46Z</time>
      </trkpt>
      <trkpt lat="45.8044" lon="6.54123">
        <ele>1296</ele>
        <time>2019-09-03T23:08:09Z</time>
      </trkpt>
      <trkpt lat="45.80435" lon="6.54094">
        <ele>1294</ele>
        <time>2019-09-03T23:08:13Z</time>
      </trkpt>
      <trkpt lat="45.80433" lon="6.54059">
        <ele>1291</ele>
        <time>2019-09-03T23:08:17Z</time>
      </trkpt>
      <trkpt lat="45.80436" lon="6.5403">
        <ele>1289</ele>
        <time>2019-09-03T23:08:21Z</time>
      </trkpt>
      <trkpt lat="45.80459" lon="6.53916">
        <ele>1282</ele>
        <time>2019-09-03T23:08:36Z</time>
      </trkpt>
      <trkpt lat="45.80464" lon="6.53903">
        <ele>1282</ele>
        <time>2019-09-03T23:08:38Z</time>
      </trkpt>
      <trkpt lat="45.805" lon="6.53836">
        <ele>1287</ele>
        <time>2019-09-03T23:08:48Z</time>
      </trkpt>
      <trkpt lat="45.80505" lon="6.53819">
        <ele>1289</ele>
        <time>2019-09-03T23:08:50Z</time>
      </trkpt>
      <trkpt lat="45.80497" lon="6.53765">
        <ele>1282</ele>
        <time>2019-09-03T23:08:57Z</time>
      </trkpt>
      <trkpt lat="45.80503" lon="6.5373">
        <ele>1284</ele>
        <time>2019-09-03T23:09:02Z</time>
      </trkpt>
      <trkpt lat="45.80503" lon="6.53708">
        <ele>1284</ele>
        <time>2019-09-03T23:09:04Z</time>
      </trkpt>
      <trkpt lat="45.80497" lon="6.53691">
        <ele>1281</ele>
        <time>2019-09-03T23:09:07Z</time>
      </trkpt>
      <trkpt lat="45.80482" lon="6.53664">
        <ele>1273</ele>
        <time>2019-09-03T23:09:11Z</time>
      </trkpt>
      <trkpt lat="45.80476" lon="6.53648">
        <ele>1271</ele>
        <time>2019-09-03T23:09:13Z</time>
      </trkpt>
      <trkpt lat="45.80472" lon="6.53602">
        <ele>1272</ele>
        <time>2019-09-03T23:09:19Z</time>
      </trkpt>
      <trkpt lat="45.80468" lon="6.53588">
        <ele>1271</ele>
        <time>2019-09-03T23:09:21Z</time>
      </trkpt>
      <trkpt lat="45.80456" lon="6.53558">
        <ele>1268</ele>
        <time>2019-09-03T23:09:25Z</time>
      </trkpt>
      <trkpt lat="45.80442" lon="6.53535">
        <ele>1265</ele>
        <time>2019-09-03T23:09:29Z</time>
      </trkpt>
      <trkpt lat="45.80437" lon="6.53521">
        <ele>1265</ele>
        <time>2019-09-03T23:09:31Z</time>
      </trkpt>
      <trkpt lat="45.80436" lon="6.53512">
        <ele>1266</ele>
        <time>2019-09-03T23:09:32Z</time>
      </trkpt>
      <trkpt lat="45.8044" lon="6.53396">
        <ele>1265</ele>
        <time>2019-09-03T23:09:47Z</time>
      </trkpt>
      <trkpt lat="45.80462" lon="6.53234">
        <ele>1259</ele>
        <time>2019-09-03T23:10:07Z</time>
      </trkpt>
      <trkpt lat="45.80461" lon="6.53172">
        <ele>1254</ele>
        <time>2019-09-03T23:10:15Z</time>
      </trkpt>
      <trkpt lat="45.80453" lon="6.53098">
        <ele>1248</ele>
        <time>2019-09-03T23:10:24Z</time>
      </trkpt>
      <trkpt lat="45.80456" lon="6.53078">
        <ele>1247</ele>
        <time>2019-09-03T23:10:27Z</time>
      </trkpt>
      <trkpt lat="45.80462" lon="6.53065">
        <ele>1246</ele>
        <time>2019-09-03T23:10:29Z</time>
      </trkpt>
      <trkpt lat="45.80473" lon="6.53052">
        <ele>1246</ele>
        <time>2019-09-03T23:10:31Z</time>
      </trkpt>
      <trkpt lat="45.80497" lon="6.53032">
        <ele>1245</ele>
        <time>2019-09-03T23:10:36Z</time>
      </trkpt>
      <trkpt lat="45.80504" lon="6.53024">
        <ele>1245</ele>
        <time>2019-09-03T23:10:38Z</time>
      </trkpt>
      <trkpt lat="45.80532" lon="6.52979">
        <ele>1240</ele>
        <time>2019-09-03T23:10:45Z</time>
      </trkpt>
      <trkpt lat="45.80559" lon="6.5293">
        <ele>1235</ele>
        <time>2019-09-03T23:10:53Z</time>
      </trkpt>
      <trkpt lat="45.8057" lon="6.52907">
        <ele>1234</ele>
        <time>2019-09-03T23:10:56Z</time>
      </trkpt>
      <trkpt lat="45.8058" lon="6.52864">
        <ele>1228</ele>
        <time>2019-09-03T23:11:02Z</time>
      </trkpt>
      <trkpt lat="45.80584" lon="6.52855">
        <ele>1228</ele>
        <time>2019-09-03T23:11:03Z</time>
      </trkpt>
      <trkpt lat="45.80619" lon="6.52798">
        <ele>1229</ele>
        <time>2019-09-03T23:11:13Z</time>
      </trkpt>
      <trkpt lat="45.80649" lon="6.52734">
        <ele>1226</ele>
        <time>2019-09-03T23:11:22Z</time>
      </trkpt>
      <trkpt lat="45.80659" lon="6.52705">
        <ele>1223</ele>
        <time>2019-09-03T23:11:26Z</time>
      </trkpt>
      <trkpt lat="45.80667" lon="6.52663">
        <ele>1217</ele>
        <time>2019-09-03T23:11:32Z</time>
      </trkpt>
      <trkpt lat="45.80685" lon="6.5262">
        <ele>1215</ele>
        <time>2019-09-03T23:11:38Z</time>
      </trkpt>
      <trkpt lat="45.80698" lon="6.52565">
        <ele>1207</ele>
        <time>2019-09-03T23:11:45Z</time>
      </trkpt>
      <trkpt lat="45.80705" lon="6.5255">
        <ele>1206</ele>
        <time>2019-09-03T23:11:47Z</time>
      </trkpt>
      <trkpt lat="45.8075" lon="6.52485">
        <ele>1202</ele>
        <time>2019-09-03T23:11:59Z</time>
      </trkpt>
      <trkpt lat="45.80783" lon="6.52462">
        <ele>1201</ele>
        <time>2019-09-03T23:12:05Z</time>
      </trkpt>
      <trkpt lat="45.80803" lon="6.52444">
        <ele>1198</ele>
        <time>2019-09-03T23:12:09Z</time>
      </trkpt>
      <trkpt lat="45.8083" lon="6.52414">
        <ele>1193</ele>
        <time>2019-09-03T23:12:15Z</time>
      </trkpt>
      <trkpt lat="45.80842" lon="6.52396">
        <ele>1192</ele>
        <time>2019-09-03T23:12:19Z</time>
      </trkpt>
      <trkpt lat="45.80871" lon="6.52343">
        <ele>1187</ele>
        <time>2019-09-03T23:12:27Z</time>
      </trkpt>
      <trkpt lat="45.80883" lon="6.52315">
        <ele>1184</ele>
        <time>2019-09-03T23:12:31Z</time>
      </trkpt>
      <trkpt lat="45.8089" lon="6.52289">
        <ele>1183</ele>
        <time>2019-09-03T23:12:34Z</time>
      </trkpt>
      <trkpt lat="45.80904" lon="6.52208">
        <ele>1176</ele>
        <time>2019-09-03T23:12:45Z</time>
      </trkpt>
      <trkpt lat="45.8091" lon="6.52183">
        <ele>1175</ele>
        <time>2019-09-03T23:12:48Z</time>
      </trkpt>
      <trkpt lat="45.80918" lon="6.52172">
        <ele>1174</ele>
        <time>2019-09-03T23:12:50Z</time>
      </trkpt>
      <trkpt lat="45.80928" lon="6.52167">
        <ele>1173</ele>
        <time>2019-09-03T23:12:52Z</time>
      </trkpt>
      <trkpt lat="45.80944" lon="6.52164">
        <ele>1171</ele>
        <time>2019-09-03T23:12:55Z</time>
      </trkpt>
      <trkpt lat="45.80951" lon="6.52155">
        <ele>1169</ele>
        <time>2019-09-03T23:12:56Z</time>
      </trkpt>
      <trkpt lat="45.80952" lon="6.52145">
        <ele>1168</ele>
        <time>2019-09-03T23:12:58Z</time>
      </trkpt>
      <trkpt lat="45.80949" lon="6.52137">
        <ele>1167</ele>
        <time>2019-09-03T23:12:59Z</time>
      </trkpt>
      <trkpt lat="45.80943" lon="6.52127">
        <ele>1166</ele>
        <time>2019-09-03T23:13:00Z</time>
      </trkpt>
      <trkpt lat="45.80878" lon="6.52067">
        <ele>1158</ele>
        <time>2019-09-03T23:13:14Z</time>
      </trkpt>
      <trkpt lat="45.80872" lon="6.52064">
        <ele>1157</ele>
        <time>2019-09-03T23:13:15Z</time>
      </trkpt>
      <trkpt lat="45.8086" lon="6.52061">
        <ele>1156</ele>
        <time>2019-09-03T23:13:18Z</time>
      </trkpt>
      <trkpt lat="45.80826" lon="6.52069">
        <ele>1155</ele>
        <time>2019-09-03T23:13:24Z</time>
      </trkpt>
      <trkpt lat="45.80819" lon="6.52063">
        <ele>1152</ele>
        <time>2019-09-03T23:13:25Z</time>
      </trkpt>
      <trkpt lat="45.80818" lon="6.52058">
        <ele>1152</ele>
        <time>2019-09-03T23:13:26Z</time>
      </trkpt>
      <trkpt lat="45.80818" lon="6.52049">
        <ele>1151</ele>
        <time>2019-09-03T23:13:27Z</time>
      </trkpt>
      <trkpt lat="45.80823" lon="6.52042">
        <ele>1151</ele>
        <time>2019-09-03T23:13:28Z</time>
      </trkpt>
      <trkpt lat="45.80838" lon="6.52031">
        <ele>1152</ele>
        <time>2019-09-03T23:13:31Z</time>
      </trkpt>
      <trkpt lat="45.80864" lon="6.52006">
        <ele>1149</ele>
        <time>2019-09-03T23:13:37Z</time>
      </trkpt>
      <trkpt lat="45.80885" lon="6.51995">
        <ele>1147</ele>
        <time>2019-09-03T23:13:41Z</time>
      </trkpt>
      <trkpt lat="45.80905" lon="6.51993">
        <ele>1146</ele>
        <time>2019-09-03T23:13:44Z</time>
      </trkpt>
      <trkpt lat="45.80946" lon="6.52008">
        <ele>1148</ele>
        <time>2019-09-03T23:13:52Z</time>
      </trkpt>
      <trkpt lat="45.80959" lon="6.5201">
        <ele>1149</ele>
        <time>2019-09-03T23:13:54Z</time>
      </trkpt>
      <trkpt lat="45.80967" lon="6.52005">
        <ele>1148</ele>
        <time>2019-09-03T23:13:56Z</time>
      </trkpt>
      <trkpt lat="45.80971" lon="6.51997">
        <ele>1147</ele>
        <time>2019-09-03T23:13:57Z</time>
      </trkpt>
      <trkpt lat="45.80972" lon="6.51991">
        <ele>1147</ele>
        <time>2019-09-03T23:13:58Z</time>
      </trkpt>
      <trkpt lat="45.80972" lon="6.5198">
        <ele>1146</ele>
        <time>2019-09-03T23:13:59Z</time>
      </trkpt>
      <trkpt lat="45.80967" lon="6.51966">
        <ele>1145</ele>
        <time>2019-09-03T23:14:01Z</time>
      </trkpt>
      <trkpt lat="45.80869" lon="6.51831">
        <ele>1132</ele>
        <time>2019-09-03T23:14:25Z</time>
      </trkpt>
      <trkpt lat="45.80852" lon="6.51805">
        <ele>1131</ele>
        <time>2019-09-03T23:14:30Z</time>
      </trkpt>
      <trkpt lat="45.80797" lon="6.51734">
        <ele>1125</ele>
        <time>2019-09-03T23:14:43Z</time>
      </trkpt>
      <trkpt lat="45.8079" lon="6.51716">
        <ele>1124</ele>
        <time>2019-09-03T23:14:45Z</time>
      </trkpt>
      <trkpt lat="45.80789" lon="6.51704">
        <ele>1123</ele>
        <time>2019-09-03T23:14:47Z</time>
      </trkpt>
      <trkpt lat="45.80792" lon="6.51692">
        <ele>1123</ele>
        <time>2019-09-03T23:14:48Z</time>
      </trkpt>
      <trkpt lat="45.80799" lon="6.51681">
        <ele>1123</ele>
        <time>2019-09-03T23:14:50Z</time>
      </trkpt>
      <trkpt lat="45.80837" lon="6.51648">
        <ele>1122</ele>
        <time>2019-09-03T23:14:58Z</time>
      </trkpt>
      <trkpt lat="45.80921" lon="6.51585">
        <ele>1116</ele>
        <time>2019-09-03T23:15:15Z</time>
      </trkpt>
      <trkpt lat="45.80927" lon="6.51584">
        <ele>1115</ele>
        <time>2019-09-03T23:15:16Z</time>
      </trkpt>
      <trkpt lat="45.8094" lon="6.51586">
        <ele>1115</ele>
        <time>2019-09-03T23:15:18Z</time>
      </trkpt>
      <trkpt lat="45.80971" lon="6.51599">
        <ele>1114</ele>
        <time>2019-09-03T23:15:24Z</time>
      </trkpt>
      <trkpt lat="45.8098" lon="6.516">
        <ele>1114</ele>
        <time>2019-09-03T23:15:26Z</time>
      </trkpt>
      <trkpt lat="45.80996" lon="6.51596">
        <ele>1112</ele>
        <time>2019-09-03T23:15:29Z</time>
      </trkpt>
      <trkpt lat="45.81004" lon="6.51592">
        <ele>1111</ele>
        <time>2019-09-03T23:15:30Z</time>
      </trkpt>
      <trkpt lat="45.81014" lon="6.51582">
        <ele>1109</ele>
        <time>2019-09-03T23:15:32Z</time>
      </trkpt>
      <trkpt lat="45.81041" lon="6.5155">
        <ele>1105</ele>
        <time>2019-09-03T23:15:38Z</time>
      </trkpt>
      <trkpt lat="45.81057" lon="6.51542">
        <ele>1104</ele>
        <time>2019-09-03T23:15:41Z</time>
      </trkpt>
      <trkpt lat="45.81066" lon="6.51541">
        <ele>1104</ele>
        <time>2019-09-03T23:15:43Z</time>
      </trkpt>
      <trkpt lat="45.81086" lon="6.51544">
        <ele>1103</ele>
        <time>2019-09-03T23:15:47Z</time>
      </trkpt>
      <trkpt lat="45.81138" lon="6.51566">
        <ele>1100</ele>
        <time>2019-09-03T23:15:56Z</time>
      </trkpt>
      <trkpt lat="45.81255" lon="6.51651">
        <ele>1098</ele>
        <time>2019-09-03T23:16:20Z</time>
      </trkpt>
      <trkpt lat="45.81304" lon="6.51702">
        <ele>1093</ele>
        <time>2019-09-03T23:16:30Z</time>
      </trkpt>
      <trkpt lat="45.81326" lon="6.51732">
        <ele>1094</ele>
        <time>2019-09-03T23:16:36Z</time>
      </trkpt>
      <trkpt lat="45.81349" lon="6.51755">
        <ele>1092</ele>
        <time>2019-09-03T23:16:41Z</time>
      </trkpt>
      <trkpt lat="45.81398" lon="6.51816">
        <ele>1087</ele>
        <time>2019-09-03T23:16:52Z</time>
      </trkpt>
      <trkpt lat="45.81439" lon="6.51892">
        <ele>1088</ele>
        <time>2019-09-03T23:17:04Z</time>
      </trkpt>
      <trkpt lat="45.81513" lon="6.52011">
        <ele>1085</ele>
        <time>2019-09-03T23:17:24Z</time>
      </trkpt>
      <trkpt lat="45.81589" lon="6.52142">
        <ele>1069</ele>
        <time>2019-09-03T23:17:45Z</time>
      </trkpt>
      <trkpt lat="45.81616" lon="6.52206">
        <ele>1065</ele>
        <time>2019-09-03T23:17:54Z</time>
      </trkpt>
      <trkpt lat="45.81634" lon="6.52274">
        <ele>1064</ele>
        <time>2019-09-03T23:18:03Z</time>
      </trkpt>
      <trkpt lat="45.81651" lon="6.52351">
        <ele>1061</ele>
        <time>2019-09-03T23:18:14Z</time>
      </trkpt>
      <trkpt lat="45.81664" lon="6.52343">
        <ele>1057</ele>
        <time>2019-09-03T23:18:16Z</time>
      </trkpt>
      <trkpt lat="45.81669" lon="6.52337">
        <ele>1055</ele>
        <time>2019-09-03T23:18:17Z</time>
      </trkpt>
      <trkpt lat="45.81672" lon="6.52327">
        <ele>1054</ele>
        <time>2019-09-03T23:18:19Z</time>
      </trkpt>
      <trkpt lat="45.81672" lon="6.52308">
        <ele>1053</ele>
        <time>2019-09-03T23:18:21Z</time>
      </trkpt>
      <trkpt lat="45.81669" lon="6.52288">
        <ele>1053</ele>
        <time>2019-09-03T23:18:23Z</time>
      </trkpt>
      <trkpt lat="45.81663" lon="6.52261">
        <ele>1054</ele>
        <time>2019-09-03T23:18:27Z</time>
      </trkpt>
      <trkpt lat="45.81626" lon="6.52133">
        <ele>1050</ele>
        <time>2019-09-03T23:18:44Z</time>
      </trkpt>
      <trkpt lat="45.8161" lon="6.52096">
        <ele>1053</ele>
        <time>2019-09-03T23:18:50Z</time>
      </trkpt>
      <trkpt lat="45.81595" lon="6.52068">
        <ele>1055</ele>
        <time>2019-09-03T23:18:54Z</time>
      </trkpt>
      <trkpt lat="45.81586" lon="6.52009">
        <ele>1048</ele>
        <time>2019-09-03T23:19:01Z</time>
      </trkpt>
      <trkpt lat="45.81577" lon="6.51982">
        <ele>1047</ele>
        <time>2019-09-03T23:19:05Z</time>
      </trkpt>
      <trkpt lat="45.8151" lon="6.51853">
        <ele>1055</ele>
        <time>2019-09-03T23:19:25Z</time>
      </trkpt>
      <trkpt lat="45.81494" lon="6.51812">
        <ele>1050</ele>
        <time>2019-09-03T23:19:31Z</time>
      </trkpt>
      <trkpt lat="45.81461" lon="6.51702">
        <ele>1032</ele>
        <time>2019-09-03T23:19:46Z</time>
      </trkpt>
      <trkpt lat="45.81353" lon="6.51427">
        <ele>1004</ele>
        <time>2019-09-03T23:20:25Z</time>
      </trkpt>
      <trkpt lat="45.81343" lon="6.51406">
        <ele>1003</ele>
        <time>2019-09-03T23:20:28Z</time>
      </trkpt>
      <trkpt lat="45.81335" lon="6.51395">
        <ele>1003</ele>
        <time>2019-09-03T23:20:30Z</time>
      </trkpt>
      <trkpt lat="45.81316" lon="6.5138">
        <ele>1005</ele>
        <time>2019-09-03T23:20:34Z</time>
      </trkpt>
      <trkpt lat="45.81288" lon="6.51362">
        <ele>1007</ele>
        <time>2019-09-03T23:20:39Z</time>
      </trkpt>
      <trkpt lat="45.81285" lon="6.51355">
        <ele>1006</ele>
        <time>2019-09-03T23:20:40Z</time>
      </trkpt>
      <trkpt lat="45.81285" lon="6.5134">
        <ele>1002</ele>
        <time>2019-09-03T23:20:42Z</time>
      </trkpt>
      <trkpt lat="45.81291" lon="6.51333">
        <ele>1000</ele>
        <time>2019-09-03T23:20:44Z</time>
      </trkpt>
      <trkpt lat="45.81295" lon="6.5133">
        <ele>998</ele>
        <time>2019-09-03T23:20:44Z</time>
      </trkpt>
      <trkpt lat="45.81307" lon="6.51336">
        <ele>997</ele>
        <time>2019-09-03T23:20:47Z</time>
      </trkpt>
      <trkpt lat="45.81349" lon="6.51382">
        <ele>996</ele>
        <time>2019-09-03T23:20:56Z</time>
      </trkpt>
      <trkpt lat="45.81382" lon="6.51408">
        <ele>991</ele>
        <time>2019-09-03T23:21:03Z</time>
      </trkpt>
      <trkpt lat="45.81456" lon="6.51488">
        <ele>982</ele>
        <time>2019-09-03T23:21:19Z</time>
      </trkpt>
      <trkpt lat="45.81489" lon="6.51537">
        <ele>983</ele>
        <time>2019-09-03T23:21:28Z</time>
      </trkpt>
      <trkpt lat="45.81542" lon="6.51579">
        <ele>972</ele>
        <time>2019-09-03T23:21:38Z</time>
      </trkpt>
      <trkpt lat="45.81573" lon="6.51599">
        <ele>963</ele>
        <time>2019-09-03T23:21:45Z</time>
      </trkpt>
      <trkpt lat="45.816" lon="6.51634">
        <ele>959</ele>
        <time>2019-09-03T23:21:51Z</time>
      </trkpt>
      <trkpt lat="45.8162" lon="6.51642">
        <ele>955</ele>
        <time>2019-09-03T23:21:55Z</time>
      </trkpt>
      <trkpt lat="45.81636" lon="6.51655">
        <ele>953</ele>
        <time>2019-09-03T23:21:58Z</time>
      </trkpt>
      <trkpt lat="45.81658" lon="6.51694">
        <ele>953</ele>
        <time>2019-09-03T23:22:04Z</time>
      </trkpt>
      <trkpt lat="45.81669" lon="6.51708">
        <ele>951</ele>
        <time>2019-09-03T23:22:07Z</time>
      </trkpt>
      <trkpt lat="45.81692" lon="6.51729">
        <ele>949</ele>
        <time>2019-09-03T23:22:12Z</time>
      </trkpt>
      <trkpt lat="45.817" lon="6.51734">
        <ele>948</ele>
        <time>2019-09-03T23:22:13Z</time>
      </trkpt>
      <trkpt lat="45.81707" lon="6.51735">
        <ele>947</ele>
        <time>2019-09-03T23:22:14Z</time>
      </trkpt>
      <trkpt lat="45.81718" lon="6.5173">
        <ele>945</ele>
        <time>2019-09-03T23:22:16Z</time>
      </trkpt>
      <trkpt lat="45.81726" lon="6.51715">
        <ele>943</ele>
        <time>2019-09-03T23:22:19Z</time>
      </trkpt>
      <trkpt lat="45.81726" lon="6.51693">
        <ele>940</ele>
        <time>2019-09-03T23:22:22Z</time>
      </trkpt>
      <trkpt lat="45.81724" lon="6.51677">
        <ele>939</ele>
        <time>2019-09-03T23:22:24Z</time>
      </trkpt>
      <trkpt lat="45.81719" lon="6.51657">
        <ele>937</ele>
        <time>2019-09-03T23:22:26Z</time>
      </trkpt>
      <trkpt lat="45.81713" lon="6.51643">
        <ele>935</ele>
        <time>2019-09-03T23:22:28Z</time>
      </trkpt>
      <trkpt lat="45.81707" lon="6.51634">
        <ele>934</ele>
        <time>2019-09-03T23:22:30Z</time>
      </trkpt>
      <trkpt lat="45.817" lon="6.51629">
        <ele>934</ele>
        <time>2019-09-03T23:22:31Z</time>
      </trkpt>
      <trkpt lat="45.81687" lon="6.51629">
        <ele>937</ele>
        <time>2019-09-03T23:22:33Z</time>
      </trkpt>
      <trkpt lat="45.81673" lon="6.51636">
        <ele>941</ele>
        <time>2019-09-03T23:22:36Z</time>
      </trkpt>
      <trkpt lat="45.81666" lon="6.51636">
        <ele>943</ele>
        <time>2019-09-03T23:22:37Z</time>
      </trkpt>
      <trkpt lat="45.81659" lon="6.51627">
        <ele>942</ele>
        <time>2019-09-03T23:22:39Z</time>
      </trkpt>
      <trkpt lat="45.81658" lon="6.51621">
        <ele>941</ele>
        <time>2019-09-03T23:22:40Z</time>
      </trkpt>
      <trkpt lat="45.8166" lon="6.51616">
        <ele>940</ele>
        <time>2019-09-03T23:22:41Z</time>
      </trkpt>
      <trkpt lat="45.81664" lon="6.51613">
        <ele>938</ele>
        <time>2019-09-03T23:22:41Z</time>
      </trkpt>
      <trkpt lat="45.81688" lon="6.51612">
        <ele>933</ele>
        <time>2019-09-03T23:22:46Z</time>
      </trkpt>
      <trkpt lat="45.817" lon="6.51606">
        <ele>929</ele>
        <time>2019-09-03T23:22:48Z</time>
      </trkpt>
      <trkpt lat="45.81709" lon="6.51605">
        <ele>927</ele>
        <time>2019-09-03T23:22:49Z</time>
      </trkpt>
      <trkpt lat="45.81724" lon="6.51611">
        <ele>926</ele>
        <time>2019-09-03T23:22:52Z</time>
      </trkpt>
      <trkpt lat="45.81738" lon="6.51625">
        <ele>926</ele>
        <time>2019-09-03T23:22:55Z</time>
      </trkpt>
      <trkpt lat="45.81745" lon="6.51634">
        <ele>927</ele>
        <time>2019-09-03T23:22:57Z</time>
      </trkpt>
      <trkpt lat="45.81753" lon="6.51659">
        <ele>931</ele>
        <time>2019-09-03T23:23:00Z</time>
      </trkpt>
      <trkpt lat="45.81763" lon="6.51671">
        <ele>930</ele>
        <time>2019-09-03T23:23:03Z</time>
      </trkpt>
      <trkpt lat="45.81768" lon="6.51669">
        <ele>928</ele>
        <time>2019-09-03T23:23:04Z</time>
      </trkpt>
      <trkpt lat="45.81772" lon="6.51665">
        <ele>927</ele>
        <time>2019-09-03T23:23:04Z</time>
      </trkpt>
      <trkpt lat="45.81772" lon="6.51658">
        <ele>926</ele>
        <time>2019-09-03T23:23:05Z</time>
      </trkpt>
      <trkpt lat="45.8177" lon="6.51651">
        <ele>925</ele>
        <time>2019-09-03T23:23:06Z</time>
      </trkpt>
      <trkpt lat="45.81757" lon="6.51633">
        <ele>924</ele>
        <time>2019-09-03T23:23:09Z</time>
      </trkpt>
      <trkpt lat="45.81752" lon="6.51619">
        <ele>922</ele>
        <time>2019-09-03T23:23:11Z</time>
      </trkpt>
      <trkpt lat="45.81752" lon="6.51612">
        <ele>920</ele>
        <time>2019-09-03T23:23:12Z</time>
      </trkpt>
      <trkpt lat="45.81754" lon="6.51608">
        <ele>919</ele>
        <time>2019-09-03T23:23:13Z</time>
      </trkpt>
      <trkpt lat="45.8176" lon="6.51605">
        <ele>918</ele>
        <time>2019-09-03T23:23:14Z</time>
      </trkpt>
      <trkpt lat="45.81765" lon="6.51608">
        <ele>918</ele>
        <time>2019-09-03T23:23:15Z</time>
      </trkpt>
      <trkpt lat="45.81769" lon="6.51612">
        <ele>918</ele>
        <time>2019-09-03T23:23:16Z</time>
      </trkpt>
      <trkpt lat="45.81772" lon="6.51621">
        <ele>919</ele>
        <time>2019-09-03T23:23:17Z</time>
      </trkpt>
      <trkpt lat="45.81775" lon="6.51638">
        <ele>922</ele>
        <time>2019-09-03T23:23:19Z</time>
      </trkpt>
      <trkpt lat="45.81778" lon="6.51645">
        <ele>922</ele>
        <time>2019-09-03T23:23:20Z</time>
      </trkpt>
      <trkpt lat="45.81783" lon="6.51648">
        <ele>921</ele>
        <time>2019-09-03T23:23:21Z</time>
      </trkpt>
      <trkpt lat="45.81787" lon="6.51647">
        <ele>920</ele>
        <time>2019-09-03T23:23:22Z</time>
      </trkpt>
      <trkpt lat="45.8179" lon="6.51641">
        <ele>919</ele>
        <time>2019-09-03T23:23:23Z</time>
      </trkpt>
      <trkpt lat="45.8179" lon="6.51634">
        <ele>918</ele>
        <time>2019-09-03T23:23:24Z</time>
      </trkpt>
      <trkpt lat="45.81783" lon="6.51618">
        <ele>917</ele>
        <time>2019-09-03T23:23:26Z</time>
      </trkpt>
      <trkpt lat="45.81774" lon="6.51608">
        <ele>917</ele>
        <time>2019-09-03T23:23:28Z</time>
      </trkpt>
      <trkpt lat="45.81773" lon="6.516">
        <ele>915</ele>
        <time>2019-09-03T23:23:29Z</time>
      </trkpt>
      <trkpt lat="45.81774" lon="6.51594">
        <ele>914</ele>
        <time>2019-09-03T23:23:30Z</time>
      </trkpt>
      <trkpt lat="45.81777" lon="6.51589">
        <ele>913</ele>
        <time>2019-09-03T23:23:31Z</time>
      </trkpt>
      <trkpt lat="45.81781" lon="6.51589">
        <ele>913</ele>
        <time>2019-09-03T23:23:31Z</time>
      </trkpt>
      <trkpt lat="45.81785" lon="6.5159">
        <ele>912</ele>
        <time>2019-09-03T23:23:32Z</time>
      </trkpt>
      <trkpt lat="45.81791" lon="6.51605">
        <ele>914</ele>
        <time>2019-09-03T23:23:34Z</time>
      </trkpt>
      <trkpt lat="45.81795" lon="6.51619">
        <ele>915</ele>
        <time>2019-09-03T23:23:36Z</time>
      </trkpt>
      <trkpt lat="45.81798" lon="6.51641">
        <ele>917</ele>
        <time>2019-09-03T23:23:39Z</time>
      </trkpt>
      <trkpt lat="45.81801" lon="6.51647">
        <ele>917</ele>
        <time>2019-09-03T23:23:40Z</time>
      </trkpt>
      <trkpt lat="45.81805" lon="6.51648">
        <ele>917</ele>
        <time>2019-09-03T23:23:41Z</time>
      </trkpt>
      <trkpt lat="45.81845" lon="6.51638">
        <ele>911</ele>
        <time>2019-09-03T23:23:48Z</time>
      </trkpt>
      <trkpt lat="45.8185" lon="6.51636">
        <ele>911</ele>
        <time>2019-09-03T23:23:49Z</time>
      </trkpt>
      <trkpt lat="45.81856" lon="6.51631">
        <ele>911</ele>
        <time>2019-09-03T23:23:50Z</time>
      </trkpt>
      <trkpt lat="45.81894" lon="6.51619">
        <ele>912</ele>
        <time>2019-09-03T23:23:57Z</time>
      </trkpt>
      <trkpt lat="45.819" lon="6.51611">
        <ele>912</ele>
        <time>2019-09-03T23:23:58Z</time>
      </trkpt>
      <trkpt lat="45.81932" lon="6.51623">
        <ele>916</ele>
        <time>2019-09-03T23:24:04Z</time>
      </trkpt>
      <trkpt lat="45.81946" lon="6.51632">
        <ele>918</ele>
        <time>2019-09-03T23:24:07Z</time>
      </trkpt>
      <trkpt lat="45.81964" lon="6.51632">
        <ele>920</ele>
        <time>2019-09-03T23:24:10Z</time>
      </trkpt>
      <trkpt lat="45.81971" lon="6.51629">
        <ele>921</ele>
        <time>2019-09-03T23:24:12Z</time>
      </trkpt>
      <trkpt lat="45.81984" lon="6.51623">
        <ele>922</ele>
        <time>2019-09-03T23:24:14Z</time>
      </trkpt>
      <trkpt lat="45.81997" lon="6.51612">
        <ele>923</ele>
        <time>2019-09-03T23:24:17Z</time>
      </trkpt>
      <trkpt lat="45.82006" lon="6.516">
        <ele>924</ele>
        <time>2019-09-03T23:24:19Z</time>
      </trkpt>
      <trkpt lat="45.82014" lon="6.51586">
        <ele>925</ele>
        <time>2019-09-03T23:24:21Z</time>
      </trkpt>
      <trkpt lat="45.82029" lon="6.51546">
        <ele>925</ele>
        <time>2019-09-03T23:24:27Z</time>
      </trkpt>
      <trkpt lat="45.82041" lon="6.51525">
        <ele>926</ele>
        <time>2019-09-03T23:24:30Z</time>
      </trkpt>
      <trkpt lat="45.82064" lon="6.51496">
        <ele>928</ele>
        <time>2019-09-03T23:24:35Z</time>
      </trkpt>
      <trkpt lat="45.82105" lon="6.51462">
        <ele>932</ele>
        <time>2019-09-03T23:24:44Z</time>
      </trkpt>
      <trkpt lat="45.82145" lon="6.51443">
        <ele>941</ele>
        <time>2019-09-03T23:24:51Z</time>
      </trkpt>
      <trkpt lat="45.82153" lon="6.51437">
        <ele>943</ele>
        <time>2019-09-03T23:24:53Z</time>
      </trkpt>
      <trkpt lat="45.82184" lon="6.51395">
        <ele>948</ele>
        <time>2019-09-03T23:25:01Z</time>
      </trkpt>
      <trkpt lat="45.82198" lon="6.51373">
        <ele>951</ele>
        <time>2019-09-03T23:25:04Z</time>
      </trkpt>
      <trkpt lat="45.82226" lon="6.51323">
        <ele>956</ele>
        <time>2019-09-03T23:25:12Z</time>
      </trkpt>
      <trkpt lat="45.82232" lon="6.51309">
        <ele>957</ele>
        <time>2019-09-03T23:25:14Z</time>
      </trkpt>
      <trkpt lat="45.82242" lon="6.51255">
        <ele>951</ele>
        <time>2019-09-03T23:25:21Z</time>
      </trkpt>
      <trkpt lat="45.82248" lon="6.51238">
        <ele>950</ele>
        <time>2019-09-03T23:25:24Z</time>
      </trkpt>
      <trkpt lat="45.82277" lon="6.51191">
        <ele>946</ele>
        <time>2019-09-03T23:25:31Z</time>
      </trkpt>
      <trkpt lat="45.82282" lon="6.51187">
        <ele>946</ele>
        <time>2019-09-03T23:25:32Z</time>
      </trkpt>
      <trkpt lat="45.82295" lon="6.51182">
        <ele>947</ele>
        <time>2019-09-03T23:25:35Z</time>
      </trkpt>
      <trkpt lat="45.82305" lon="6.51184">
        <ele>950</ele>
        <time>2019-09-03T23:25:37Z</time>
      </trkpt>
      <trkpt lat="45.82311" lon="6.51188">
        <ele>953</ele>
        <time>2019-09-03T23:25:38Z</time>
      </trkpt>
      <trkpt lat="45.82318" lon="6.51197">
        <ele>958</ele>
        <time>2019-09-03T23:25:39Z</time>
      </trkpt>
      <trkpt lat="45.82363" lon="6.51275">
        <ele>990</ele>
        <time>2019-09-03T23:25:52Z</time>
      </trkpt>
      <trkpt lat="45.82368" lon="6.5128">
        <ele>991</ele>
        <time>2019-09-03T23:25:53Z</time>
      </trkpt>
      <trkpt lat="45.82374" lon="6.51282">
        <ele>992</ele>
        <time>2019-09-03T23:25:54Z</time>
      </trkpt>
      <trkpt lat="45.82384" lon="6.51277">
        <ele>991</ele>
        <time>2019-09-03T23:25:56Z</time>
      </trkpt>
      <trkpt lat="45.8239" lon="6.51265">
        <ele>988</ele>
        <time>2019-09-03T23:25:58Z</time>
      </trkpt>
      <trkpt lat="45.824" lon="6.51236">
        <ele>979</ele>
        <time>2019-09-03T23:26:02Z</time>
      </trkpt>
      <trkpt lat="45.82426" lon="6.51202">
        <ele>973</ele>
        <time>2019-09-03T23:26:08Z</time>
      </trkpt>
      <trkpt lat="45.8245" lon="6.51187">
        <ele>978</ele>
        <time>2019-09-03T23:26:13Z</time>
      </trkpt>
      <trkpt lat="45.82485" lon="6.51171">
        <ele>988</ele>
        <time>2019-09-03T23:26:19Z</time>
      </trkpt>
      <trkpt lat="45.82518" lon="6.51101">
        <ele>980</ele>
        <time>2019-09-03T23:26:30Z</time>
      </trkpt>
      <trkpt lat="45.82647" lon="6.51">
        <ele>983</ele>
        <time>2019-09-03T23:26:56Z</time>
      </trkpt>
      <trkpt lat="45.82659" lon="6.50997">
        <ele>986</ele>
        <time>2019-09-03T23:26:58Z</time>
      </trkpt>
      <trkpt lat="45.82672" lon="6.51002">
        <ele>993</ele>
        <time>2019-09-03T23:27:01Z</time>
      </trkpt>
      <trkpt lat="45.82693" lon="6.51017">
        <ele>1010</ele>
        <time>2019-09-03T23:27:05Z</time>
      </trkpt>
      <trkpt lat="45.82713" lon="6.51022">
        <ele>1020</ele>
        <time>2019-09-03T23:27:08Z</time>
      </trkpt>
      <trkpt lat="45.8278" lon="6.51022">
        <ele>1031</ele>
        <time>2019-09-03T23:27:20Z</time>
      </trkpt>
      <trkpt lat="45.82816" lon="6.51009">
        <ele>1019</ele>
        <time>2019-09-03T23:27:27Z</time>
      </trkpt>
      <trkpt lat="45.8283" lon="6.51007">
        <ele>1017</ele>
        <time>2019-09-03T23:27:29Z</time>
      </trkpt>
      <trkpt lat="45.82854" lon="6.51016">
        <ele>1030</ele>
        <time>2019-09-03T23:27:34Z</time>
      </trkpt>
      <trkpt lat="45.82879" lon="6.51015">
        <ele>1034</ele>
        <time>2019-09-03T23:27:38Z</time>
      </trkpt>
      <trkpt lat="45.82915" lon="6.51001">
        <ele>1031</ele>
        <time>2019-09-03T23:27:45Z</time>
      </trkpt>
      <trkpt lat="45.82949" lon="6.51001">
        <ele>1039</ele>
        <time>2019-09-03T23:27:51Z</time>
      </trkpt>
      <trkpt lat="45.82966" lon="6.50991">
        <ele>1035</ele>
        <time>2019-09-03T23:27:54Z</time>
      </trkpt>
      <trkpt lat="45.83" lon="6.50954">
        <ele>1019</ele>
        <time>2019-09-03T23:28:02Z</time>
      </trkpt>
      <trkpt lat="45.8305" lon="6.50916">
        <ele>1024</ele>
        <time>2019-09-03T23:28:12Z</time>
      </trkpt>
      <trkpt lat="45.83083" lon="6.50901">
        <ele>1033</ele>
        <time>2019-09-03T23:28:18Z</time>
      </trkpt>
      <trkpt lat="45.83119" lon="6.50851">
        <ele>1004</ele>
        <time>2019-09-03T23:28:27Z</time>
      </trkpt>
      <trkpt lat="45.83124" lon="6.50847">
        <ele>1003</ele>
        <time>2019-09-03T23:28:28Z</time>
      </trkpt>
      <trkpt lat="45.83137" lon="6.50846">
        <ele>1006</ele>
        <time>2019-09-03T23:28:30Z</time>
      </trkpt>
      <trkpt lat="45.83147" lon="6.5085">
        <ele>1012</ele>
        <time>2019-09-03T23:28:32Z</time>
      </trkpt>
      <trkpt lat="45.83168" lon="6.50871">
        <ele>1033</ele>
        <time>2019-09-03T23:28:37Z</time>
      </trkpt>
      <trkpt lat="45.83177" lon="6.50873">
        <ele>1034</ele>
        <time>2019-09-03T23:28:38Z</time>
      </trkpt>
      <trkpt lat="45.83188" lon="6.50868">
        <ele>1030</ele>
        <time>2019-09-03T23:28:40Z</time>
      </trkpt>
      <trkpt lat="45.8322" lon="6.50848">
        <ele>1014</ele>
        <time>2019-09-03T23:28:47Z</time>
      </trkpt>
      <trkpt lat="45.83235" lon="6.50844">
        <ele>1011</ele>
        <time>2019-09-03T23:28:49Z</time>
      </trkpt>
      <trkpt lat="45.83246" lon="6.50845">
        <ele>1011</ele>
        <time>2019-09-03T23:28:51Z</time>
      </trkpt>
      <trkpt lat="45.83256" lon="6.50852">
        <ele>1014</ele>
        <time>2019-09-03T23:28:53Z</time>
      </trkpt>
      <trkpt lat="45.83277" lon="6.50889">
        <ele>1032</ele>
        <time>2019-09-03T23:28:59Z</time>
      </trkpt>
      <trkpt lat="45.83287" lon="6.50892">
        <ele>1031</ele>
        <time>2019-09-03T23:29:01Z</time>
      </trkpt>
      <trkpt lat="45.83339" lon="6.50854">
        <ele>999</ele>
        <time>2019-09-03T23:29:11Z</time>
      </trkpt>
      <trkpt lat="45.83367" lon="6.50857">
        <ele>1000</ele>
        <time>2019-09-03T23:29:16Z</time>
      </trkpt>
      <trkpt lat="45.83391" lon="6.50866">
        <ele>1004</ele>
        <time>2019-09-03T23:29:21Z</time>
      </trkpt>
      <trkpt lat="45.83407" lon="6.50877">
        <ele>1009</ele>
        <time>2019-09-03T23:29:24Z</time>
      </trkpt>
      <trkpt lat="45.83413" lon="6.50886">
        <ele>1014</ele>
        <time>2019-09-03T23:29:25Z</time>
      </trkpt>
      <trkpt lat="45.83427" lon="6.50895">
        <ele>1019</ele>
        <time>2019-09-03T23:29:28Z</time>
      </trkpt>
      <trkpt lat="45.83437" lon="6.50882">
        <ele>1013</ele>
        <time>2019-09-03T23:29:31Z</time>
      </trkpt>
      <trkpt lat="45.83447" lon="6.50853">
        <ele>999</ele>
        <time>2019-09-03T23:29:35Z</time>
      </trkpt>
      <trkpt lat="45.83476" lon="6.50844">
        <ele>996</ele>
        <time>2019-09-03T23:29:40Z</time>
      </trkpt>
      <trkpt lat="45.83496" lon="6.50844">
        <ele>997</ele>
        <time>2019-09-03T23:29:43Z</time>
      </trkpt>
      <trkpt lat="45.83561" lon="6.50869">
        <ele>1012</ele>
        <time>2019-09-03T23:29:55Z</time>
      </trkpt>
      <trkpt lat="45.83604" lon="6.50862">
        <ele>1008</ele>
        <time>2019-09-03T23:30:03Z</time>
      </trkpt>
      <trkpt lat="45.8362" lon="6.50865">
        <ele>1010</ele>
        <time>2019-09-03T23:30:06Z</time>
      </trkpt>
      <trkpt lat="45.83646" lon="6.50884">
        <ele>1020</ele>
        <time>2019-09-03T23:30:11Z</time>
      </trkpt>
      <trkpt lat="45.83658" lon="6.50882">
        <ele>1019</ele>
        <time>2019-09-03T23:30:13Z</time>
      </trkpt>
      <trkpt lat="45.83665" lon="6.50851">
        <ele>1003</ele>
        <time>2019-09-03T23:30:17Z</time>
      </trkpt>
      <trkpt lat="45.83662" lon="6.50841">
        <ele>998</ele>
        <time>2019-09-03T23:30:19Z</time>
      </trkpt>
      <trkpt lat="45.83663" lon="6.50832">
        <ele>995</ele>
        <time>2019-09-03T23:30:20Z</time>
      </trkpt>
      <trkpt lat="45.83669" lon="6.50827">
        <ele>994</ele>
        <time>2019-09-03T23:30:21Z</time>
      </trkpt>
      <trkpt lat="45.837" lon="6.5082">
        <ele>997</ele>
        <time>2019-09-03T23:30:27Z</time>
      </trkpt>
      <trkpt lat="45.83712" lon="6.50822">
        <ele>998</ele>
        <time>2019-09-03T23:30:29Z</time>
      </trkpt>
      <trkpt lat="45.83815" lon="6.50809">
        <ele>1003</ele>
        <time>2019-09-03T23:30:47Z</time>
      </trkpt>
      <trkpt lat="45.8387" lon="6.50782">
        <ele>996</ele>
        <time>2019-09-03T23:30:57Z</time>
      </trkpt>
      <trkpt lat="45.83897" lon="6.50787">
        <ele>993</ele>
        <time>2019-09-03T23:31:02Z</time>
      </trkpt>
      <trkpt lat="45.83922" lon="6.50818">
        <ele>995</ele>
        <time>2019-09-03T23:31:08Z</time>
      </trkpt>
      <trkpt lat="45.83932" lon="6.50822">
        <ele>997</ele>
        <time>2019-09-03T23:31:10Z</time>
      </trkpt>
      <trkpt lat="45.83968" lon="6.50781">
        <ele>995</ele>
        <time>2019-09-03T23:31:18Z</time>
      </trkpt>
      <trkpt lat="45.83978" lon="6.50759">
        <ele>992</ele>
        <time>2019-09-03T23:31:21Z</time>
      </trkpt>
      <trkpt lat="45.83992" lon="6.50692">
        <ele>990</ele>
        <time>2019-09-03T23:31:30Z</time>
      </trkpt>
      <trkpt lat="45.8401" lon="6.50672">
        <ele>990</ele>
        <time>2019-09-03T23:31:34Z</time>
      </trkpt>
      <trkpt lat="45.84047" lon="6.50655">
        <ele>995</ele>
        <time>2019-09-03T23:31:41Z</time>
      </trkpt>
      <trkpt lat="45.84109" lon="6.50637">
        <ele>1000</ele>
        <time>2019-09-03T23:31:52Z</time>
      </trkpt>
      <trkpt lat="45.84147" lon="6.50645">
        <ele>1005</ele>
        <time>2019-09-03T23:31:59Z</time>
      </trkpt>
      <trkpt lat="45.84178" lon="6.50649">
        <ele>1009</ele>
        <time>2019-09-03T23:32:05Z</time>
      </trkpt>
      <trkpt lat="45.84195" lon="6.50641">
        <ele>1007</ele>
        <time>2019-09-03T23:32:08Z</time>
      </trkpt>
      <trkpt lat="45.84208" lon="6.5064">
        <ele>1007</ele>
        <time>2019-09-03T23:32:10Z</time>
      </trkpt>
      <trkpt lat="45.8422" lon="6.50642">
        <ele>1008</ele>
        <time>2019-09-03T23:32:12Z</time>
      </trkpt>
      <trkpt lat="45.84232" lon="6.5064">
        <ele>1008</ele>
        <time>2019-09-03T23:32:15Z</time>
      </trkpt>
      <trkpt lat="45.84246" lon="6.50633">
        <ele>1005</ele>
        <time>2019-09-03T23:32:17Z</time>
      </trkpt>
      <trkpt lat="45.84268" lon="6.50628">
        <ele>1005</ele>
        <time>2019-09-03T23:32:21Z</time>
      </trkpt>
      <trkpt lat="45.84283" lon="6.5061">
        <ele>999</ele>
        <time>2019-09-03T23:32:25Z</time>
      </trkpt>
      <trkpt lat="45.84311" lon="6.50591">
        <ele>993</ele>
        <time>2019-09-03T23:32:30Z</time>
      </trkpt>
      <trkpt lat="45.84362" lon="6.50572">
        <ele>993</ele>
        <time>2019-09-03T23:32:40Z</time>
      </trkpt>
      <trkpt lat="45.8439" lon="6.50576">
        <ele>997</ele>
        <time>2019-09-03T23:32:45Z</time>
      </trkpt>
      <trkpt lat="45.84422" lon="6.50571">
        <ele>1000</ele>
        <time>2019-09-03T23:32:50Z</time>
      </trkpt>
      <trkpt lat="45.84471" lon="6.5055">
        <ele>996</ele>
        <time>2019-09-03T23:32:59Z</time>
      </trkpt>
      <trkpt lat="45.84564" lon="6.50491">
        <ele>990</ele>
        <time>2019-09-03T23:33:17Z</time>
      </trkpt>
      <trkpt lat="45.84598" lon="6.50475">
        <ele>990</ele>
        <time>2019-09-03T23:33:24Z</time>
      </trkpt>
      <trkpt lat="45.84641" lon="6.50474">
        <ele>992</ele>
        <time>2019-09-03T23:33:31Z</time>
      </trkpt>
      <trkpt lat="45.84712" lon="6.50442">
        <ele>995</ele>
        <time>2019-09-03T23:33:45Z</time>
      </trkpt>
      <trkpt lat="45.84728" lon="6.50416">
        <ele>991</ele>
        <time>2019-09-03T23:33:49Z</time>
      </trkpt>
      <trkpt lat="45.84747" lon="6.50364">
        <ele>992</ele>
        <time>2019-09-03T23:33:56Z</time>
      </trkpt>
      <trkpt lat="45.84766" lon="6.5034">
        <ele>994</ele>
        <time>2019-09-03T23:34:01Z</time>
      </trkpt>
      <trkpt lat="45.84814" lon="6.50324">
        <ele>998</ele>
        <time>2019-09-03T23:34:10Z</time>
      </trkpt>
      <trkpt lat="45.84879" lon="6.50326">
        <ele>1002</ele>
        <time>2019-09-03T23:34:21Z</time>
      </trkpt>
      <trkpt lat="45.84903" lon="6.50316">
        <ele>1002</ele>
        <time>2019-09-03T23:34:26Z</time>
      </trkpt>
      <trkpt lat="45.85134" lon="6.50118">
        <ele>1004</ele>
        <time>2019-09-03T23:35:13Z</time>
      </trkpt>
      <trkpt lat="45.85225" lon="6.50054">
        <ele>1009</ele>
        <time>2019-09-03T23:35:31Z</time>
      </trkpt>
      <trkpt lat="45.8527" lon="6.50036">
        <ele>1014</ele>
        <time>2019-09-03T23:35:40Z</time>
      </trkpt>
      <trkpt lat="45.85354" lon="6.50005">
        <ele>1014</ele>
        <time>2019-09-03T23:35:55Z</time>
      </trkpt>
      <trkpt lat="45.85384" lon="6.50003">
        <ele>1012</ele>
        <time>2019-09-03T23:36:01Z</time>
      </trkpt>
      <trkpt lat="45.85403" lon="6.50012">
        <ele>1016</ele>
        <time>2019-09-03T23:36:04Z</time>
      </trkpt>
      <trkpt lat="45.85432" lon="6.50047">
        <ele>1029</ele>
        <time>2019-09-03T23:36:11Z</time>
      </trkpt>
      <trkpt lat="45.85445" lon="6.50053">
        <ele>1032</ele>
        <time>2019-09-03T23:36:13Z</time>
      </trkpt>
      <trkpt lat="45.8546" lon="6.50051">
        <ele>1032</ele>
        <time>2019-09-03T23:36:16Z</time>
      </trkpt>
      <trkpt lat="45.85475" lon="6.50038">
        <ele>1028</ele>
        <time>2019-09-03T23:36:19Z</time>
      </trkpt>
      <trkpt lat="45.8549" lon="6.50004">
        <ele>1015</ele>
        <time>2019-09-03T23:36:24Z</time>
      </trkpt>
      <trkpt lat="45.8556" lon="6.49938">
        <ele>1024</ele>
        <time>2019-09-03T23:36:39Z</time>
      </trkpt>
      <trkpt lat="45.85599" lon="6.49907">
        <ele>1027</ele>
        <time>2019-09-03T23:36:47Z</time>
      </trkpt>
      <trkpt lat="45.8566" lon="6.49868">
        <ele>1032</ele>
        <time>2019-09-03T23:36:59Z</time>
      </trkpt>
      <trkpt lat="45.85699" lon="6.49844">
        <ele>1034</ele>
        <time>2019-09-03T23:37:06Z</time>
      </trkpt>
      <trkpt lat="45.85748" lon="6.49822">
        <ele>1041</ele>
        <time>2019-09-03T23:37:15Z</time>
      </trkpt>
      <trkpt lat="45.85872" lon="6.49746">
        <ele>1061</ele>
        <time>2019-09-03T23:37:39Z</time>
      </trkpt>
      <trkpt lat="45.85888" lon="6.49733">
        <ele>1066</ele>
        <time>2019-09-03T23:37:43Z</time>
      </trkpt>
      <trkpt lat="45.85912" lon="6.4968">
        <ele>1064</ele>
        <time>2019-09-03T23:37:51Z</time>
      </trkpt>
      <trkpt lat="45.85947" lon="6.49653">
        <ele>1074</ele>
        <time>2019-09-03T23:37:58Z</time>
      </trkpt>
      <trkpt lat="45.85966" lon="6.49642">
        <ele>1078</ele>
        <time>2019-09-03T23:38:01Z</time>
      </trkpt>
      <trkpt lat="45.86025" lon="6.49644">
        <ele>1091</ele>
        <time>2019-09-03T23:38:12Z</time>
      </trkpt>
      <trkpt lat="45.86047" lon="6.49649">
        <ele>1094</ele>
        <time>2019-09-03T23:38:16Z</time>
      </trkpt>
      <trkpt lat="45.8607" lon="6.49649">
        <ele>1096</ele>
        <time>2019-09-03T23:38:20Z</time>
      </trkpt>
      <trkpt lat="45.8609" lon="6.49655">
        <ele>1097</ele>
        <time>2019-09-03T23:38:23Z</time>
      </trkpt>
      <trkpt lat="45.86109" lon="6.49676">
        <ele>1102</ele>
        <time>2019-09-03T23:38:28Z</time>
      </trkpt>
      <trkpt lat="45.86121" lon="6.49677">
        <ele>1100</ele>
        <time>2019-09-03T23:38:30Z</time>
      </trkpt>
      <trkpt lat="45.86131" lon="6.4967">
        <ele>1095</ele>
        <time>2019-09-03T23:38:32Z</time>
      </trkpt>
      <trkpt lat="45.86134" lon="6.49648">
        <ele>1090</ele>
        <time>2019-09-03T23:38:35Z</time>
      </trkpt>
      <trkpt lat="45.86133" lon="6.49629">
        <ele>1087</ele>
        <time>2019-09-03T23:38:37Z</time>
      </trkpt>
      <trkpt lat="45.86101" lon="6.49597">
        <ele>1081</ele>
        <time>2019-09-03T23:38:44Z</time>
      </trkpt>
      <trkpt lat="45.8607" lon="6.49579">
        <ele>1075</ele>
        <time>2019-09-03T23:38:50Z</time>
      </trkpt>
      <trkpt lat="45.86065" lon="6.49572">
        <ele>1076</ele>
        <time>2019-09-03T23:38:51Z</time>
      </trkpt>
      <trkpt lat="45.86064" lon="6.49564">
        <ele>1077</ele>
        <time>2019-09-03T23:38:52Z</time>
      </trkpt>
      <trkpt lat="45.86067" lon="6.49558">
        <ele>1078</ele>
        <time>2019-09-03T23:38:53Z</time>
      </trkpt>
      <trkpt lat="45.86081" lon="6.49554">
        <ele>1079</ele>
        <time>2019-09-03T23:38:56Z</time>
      </trkpt>
      <trkpt lat="45.86142" lon="6.49551">
        <ele>1082</ele>
        <time>2019-09-03T23:39:06Z</time>
      </trkpt>
      <trkpt lat="45.86162" lon="6.49542">
        <ele>1083</ele>
        <time>2019-09-03T23:39:10Z</time>
      </trkpt>
      <trkpt lat="45.86177" lon="6.49521">
        <ele>1086</ele>
        <time>2019-09-03T23:39:14Z</time>
      </trkpt>
      <trkpt lat="45.86204" lon="6.49453">
        <ele>1093</ele>
        <time>2019-09-03T23:39:24Z</time>
      </trkpt>
      <trkpt lat="45.86211" lon="6.49441">
        <ele>1094</ele>
        <time>2019-09-03T23:39:26Z</time>
      </trkpt>
      <trkpt lat="45.86219" lon="6.49436">
        <ele>1096</ele>
        <time>2019-09-03T23:39:27Z</time>
      </trkpt>
      <trkpt lat="45.86229" lon="6.49438">
        <ele>1097</ele>
        <time>2019-09-03T23:39:29Z</time>
      </trkpt>
      <trkpt lat="45.86242" lon="6.49445">
        <ele>1099</ele>
        <time>2019-09-03T23:39:31Z</time>
      </trkpt>
      <trkpt lat="45.86252" lon="6.49457">
        <ele>1100</ele>
        <time>2019-09-03T23:39:34Z</time>
      </trkpt>
      <trkpt lat="45.86259" lon="6.49475">
        <ele>1102</ele>
        <time>2019-09-03T23:39:36Z</time>
      </trkpt>
      <trkpt lat="45.86265" lon="6.49613">
        <ele>1099</ele>
        <time>2019-09-03T23:39:53Z</time>
      </trkpt>
      <trkpt lat="45.86269" lon="6.49626">
        <ele>1099</ele>
        <time>2019-09-03T23:39:55Z</time>
      </trkpt>
      <trkpt lat="45.86276" lon="6.49635">
        <ele>1099</ele>
        <time>2019-09-03T23:39:57Z</time>
      </trkpt>
      <trkpt lat="45.86283" lon="6.49636">
        <ele>1101</ele>
        <time>2019-09-03T23:39:58Z</time>
      </trkpt>
      <trkpt lat="45.86293" lon="6.49629">
        <ele>1103</ele>
        <time>2019-09-03T23:40:00Z</time>
      </trkpt>
      <trkpt lat="45.86317" lon="6.49567">
        <ele>1113</ele>
        <time>2019-09-03T23:40:09Z</time>
      </trkpt>
      <trkpt lat="45.86319" lon="6.49559">
        <ele>1114</ele>
        <time>2019-09-03T23:40:10Z</time>
      </trkpt>
      <trkpt lat="45.86321" lon="6.49543">
        <ele>1115</ele>
        <time>2019-09-03T23:40:12Z</time>
      </trkpt>
      <trkpt lat="45.86312" lon="6.49496">
        <ele>1116</ele>
        <time>2019-09-03T23:40:18Z</time>
      </trkpt>
      <trkpt lat="45.86305" lon="6.49437">
        <ele>1116</ele>
        <time>2019-09-03T23:40:25Z</time>
      </trkpt>
      <trkpt lat="45.86298" lon="6.49406">
        <ele>1115</ele>
        <time>2019-09-03T23:40:29Z</time>
      </trkpt>
      <trkpt lat="45.86283" lon="6.49372">
        <ele>1113</ele>
        <time>2019-09-03T23:40:34Z</time>
      </trkpt>
      <trkpt lat="45.86283" lon="6.49345">
        <ele>1115</ele>
        <time>2019-09-03T23:40:38Z</time>
      </trkpt>
      <trkpt lat="45.86294" lon="6.4932">
        <ele>1118</ele>
        <time>2019-09-03T23:40:41Z</time>
      </trkpt>
      <trkpt lat="45.86309" lon="6.49307">
        <ele>1120</ele>
        <time>2019-09-03T23:40:44Z</time>
      </trkpt>
      <trkpt lat="45.86336" lon="6.49299">
        <ele>1124</ele>
        <time>2019-09-03T23:40:49Z</time>
      </trkpt>
      <trkpt lat="45.86369" lon="6.49264">
        <ele>1128</ele>
        <time>2019-09-03T23:40:57Z</time>
      </trkpt>
      <trkpt lat="45.86398" lon="6.49253">
        <ele>1132</ele>
        <time>2019-09-03T23:41:02Z</time>
      </trkpt>
      <trkpt lat="45.86416" lon="6.49254">
        <ele>1135</ele>
        <time>2019-09-03T23:41:05Z</time>
      </trkpt>
      <trkpt lat="45.86425" lon="6.4926">
        <ele>1138</ele>
        <time>2019-09-03T23:41:07Z</time>
      </trkpt>
      <trkpt lat="45.86429" lon="6.49267">
        <ele>1139</ele>
        <time>2019-09-03T23:41:08Z</time>
      </trkpt>
      <trkpt lat="45.86432" lon="6.49277">
        <ele>1141</ele>
        <time>2019-09-03T23:41:09Z</time>
      </trkpt>
      <trkpt lat="45.86431" lon="6.49301">
        <ele>1142</ele>
        <time>2019-09-03T23:41:12Z</time>
      </trkpt>
      <trkpt lat="45.86424" lon="6.49325">
        <ele>1143</ele>
        <time>2019-09-03T23:41:16Z</time>
      </trkpt>
      <trkpt lat="45.86402" lon="6.49371">
        <ele>1142</ele>
        <time>2019-09-03T23:41:23Z</time>
      </trkpt>
      <trkpt lat="45.864" lon="6.49378">
        <ele>1142</ele>
        <time>2019-09-03T23:41:24Z</time>
      </trkpt>
      <trkpt lat="45.86398" lon="6.49392">
        <ele>1142</ele>
        <time>2019-09-03T23:41:25Z</time>
      </trkpt>
      <trkpt lat="45.86399" lon="6.49401">
        <ele>1143</ele>
        <time>2019-09-03T23:41:26Z</time>
      </trkpt>
      <trkpt lat="45.86406" lon="6.49427">
        <ele>1146</ele>
        <time>2019-09-03T23:41:30Z</time>
      </trkpt>
      <trkpt lat="45.86427" lon="6.49478">
        <ele>1154</ele>
        <time>2019-09-03T23:41:37Z</time>
      </trkpt>
      <trkpt lat="45.86423" lon="6.49524">
        <ele>1151</ele>
        <time>2019-09-03T23:41:43Z</time>
      </trkpt>
      <trkpt lat="45.86428" lon="6.49538">
        <ele>1149</ele>
        <time>2019-09-03T23:41:45Z</time>
      </trkpt>
      <trkpt lat="45.86438" lon="6.49543">
        <ele>1148</ele>
        <time>2019-09-03T23:41:47Z</time>
      </trkpt>
      <trkpt lat="45.86451" lon="6.49542">
        <ele>1149</ele>
        <time>2019-09-03T23:41:49Z</time>
      </trkpt>
      <trkpt lat="45.86461" lon="6.49534">
        <ele>1151</ele>
        <time>2019-09-03T23:41:51Z</time>
      </trkpt>
      <trkpt lat="45.86474" lon="6.49515">
        <ele>1154</ele>
        <time>2019-09-03T23:41:54Z</time>
      </trkpt>
      <trkpt lat="45.86485" lon="6.49491">
        <ele>1158</ele>
        <time>2019-09-03T23:41:58Z</time>
      </trkpt>
      <trkpt lat="45.86489" lon="6.49469">
        <ele>1159</ele>
        <time>2019-09-03T23:42:01Z</time>
      </trkpt>
      <trkpt lat="45.86496" lon="6.49458">
        <ele>1161</ele>
        <time>2019-09-03T23:42:03Z</time>
      </trkpt>
      <trkpt lat="45.86496" lon="6.49447">
        <ele>1161</ele>
        <time>2019-09-03T23:42:04Z</time>
      </trkpt>
      <trkpt lat="45.86513" lon="6.49417">
        <ele>1166</ele>
        <time>2019-09-03T23:42:09Z</time>
      </trkpt>
      <trkpt lat="45.86544" lon="6.49384">
        <ele>1168</ele>
        <time>2019-09-03T23:42:16Z</time>
      </trkpt>
      <trkpt lat="45.86597" lon="6.4935">
        <ele>1176</ele>
        <time>2019-09-03T23:42:26Z</time>
      </trkpt>
      <trkpt lat="45.86657" lon="6.49304">
        <ele>1186</ele>
        <time>2019-09-03T23:42:38Z</time>
      </trkpt>
      <trkpt lat="45.86667" lon="6.49293">
        <ele>1187</ele>
        <time>2019-09-03T23:42:40Z</time>
      </trkpt>
      <trkpt lat="45.86674" lon="6.49274">
        <ele>1188</ele>
        <time>2019-09-03T23:42:43Z</time>
      </trkpt>
      <trkpt lat="45.86676" lon="6.49246">
        <ele>1187</ele>
        <time>2019-09-03T23:42:47Z</time>
      </trkpt>
      <trkpt lat="45.86671" lon="6.4919">
        <ele>1183</ele>
        <time>2019-09-03T23:42:54Z</time>
      </trkpt>
      <trkpt lat="45.86674" lon="6.49176">
        <ele>1182</ele>
        <time>2019-09-03T23:42:55Z</time>
      </trkpt>
      <trkpt lat="45.86701" lon="6.4915">
        <ele>1189</ele>
        <time>2019-09-03T23:43:01Z</time>
      </trkpt>
      <trkpt lat="45.86731" lon="6.49116">
        <ele>1197</ele>
        <time>2019-09-03T23:43:08Z</time>
      </trkpt>
      <trkpt lat="45.86735" lon="6.49097">
        <ele>1198</ele>
        <time>2019-09-03T23:43:10Z</time>
      </trkpt>
      <trkpt lat="45.86734" lon="6.49086">
        <ele>1198</ele>
        <time>2019-09-03T23:43:12Z</time>
      </trkpt>
      <trkpt lat="45.86727" lon="6.49073">
        <ele>1198</ele>
        <time>2019-09-03T23:43:14Z</time>
      </trkpt>
      <trkpt lat="45.86702" lon="6.49058">
        <ele>1195</ele>
        <time>2019-09-03T23:43:19Z</time>
      </trkpt>
      <trkpt lat="45.86674" lon="6.49019">
        <ele>1196</ele>
        <time>2019-09-03T23:43:26Z</time>
      </trkpt>
      <trkpt lat="45.86654" lon="6.49004">
        <ele>1195</ele>
        <time>2019-09-03T23:43:30Z</time>
      </trkpt>
      <trkpt lat="45.86646" lon="6.48992">
        <ele>1195</ele>
        <time>2019-09-03T23:43:32Z</time>
      </trkpt>
      <trkpt lat="45.86636" lon="6.48964">
        <ele>1196</ele>
        <time>2019-09-03T23:43:36Z</time>
      </trkpt>
      <trkpt lat="45.86626" lon="6.48932">
        <ele>1198</ele>
        <time>2019-09-03T23:43:40Z</time>
      </trkpt>
      <trkpt lat="45.86622" lon="6.48901">
        <ele>1199</ele>
        <time>2019-09-03T23:43:44Z</time>
      </trkpt>
      <trkpt lat="45.86631" lon="6.48854">
        <ele>1202</ele>
        <time>2019-09-03T23:43:50Z</time>
      </trkpt>
      <trkpt lat="45.86653" lon="6.48822">
        <ele>1208</ele>
        <time>2019-09-03T23:43:55Z</time>
      </trkpt>
      <trkpt lat="45.86666" lon="6.48781">
        <ele>1211</ele>
        <time>2019-09-03T23:44:01Z</time>
      </trkpt>
      <trkpt lat="45.86686" lon="6.48761">
        <ele>1216</ele>
        <time>2019-09-03T23:44:05Z</time>
      </trkpt>
      <trkpt lat="45.86688" lon="6.48745">
        <ele>1217</ele>
        <time>2019-09-03T23:44:07Z</time>
      </trkpt>
      <trkpt lat="45.86682" lon="6.48702">
        <ele>1216</ele>
        <time>2019-09-03T23:44:13Z</time>
      </trkpt>
      <trkpt lat="45.86681" lon="6.48675">
        <ele>1216</ele>
        <time>2019-09-03T23:44:16Z</time>
      </trkpt>
      <trkpt lat="45.86687" lon="6.48664">
        <ele>1217</ele>
        <time>2019-09-03T23:44:18Z</time>
      </trkpt>
      <trkpt lat="45.86696" lon="6.48664">
        <ele>1219</ele>
        <time>2019-09-03T23:44:19Z</time>
      </trkpt>
      <trkpt lat="45.86702" lon="6.4867">
        <ele>1221</ele>
        <time>2019-09-03T23:44:21Z</time>
      </trkpt>
      <trkpt lat="45.86709" lon="6.48711">
        <ele>1222</ele>
        <time>2019-09-03T23:44:26Z</time>
      </trkpt>
      <trkpt lat="45.86722" lon="6.48732">
        <ele>1226</ele>
        <time>2019-09-03T23:44:29Z</time>
      </trkpt>
      <trkpt lat="45.86729" lon="6.4875">
        <ele>1227</ele>
        <time>2019-09-03T23:44:32Z</time>
      </trkpt>
      <trkpt lat="45.86731" lon="6.48773">
        <ele>1228</ele>
        <time>2019-09-03T23:44:35Z</time>
      </trkpt>
      <trkpt lat="45.86731" lon="6.4879">
        <ele>1228</ele>
        <time>2019-09-03T23:44:37Z</time>
      </trkpt>
      <trkpt lat="45.86734" lon="6.48811">
        <ele>1229</ele>
        <time>2019-09-03T23:44:40Z</time>
      </trkpt>
      <trkpt lat="45.86744" lon="6.48834">
        <ele>1231</ele>
        <time>2019-09-03T23:44:43Z</time>
      </trkpt>
      <trkpt lat="45.86762" lon="6.48863">
        <ele>1234</ele>
        <time>2019-09-03T23:44:48Z</time>
      </trkpt>
      <trkpt lat="45.86775" lon="6.48897">
        <ele>1235</ele>
        <time>2019-09-03T23:44:53Z</time>
      </trkpt>
      <trkpt lat="45.8681" lon="6.48926">
        <ele>1237</ele>
        <time>2019-09-03T23:45:00Z</time>
      </trkpt>
      <trkpt lat="45.86826" lon="6.48947">
        <ele>1236</ele>
        <time>2019-09-03T23:45:04Z</time>
      </trkpt>
      <trkpt lat="45.86835" lon="6.48956">
        <ele>1236</ele>
        <time>2019-09-03T23:45:06Z</time>
      </trkpt>
      <trkpt lat="45.86842" lon="6.48956">
        <ele>1238</ele>
        <time>2019-09-03T23:45:07Z</time>
      </trkpt>
      <trkpt lat="45.86846" lon="6.48952">
        <ele>1239</ele>
        <time>2019-09-03T23:45:08Z</time>
      </trkpt>
      <trkpt lat="45.86849" lon="6.48946">
        <ele>1241</ele>
        <time>2019-09-03T23:45:09Z</time>
      </trkpt>
      <trkpt lat="45.86846" lon="6.48931">
        <ele>1243</ele>
        <time>2019-09-03T23:45:11Z</time>
      </trkpt>
      <trkpt lat="45.86827" lon="6.48912">
        <ele>1242</ele>
        <time>2019-09-03T23:45:15Z</time>
      </trkpt>
      <trkpt lat="45.86817" lon="6.48894">
        <ele>1242</ele>
        <time>2019-09-03T23:45:18Z</time>
      </trkpt>
      <trkpt lat="45.86804" lon="6.48805">
        <ele>1247</ele>
        <time>2019-09-03T23:45:29Z</time>
      </trkpt>
      <trkpt lat="45.86807" lon="6.48779">
        <ele>1248</ele>
        <time>2019-09-03T23:45:32Z</time>
      </trkpt>
      <trkpt lat="45.86824" lon="6.48763">
        <ele>1254</ele>
        <time>2019-09-03T23:45:36Z</time>
      </trkpt>
      <trkpt lat="45.8684" lon="6.48741">
        <ele>1259</ele>
        <time>2019-09-03T23:45:40Z</time>
      </trkpt>
      <trkpt lat="45.86875" lon="6.48655">
        <ele>1266</ele>
        <time>2019-09-03T23:45:52Z</time>
      </trkpt>
      <trkpt lat="45.86886" lon="6.48622">
        <ele>1269</ele>
        <time>2019-09-03T23:45:57Z</time>
      </trkpt>
      <trkpt lat="45.86887" lon="6.48564">
        <ele>1271</ele>
        <time>2019-09-03T23:46:04Z</time>
      </trkpt>
      <trkpt lat="45.86893" lon="6.48501">
        <ele>1276</ele>
        <time>2019-09-03T23:46:12Z</time>
      </trkpt>
      <trkpt lat="45.86879" lon="6.48465">
        <ele>1275</ele>
        <time>2019-09-03T23:46:17Z</time>
      </trkpt>
      <trkpt lat="45.86845" lon="6.48416">
        <ele>1272</ele>
        <time>2019-09-03T23:46:25Z</time>
      </trkpt>
      <trkpt lat="45.8684" lon="6.48391">
        <ele>1272</ele>
        <time>2019-09-03T23:46:28Z</time>
      </trkpt>
      <trkpt lat="45.86842" lon="6.48366">
        <ele>1273</ele>
        <time>2019-09-03T23:46:32Z</time>
      </trkpt>
      <trkpt lat="45.86846" lon="6.48354">
        <ele>1274</ele>
        <time>2019-09-03T23:46:33Z</time>
      </trkpt>
      <trkpt lat="45.86851" lon="6.48347">
        <ele>1275</ele>
        <time>2019-09-03T23:46:34Z</time>
      </trkpt>
      <trkpt lat="45.86859" lon="6.48343">
        <ele>1277</ele>
        <time>2019-09-03T23:46:36Z</time>
      </trkpt>
      <trkpt lat="45.86886" lon="6.48338">
        <ele>1283</ele>
        <time>2019-09-03T23:46:41Z</time>
      </trkpt>
      <trkpt lat="45.86893" lon="6.4833">
        <ele>1284</ele>
        <time>2019-09-03T23:46:42Z</time>
      </trkpt>
      <trkpt lat="45.86902" lon="6.48307">
        <ele>1287</ele>
        <time>2019-09-03T23:46:46Z</time>
      </trkpt>
      <trkpt lat="45.86908" lon="6.48286">
        <ele>1289</ele>
        <time>2019-09-03T23:46:49Z</time>
      </trkpt>
      <trkpt lat="45.86911" lon="6.48216">
        <ele>1295</ele>
        <time>2019-09-03T23:46:57Z</time>
      </trkpt>
      <trkpt lat="45.86906" lon="6.48196">
        <ele>1294</ele>
        <time>2019-09-03T23:47:00Z</time>
      </trkpt>
      <trkpt lat="45.86906" lon="6.48188">
        <ele>1295</ele>
        <time>2019-09-03T23:47:01Z</time>
      </trkpt>
      <trkpt lat="45.86908" lon="6.4818">
        <ele>1297</ele>
        <time>2019-09-03T23:47:02Z</time>
      </trkpt>
      <trkpt lat="45.86912" lon="6.48177">
        <ele>1299</ele>
        <time>2019-09-03T23:47:03Z</time>
      </trkpt>
      <trkpt lat="45.8692" lon="6.48177">
        <ele>1302</ele>
        <time>2019-09-03T23:47:04Z</time>
      </trkpt>
      <trkpt lat="45.86924" lon="6.48181">
        <ele>1303</ele>
        <time>2019-09-03T23:47:05Z</time>
      </trkpt>
      <trkpt lat="45.86926" lon="6.48187">
        <ele>1303</ele>
        <time>2019-09-03T23:47:06Z</time>
      </trkpt>
      <trkpt lat="45.86927" lon="6.48239">
        <ele>1298</ele>
        <time>2019-09-03T23:47:12Z</time>
      </trkpt>
      <trkpt lat="45.8693" lon="6.48252">
        <ele>1298</ele>
        <time>2019-09-03T23:47:14Z</time>
      </trkpt>
      <trkpt lat="45.86942" lon="6.48281">
        <ele>1300</ele>
        <time>2019-09-03T23:47:18Z</time>
      </trkpt>
      <trkpt lat="45.86948" lon="6.48314">
        <ele>1298</ele>
        <time>2019-09-03T23:47:22Z</time>
      </trkpt>
      <trkpt lat="45.86951" lon="6.48324">
        <ele>1298</ele>
        <time>2019-09-03T23:47:24Z</time>
      </trkpt>
      <trkpt lat="45.86961" lon="6.48336">
        <ele>1299</ele>
        <time>2019-09-03T23:47:26Z</time>
      </trkpt>
      <trkpt lat="45.86973" lon="6.48346">
        <ele>1301</ele>
        <time>2019-09-03T23:47:28Z</time>
      </trkpt>
      <trkpt lat="45.86991" lon="6.48355">
        <ele>1305</ele>
        <time>2019-09-03T23:47:32Z</time>
      </trkpt>
      <trkpt lat="45.87003" lon="6.48365">
        <ele>1307</ele>
        <time>2019-09-03T23:47:34Z</time>
      </trkpt>
      <trkpt lat="45.87012" lon="6.48377">
        <ele>1309</ele>
        <time>2019-09-03T23:47:37Z</time>
      </trkpt>
      <trkpt lat="45.87032" lon="6.4845">
        <ele>1312</ele>
        <time>2019-09-03T23:47:46Z</time>
      </trkpt>
      <trkpt lat="45.87036" lon="6.48482">
        <ele>1312</ele>
        <time>2019-09-03T23:47:50Z</time>
      </trkpt>
      <trkpt lat="45.87047" lon="6.48547">
        <ele>1312</ele>
        <time>2019-09-03T23:47:59Z</time>
      </trkpt>
      <trkpt lat="45.87051" lon="6.48562">
        <ele>1312</ele>
        <time>2019-09-03T23:48:01Z</time>
      </trkpt>
      <trkpt lat="45.87062" lon="6.48577">
        <ele>1314</ele>
        <time>2019-09-03T23:48:03Z</time>
      </trkpt>
      <trkpt lat="45.87103" lon="6.48611">
        <ele>1323</ele>
        <time>2019-09-03T23:48:12Z</time>
      </trkpt>
      <trkpt lat="45.87111" lon="6.48624">
        <ele>1325</ele>
        <time>2019-09-03T23:48:14Z</time>
      </trkpt>
      <trkpt lat="45.87112" lon="6.48631">
        <ele>1324</ele>
        <time>2019-09-03T23:48:15Z</time>
      </trkpt>
      <trkpt lat="45.87111" lon="6.4864">
        <ele>1324</ele>
        <time>2019-09-03T23:48:16Z</time>
      </trkpt>
      <trkpt lat="45.87108" lon="6.48649">
        <ele>1322</ele>
        <time>2019-09-03T23:48:17Z</time>
      </trkpt>
      <trkpt lat="45.87096" lon="6.48657">
        <ele>1319</ele>
        <time>2019-09-03T23:48:19Z</time>
      </trkpt>
      <trkpt lat="45.87073" lon="6.48665">
        <ele>1313</ele>
        <time>2019-09-03T23:48:24Z</time>
      </trkpt>
      <trkpt lat="45.87061" lon="6.4868">
        <ele>1311</ele>
        <time>2019-09-03T23:48:26Z</time>
      </trkpt>
      <trkpt lat="45.87052" lon="6.48702">
        <ele>1310</ele>
        <time>2019-09-03T23:48:30Z</time>
      </trkpt>
      <trkpt lat="45.8705" lon="6.48714">
        <ele>1311</ele>
        <time>2019-09-03T23:48:31Z</time>
      </trkpt>
      <trkpt lat="45.8705" lon="6.48738">
        <ele>1312</ele>
        <time>2019-09-03T23:48:34Z</time>
      </trkpt>
      <trkpt lat="45.87054" lon="6.48749">
        <ele>1313</ele>
        <time>2019-09-03T23:48:36Z</time>
      </trkpt>
      <trkpt lat="45.87058" lon="6.48754">
        <ele>1313</ele>
        <time>2019-09-03T23:48:37Z</time>
      </trkpt>
      <trkpt lat="45.87062" lon="6.48756">
        <ele>1313</ele>
        <time>2019-09-03T23:48:37Z</time>
      </trkpt>
      <trkpt lat="45.87067" lon="6.48756">
        <ele>1313</ele>
        <time>2019-09-03T23:48:38Z</time>
      </trkpt>
      <trkpt lat="45.8707" lon="6.48753">
        <ele>1314</ele>
        <time>2019-09-03T23:48:39Z</time>
      </trkpt>
      <trkpt lat="45.87094" lon="6.48711">
        <ele>1318</ele>
        <time>2019-09-03T23:48:46Z</time>
      </trkpt>
      <trkpt lat="45.87102" lon="6.4869">
        <ele>1319</ele>
        <time>2019-09-03T23:48:49Z</time>
      </trkpt>
      <trkpt lat="45.87113" lon="6.48682">
        <ele>1322</ele>
        <time>2019-09-03T23:48:51Z</time>
      </trkpt>
      <trkpt lat="45.87152" lon="6.48669">
        <ele>1331</ele>
        <time>2019-09-03T23:48:58Z</time>
      </trkpt>
      <trkpt lat="45.87167" lon="6.48656">
        <ele>1336</ele>
        <time>2019-09-03T23:49:01Z</time>
      </trkpt>
      <trkpt lat="45.87172" lon="6.48638">
        <ele>1341</ele>
        <time>2019-09-03T23:49:03Z</time>
      </trkpt>
      <trkpt lat="45.87172" lon="6.48632">
        <ele>1342</ele>
        <time>2019-09-03T23:49:04Z</time>
      </trkpt>
      <trkpt lat="45.87166" lon="6.48607">
        <ele>1342</ele>
        <time>2019-09-03T23:49:07Z</time>
      </trkpt>
      <trkpt lat="45.87167" lon="6.486">
        <ele>1343</ele>
        <time>2019-09-03T23:49:08Z</time>
      </trkpt>
      <trkpt lat="45.87178" lon="6.48572">
        <ele>1351</ele>
        <time>2019-09-03T23:49:12Z</time>
      </trkpt>
      <trkpt lat="45.87183" lon="6.48544">
        <ele>1355</ele>
        <time>2019-09-03T23:49:16Z</time>
      </trkpt>
      <trkpt lat="45.8718" lon="6.48517">
        <ele>1355</ele>
        <time>2019-09-03T23:49:19Z</time>
      </trkpt>
      <trkpt lat="45.87176" lon="6.48506">
        <ele>1355</ele>
        <time>2019-09-03T23:49:21Z</time>
      </trkpt>
      <trkpt lat="45.87169" lon="6.48497">
        <ele>1353</ele>
        <time>2019-09-03T23:49:22Z</time>
      </trkpt>
      <trkpt lat="45.87153" lon="6.4848">
        <ele>1350</ele>
        <time>2019-09-03T23:49:26Z</time>
      </trkpt>
      <trkpt lat="45.87145" lon="6.48465">
        <ele>1349</ele>
        <time>2019-09-03T23:49:28Z</time>
      </trkpt>
      <trkpt lat="45.87137" lon="6.48434">
        <ele>1349</ele>
        <time>2019-09-03T23:49:32Z</time>
      </trkpt>
      <trkpt lat="45.87129" lon="6.48378">
        <ele>1356</ele>
        <time>2019-09-03T23:49:40Z</time>
      </trkpt>
      <trkpt lat="45.87107" lon="6.48298">
        <ele>1358</ele>
        <time>2019-09-03T23:49:50Z</time>
      </trkpt>
      <trkpt lat="45.87097" lon="6.48267">
        <ele>1356</ele>
        <time>2019-09-03T23:49:54Z</time>
      </trkpt>
      <trkpt lat="45.87077" lon="6.48228">
        <ele>1352</ele>
        <time>2019-09-03T23:50:00Z</time>
      </trkpt>
      <trkpt lat="45.87076" lon="6.48217">
        <ele>1353</ele>
        <time>2019-09-03T23:50:02Z</time>
      </trkpt>
      <trkpt lat="45.87104" lon="6.4813">
        <ele>1367</ele>
        <time>2019-09-03T23:50:14Z</time>
      </trkpt>
      <trkpt lat="45.87115" lon="6.48057">
        <ele>1372</ele>
        <time>2019-09-03T23:50:23Z</time>
      </trkpt>
      <trkpt lat="45.87121" lon="6.48049">
        <ele>1374</ele>
        <time>2019-09-03T23:50:24Z</time>
      </trkpt>
      <trkpt lat="45.87128" lon="6.48045">
        <ele>1376</ele>
        <time>2019-09-03T23:50:26Z</time>
      </trkpt>
      <trkpt lat="45.87135" lon="6.48047">
        <ele>1378</ele>
        <time>2019-09-03T23:50:27Z</time>
      </trkpt>
      <trkpt lat="45.8714" lon="6.48054">
        <ele>1379</ele>
        <time>2019-09-03T23:50:28Z</time>
      </trkpt>
      <trkpt lat="45.87141" lon="6.48066">
        <ele>1379</ele>
        <time>2019-09-03T23:50:30Z</time>
      </trkpt>
      <trkpt lat="45.87137" lon="6.48104">
        <ele>1377</ele>
        <time>2019-09-03T23:50:35Z</time>
      </trkpt>
      <trkpt lat="45.87138" lon="6.48116">
        <ele>1377</ele>
        <time>2019-09-03T23:50:36Z</time>
      </trkpt>
      <trkpt lat="45.87142" lon="6.48122">
        <ele>1378</ele>
        <time>2019-09-03T23:50:37Z</time>
      </trkpt>
      <trkpt lat="45.87152" lon="6.48122">
        <ele>1381</ele>
        <time>2019-09-03T23:50:39Z</time>
      </trkpt>
      <trkpt lat="45.87157" lon="6.48117">
        <ele>1382</ele>
        <time>2019-09-03T23:50:40Z</time>
      </trkpt>
      <trkpt lat="45.87159" lon="6.48112">
        <ele>1383</ele>
        <time>2019-09-03T23:50:41Z</time>
      </trkpt>
      <trkpt lat="45.8716" lon="6.48081">
        <ele>1384</ele>
        <time>2019-09-03T23:50:44Z</time>
      </trkpt>
      <trkpt lat="45.87163" lon="6.48065">
        <ele>1385</ele>
        <time>2019-09-03T23:50:47Z</time>
      </trkpt>
      <trkpt lat="45.87179" lon="6.48046">
        <ele>1393</ele>
        <time>2019-09-03T23:50:50Z</time>
      </trkpt>
      <trkpt lat="45.87185" lon="6.48023">
        <ele>1398</ele>
        <time>2019-09-03T23:50:53Z</time>
      </trkpt>
      <trkpt lat="45.87187" lon="6.47995">
        <ele>1402</ele>
        <time>2019-09-03T23:50:57Z</time>
      </trkpt>
      <trkpt lat="45.87166" lon="6.47861">
        <ele>1402</ele>
        <time>2019-09-03T23:51:14Z</time>
      </trkpt>
      <trkpt lat="45.87165" lon="6.47761">
        <ele>1397</ele>
        <time>2019-09-03T23:51:26Z</time>
      </trkpt>
      <trkpt lat="45.87183" lon="6.4766">
        <ele>1404</ele>
        <time>2019-09-03T23:51:39Z</time>
      </trkpt>
      <trkpt lat="45.87196" lon="6.47644">
        <ele>1415</ele>
        <time>2019-09-03T23:51:42Z</time>
      </trkpt>
      <trkpt lat="45.8721" lon="6.47631">
        <ele>1425</ele>
        <time>2019-09-03T23:51:45Z</time>
      </trkpt>
      <trkpt lat="45.87217" lon="6.47615">
        <ele>1430</ele>
        <time>2019-09-03T23:51:47Z</time>
      </trkpt>
      <trkpt lat="45.87214" lon="6.47594">
        <ele>1431</ele>
        <time>2019-09-03T23:51:50Z</time>
      </trkpt>
      <trkpt lat="45.87202" lon="6.47576">
        <ele>1426</ele>
        <time>2019-09-03T23:51:53Z</time>
      </trkpt>
      <trkpt lat="45.87195" lon="6.47558">
        <ele>1423</ele>
        <time>2019-09-03T23:51:56Z</time>
      </trkpt>
      <trkpt lat="45.87193" lon="6.47512">
        <ele>1425</ele>
        <time>2019-09-03T23:52:01Z</time>
      </trkpt>
      <trkpt lat="45.87181" lon="6.47497">
        <ele>1422</ele>
        <time>2019-09-03T23:52:04Z</time>
      </trkpt>
      <trkpt lat="45.8715" lon="6.47494">
        <ele>1419</ele>
        <time>2019-09-03T23:52:10Z</time>
      </trkpt>
      <trkpt lat="45.87145" lon="6.47488">
        <ele>1420</ele>
        <time>2019-09-03T23:52:11Z</time>
      </trkpt>
      <trkpt lat="45.87144" lon="6.4748">
        <ele>1421</ele>
        <time>2019-09-03T23:52:12Z</time>
      </trkpt>
      <trkpt lat="45.87146" lon="6.47473">
        <ele>1421</ele>
        <time>2019-09-03T23:52:13Z</time>
      </trkpt>
      <trkpt lat="45.8715" lon="6.47468">
        <ele>1422</ele>
        <time>2019-09-03T23:52:14Z</time>
      </trkpt>
      <trkpt lat="45.87192" lon="6.47467">
        <ele>1429</ele>
        <time>2019-09-03T23:52:21Z</time>
      </trkpt>
      <trkpt lat="45.87198" lon="6.47463">
        <ele>1432</ele>
        <time>2019-09-03T23:52:22Z</time>
      </trkpt>
      <trkpt lat="45.87201" lon="6.47454">
        <ele>1434</ele>
        <time>2019-09-03T23:52:24Z</time>
      </trkpt>
      <trkpt lat="45.87197" lon="6.47446">
        <ele>1433</ele>
        <time>2019-09-03T23:52:25Z</time>
      </trkpt>
      <trkpt lat="45.87191" lon="6.4744">
        <ele>1431</ele>
        <time>2019-09-03T23:52:26Z</time>
      </trkpt>
      <trkpt lat="45.87169" lon="6.47435">
        <ele>1424</ele>
        <time>2019-09-03T23:52:30Z</time>
      </trkpt>
      <trkpt lat="45.87153" lon="6.47426">
        <ele>1426</ele>
        <time>2019-09-03T23:52:33Z</time>
      </trkpt>
      <trkpt lat="45.87152" lon="6.4742">
        <ele>1427</ele>
        <time>2019-09-03T23:52:34Z</time>
      </trkpt>
      <trkpt lat="45.87152" lon="6.47411">
        <ele>1428</ele>
        <time>2019-09-03T23:52:35Z</time>
      </trkpt>
      <trkpt lat="45.87155" lon="6.47404">
        <ele>1428</ele>
        <time>2019-09-03T23:52:36Z</time>
      </trkpt>
      <trkpt lat="45.87161" lon="6.474">
        <ele>1428</ele>
        <time>2019-09-03T23:52:37Z</time>
      </trkpt>
      <trkpt lat="45.87167" lon="6.474">
        <ele>1428</ele>
        <time>2019-09-03T23:52:38Z</time>
      </trkpt>
      <trkpt lat="45.87223" lon="6.4743">
        <ele>1444</ele>
        <time>2019-09-03T23:52:49Z</time>
      </trkpt>
      <trkpt lat="45.87231" lon="6.47427">
        <ele>1447</ele>
        <time>2019-09-03T23:52:50Z</time>
      </trkpt>
      <trkpt lat="45.87237" lon="6.47418">
        <ele>1450</ele>
        <time>2019-09-03T23:52:52Z</time>
      </trkpt>
      <trkpt lat="45.87237" lon="6.47413">
        <ele>1451</ele>
        <time>2019-09-03T23:52:53Z</time>
      </trkpt>
      <trkpt lat="45.87172" lon="6.47303">
        <ele>1444</ele>
        <time>2019-09-03T23:53:11Z</time>
      </trkpt>
      <trkpt lat="45.87142" lon="6.47197">
        <ele>1456</ele>
        <time>2019-09-03T23:53:25Z</time>
      </trkpt>
      <trkpt lat="45.8712" lon="6.47155">
        <ele>1458</ele>
        <time>2019-09-03T23:53:31Z</time>
      </trkpt>
      <trkpt lat="45.87104" lon="6.47102">
        <ele>1461</ele>
        <time>2019-09-03T23:53:38Z</time>
      </trkpt>
      <trkpt lat="45.8709" lon="6.46974">
        <ele>1466</ele>
        <time>2019-09-03T23:53:54Z</time>
      </trkpt>
      <trkpt lat="45.87089" lon="6.46958">
        <ele>1466</ele>
        <time>2019-09-03T23:53:56Z</time>
      </trkpt>
      <trkpt lat="45.87094" lon="6.46937">
        <ele>1468</ele>
        <time>2019-09-03T23:53:59Z</time>
      </trkpt>
      <trkpt lat="45.87101" lon="6.46921">
        <ele>1470</ele>
        <time>2019-09-03T23:54:02Z</time>
      </trkpt>
      <trkpt lat="45.8712" lon="6.46889">
        <ele>1474</ele>
        <time>2019-09-03T23:54:07Z</time>
      </trkpt>
      <trkpt lat="45.87139" lon="6.46868">
        <ele>1479</ele>
        <time>2019-09-03T23:54:11Z</time>
      </trkpt>
      <trkpt lat="45.87151" lon="6.46852">
        <ele>1482</ele>
        <time>2019-09-03T23:54:14Z</time>
      </trkpt>
      <trkpt lat="45.87158" lon="6.46796">
        <ele>1483</ele>
        <time>2019-09-03T23:54:21Z</time>
      </trkpt>
      <trkpt lat="45.87159" lon="6.46703">
        <ele>1483</ele>
        <time>2019-09-03T23:54:32Z</time>
      </trkpt>
      <trkpt lat="45.87163" lon="6.46679">
        <ele>1484</ele>
        <time>2019-09-03T23:54:36Z</time>
      </trkpt>
      <trkpt lat="45.87178" lon="6.46638">
        <ele>1486</ele>
        <time>2019-09-03T23:54:41Z</time>
      </trkpt>
      <trkpt lat="45.87184" lon="6.46618">
        <ele>1486</ele>
        <time>2019-09-03T23:54:44Z</time>
      </trkpt>
      <trkpt lat="45.87188" lon="6.4658">
        <ele>1486</ele>
        <time>2019-09-03T23:54:49Z</time>
      </trkpt>
      <trkpt lat="45.87195" lon="6.46556">
        <ele>1487</ele>
        <time>2019-09-03T23:54:52Z</time>
      </trkpt>
      <trkpt lat="45.87321" lon="6.46279">
        <ele>1485</ele>
        <time>2019-09-03T23:55:33Z</time>
      </trkpt>
      <trkpt lat="45.87372" lon="6.4617">
        <ele>1481</ele>
        <time>2019-09-03T23:55:49Z</time>
      </trkpt>
      <trkpt lat="45.87394" lon="6.46119">
        <ele>1480</ele>
        <time>2019-09-03T23:55:57Z</time>
      </trkpt>
      <trkpt lat="45.87405" lon="6.4607">
        <ele>1480</ele>
        <time>2019-09-03T23:56:03Z</time>
      </trkpt>
      <trkpt lat="45.87406" lon="6.46053">
        <ele>1480</ele>
        <time>2019-09-03T23:56:05Z</time>
      </trkpt>
      <trkpt lat="45.87414" lon="6.45769">
        <ele>1466</ele>
        <time>2019-09-03T23:56:40Z</time>
      </trkpt>
      <trkpt lat="45.87419" lon="6.45737">
        <ele>1464</ele>
        <time>2019-09-03T23:56:44Z</time>
      </trkpt>
      <trkpt lat="45.87428" lon="6.45707">
        <ele>1462</ele>
        <time>2019-09-03T23:56:48Z</time>
      </trkpt>
      <trkpt lat="45.8744" lon="6.45679">
        <ele>1461</ele>
        <time>2019-09-03T23:56:53Z</time>
      </trkpt>
      <trkpt lat="45.87472" lon="6.4563">
        <ele>1455</ele>
        <time>2019-09-03T23:57:01Z</time>
      </trkpt>
      <trkpt lat="45.87505" lon="6.45589">
        <ele>1448</ele>
        <time>2019-09-03T23:57:09Z</time>
      </trkpt>
      <trkpt lat="45.87549" lon="6.4555">
        <ele>1450</ele>
        <time>2019-09-03T23:57:18Z</time>
      </trkpt>
      <trkpt lat="45.8761" lon="6.45512">
        <ele>1451</ele>
        <time>2019-09-03T23:57:30Z</time>
      </trkpt>
      <trkpt lat="45.87615" lon="6.45504">
        <ele>1449</ele>
        <time>2019-09-03T23:57:31Z</time>
      </trkpt>
      <trkpt lat="45.87614" lon="6.45485">
        <ele>1445</ele>
        <time>2019-09-03T23:57:33Z</time>
      </trkpt>
      <trkpt lat="45.87598" lon="6.4547">
        <ele>1442</ele>
        <time>2019-09-03T23:57:37Z</time>
      </trkpt>
      <trkpt lat="45.87388" lon="6.45536">
        <ele>1438</ele>
        <time>2019-09-03T23:58:15Z</time>
      </trkpt>
      <trkpt lat="45.87373" lon="6.45531">
        <ele>1437</ele>
        <time>2019-09-03T23:58:18Z</time>
      </trkpt>
      <trkpt lat="45.87369" lon="6.45527">
        <ele>1437</ele>
        <time>2019-09-03T23:58:19Z</time>
      </trkpt>
      <trkpt lat="45.87364" lon="6.4552">
        <ele>1436</ele>
        <time>2019-09-03T23:58:20Z</time>
      </trkpt>
      <trkpt lat="45.87364" lon="6.4551">
        <ele>1435</ele>
        <time>2019-09-03T23:58:21Z</time>
      </trkpt>
      <trkpt lat="45.87366" lon="6.45495">
        <ele>1433</ele>
        <time>2019-09-03T23:58:23Z</time>
      </trkpt>
      <trkpt lat="45.87381" lon="6.45478">
        <ele>1430</ele>
        <time>2019-09-03T23:58:26Z</time>
      </trkpt>
      <trkpt lat="45.87516" lon="6.45423">
        <ele>1424</ele>
        <time>2019-09-03T23:58:51Z</time>
      </trkpt>
      <trkpt lat="45.8756" lon="6.4539">
        <ele>1420</ele>
        <time>2019-09-03T23:59:00Z</time>
      </trkpt>
      <trkpt lat="45.87619" lon="6.45327">
        <ele>1408</ele>
        <time>2019-09-03T23:59:13Z</time>
      </trkpt>
      <trkpt lat="45.87651" lon="6.45299">
        <ele>1406</ele>
        <time>2019-09-03T23:59:20Z</time>
      </trkpt>
      <trkpt lat="45.87677" lon="6.4528">
        <ele>1405</ele>
        <time>2019-09-03T23:59:25Z</time>
      </trkpt>
      <trkpt lat="45.87841" lon="6.45183">
        <ele>1392</ele>
        <time>2019-09-03T23:59:57Z</time>
      </trkpt>
      <trkpt lat="45.8786" lon="6.45166">
        <ele>1391</ele>
        <time>2019-09-04T00:00:01Z</time>
      </trkpt>
      <trkpt lat="45.87888" lon="6.45129">
        <ele>1390</ele>
        <time>2019-09-04T00:00:07Z</time>
      </trkpt>
      <trkpt lat="45.87899" lon="6.45107">
        <ele>1388</ele>
        <time>2019-09-04T00:00:11Z</time>
      </trkpt>
      <trkpt lat="45.87901" lon="6.45093">
        <ele>1386</ele>
        <time>2019-09-04T00:00:13Z</time>
      </trkpt>
      <trkpt lat="45.87896" lon="6.45085">
        <ele>1385</ele>
        <time>2019-09-04T00:00:14Z</time>
      </trkpt>
      <trkpt lat="45.87886" lon="6.45075">
        <ele>1382</ele>
        <time>2019-09-04T00:00:16Z</time>
      </trkpt>
      <trkpt lat="45.8787" lon="6.45079">
        <ele>1380</ele>
        <time>2019-09-04T00:00:19Z</time>
      </trkpt>
      <trkpt lat="45.87846" lon="6.4509">
        <ele>1379</ele>
        <time>2019-09-04T00:00:23Z</time>
      </trkpt>
      <trkpt lat="45.87824" lon="6.45096">
        <ele>1377</ele>
        <time>2019-09-04T00:00:27Z</time>
      </trkpt>
      <trkpt lat="45.87802" lon="6.45093">
        <ele>1376</ele>
        <time>2019-09-04T00:00:31Z</time>
      </trkpt>
      <trkpt lat="45.8778" lon="6.45088">
        <ele>1375</ele>
        <time>2019-09-04T00:00:35Z</time>
      </trkpt>
      <trkpt lat="45.87759" lon="6.45087">
        <ele>1374</ele>
        <time>2019-09-04T00:00:39Z</time>
      </trkpt>
      <trkpt lat="45.87727" lon="6.45102">
        <ele>1374</ele>
        <time>2019-09-04T00:00:45Z</time>
      </trkpt>
      <trkpt lat="45.87708" lon="6.45118">
        <ele>1376</ele>
        <time>2019-09-04T00:00:49Z</time>
      </trkpt>
      <trkpt lat="45.87698" lon="6.45119">
        <ele>1375</ele>
        <time>2019-09-04T00:00:51Z</time>
      </trkpt>
      <trkpt lat="45.87687" lon="6.45113">
        <ele>1373</ele>
        <time>2019-09-04T00:00:53Z</time>
      </trkpt>
      <trkpt lat="45.87683" lon="6.45095">
        <ele>1370</ele>
        <time>2019-09-04T00:00:55Z</time>
      </trkpt>
      <trkpt lat="45.8769" lon="6.45072">
        <ele>1368</ele>
        <time>2019-09-04T00:00:58Z</time>
      </trkpt>
      <trkpt lat="45.87769" lon="6.44966">
        <ele>1356</ele>
        <time>2019-09-04T00:01:17Z</time>
      </trkpt>
      <trkpt lat="45.87804" lon="6.44928">
        <ele>1353</ele>
        <time>2019-09-04T00:01:25Z</time>
      </trkpt>
      <trkpt lat="45.87926" lon="6.44843">
        <ele>1339</ele>
        <time>2019-09-04T00:01:49Z</time>
      </trkpt>
      <trkpt lat="45.87958" lon="6.44817">
        <ele>1340</ele>
        <time>2019-09-04T00:01:56Z</time>
      </trkpt>
      <trkpt lat="45.87973" lon="6.44796">
        <ele>1339</ele>
        <time>2019-09-04T00:02:00Z</time>
      </trkpt>
      <trkpt lat="45.87983" lon="6.4477">
        <ele>1338</ele>
        <time>2019-09-04T00:02:03Z</time>
      </trkpt>
      <trkpt lat="45.87994" lon="6.44718">
        <ele>1333</ele>
        <time>2019-09-04T00:02:10Z</time>
      </trkpt>
      <trkpt lat="45.88003" lon="6.44695">
        <ele>1331</ele>
        <time>2019-09-04T00:02:13Z</time>
      </trkpt>
      <trkpt lat="45.88019" lon="6.44673">
        <ele>1331</ele>
        <time>2019-09-04T00:02:17Z</time>
      </trkpt>
      <trkpt lat="45.88087" lon="6.44601">
        <ele>1330</ele>
        <time>2019-09-04T00:02:32Z</time>
      </trkpt>
      <trkpt lat="45.881" lon="6.44579">
        <ele>1328</ele>
        <time>2019-09-04T00:02:36Z</time>
      </trkpt>
      <trkpt lat="45.88111" lon="6.44554">
        <ele>1326</ele>
        <time>2019-09-04T00:02:40Z</time>
      </trkpt>
      <trkpt lat="45.8814" lon="6.4447">
        <ele>1321</ele>
        <time>2019-09-04T00:02:51Z</time>
      </trkpt>
      <trkpt lat="45.88157" lon="6.44439">
        <ele>1321</ele>
        <time>2019-09-04T00:02:56Z</time>
      </trkpt>
      <trkpt lat="45.88179" lon="6.44408">
        <ele>1323</ele>
        <time>2019-09-04T00:03:02Z</time>
      </trkpt>
      <trkpt lat="45.88181" lon="6.44396">
        <ele>1321</ele>
        <time>2019-09-04T00:03:03Z</time>
      </trkpt>
      <trkpt lat="45.88179" lon="6.44383">
        <ele>1317</ele>
        <time>2019-09-04T00:03:05Z</time>
      </trkpt>
      <trkpt lat="45.88174" lon="6.44374">
        <ele>1313</ele>
        <time>2019-09-04T00:03:06Z</time>
      </trkpt>
      <trkpt lat="45.88167" lon="6.4437">
        <ele>1308</ele>
        <time>2019-09-04T00:03:08Z</time>
      </trkpt>
      <trkpt lat="45.88155" lon="6.44372">
        <ele>1307</ele>
        <time>2019-09-04T00:03:10Z</time>
      </trkpt>
      <trkpt lat="45.88101" lon="6.44418">
        <ele>1307</ele>
        <time>2019-09-04T00:03:21Z</time>
      </trkpt>
      <trkpt lat="45.8805" lon="6.44458">
        <ele>1305</ele>
        <time>2019-09-04T00:03:31Z</time>
      </trkpt>
      <trkpt lat="45.88039" lon="6.4446">
        <ele>1305</ele>
        <time>2019-09-04T00:03:33Z</time>
      </trkpt>
      <trkpt lat="45.88029" lon="6.44456">
        <ele>1304</ele>
        <time>2019-09-04T00:03:35Z</time>
      </trkpt>
      <trkpt lat="45.88024" lon="6.44444">
        <ele>1303</ele>
        <time>2019-09-04T00:03:37Z</time>
      </trkpt>
      <trkpt lat="45.88021" lon="6.44426">
        <ele>1303</ele>
        <time>2019-09-04T00:03:39Z</time>
      </trkpt>
      <trkpt lat="45.88025" lon="6.4441">
        <ele>1302</ele>
        <time>2019-09-04T00:03:41Z</time>
      </trkpt>
      <trkpt lat="45.88033" lon="6.44396">
        <ele>1301</ele>
        <time>2019-09-04T00:03:43Z</time>
      </trkpt>
      <trkpt lat="45.8808" lon="6.44329">
        <ele>1290</ele>
        <time>2019-09-04T00:03:55Z</time>
      </trkpt>
      <trkpt lat="45.88103" lon="6.44319">
        <ele>1291</ele>
        <time>2019-09-04T00:03:59Z</time>
      </trkpt>
      <trkpt lat="45.88118" lon="6.4431">
        <ele>1292</ele>
        <time>2019-09-04T00:04:02Z</time>
      </trkpt>
      <trkpt lat="45.88133" lon="6.44293">
        <ele>1291</ele>
        <time>2019-09-04T00:04:06Z</time>
      </trkpt>
      <trkpt lat="45.88156" lon="6.44252">
        <ele>1285</ele>
        <time>2019-09-04T00:04:12Z</time>
      </trkpt>
      <trkpt lat="45.88167" lon="6.44242">
        <ele>1283</ele>
        <time>2019-09-04T00:04:15Z</time>
      </trkpt>
      <trkpt lat="45.88187" lon="6.44234">
        <ele>1288</ele>
        <time>2019-09-04T00:04:18Z</time>
      </trkpt>
      <trkpt lat="45.88203" lon="6.44221">
        <ele>1290</ele>
        <time>2019-09-04T00:04:22Z</time>
      </trkpt>
      <trkpt lat="45.88214" lon="6.44203">
        <ele>1289</ele>
        <time>2019-09-04T00:04:24Z</time>
      </trkpt>
      <trkpt lat="45.88245" lon="6.44134">
        <ele>1281</ele>
        <time>2019-09-04T00:04:35Z</time>
      </trkpt>
      <trkpt lat="45.88266" lon="6.44072">
        <ele>1276</ele>
        <time>2019-09-04T00:04:43Z</time>
      </trkpt>
      <trkpt lat="45.88275" lon="6.44023">
        <ele>1272</ele>
        <time>2019-09-04T00:04:49Z</time>
      </trkpt>
      <trkpt lat="45.88285" lon="6.43957">
        <ele>1267</ele>
        <time>2019-09-04T00:04:58Z</time>
      </trkpt>
      <trkpt lat="45.88293" lon="6.43928">
        <ele>1265</ele>
        <time>2019-09-04T00:05:02Z</time>
      </trkpt>
      <trkpt lat="45.88341" lon="6.43834">
        <ele>1267</ele>
        <time>2019-09-04T00:05:16Z</time>
      </trkpt>
      <trkpt lat="45.88349" lon="6.43806">
        <ele>1266</ele>
        <time>2019-09-04T00:05:20Z</time>
      </trkpt>
      <trkpt lat="45.88362" lon="6.43737">
        <ele>1259</ele>
        <time>2019-09-04T00:05:29Z</time>
      </trkpt>
      <trkpt lat="45.88378" lon="6.43688">
        <ele>1255</ele>
        <time>2019-09-04T00:05:35Z</time>
      </trkpt>
      <trkpt lat="45.88389" lon="6.43636">
        <ele>1248</ele>
        <time>2019-09-04T00:05:42Z</time>
      </trkpt>
      <trkpt lat="45.88399" lon="6.43606">
        <ele>1245</ele>
        <time>2019-09-04T00:05:46Z</time>
      </trkpt>
      <trkpt lat="45.88411" lon="6.43581">
        <ele>1243</ele>
        <time>2019-09-04T00:05:50Z</time>
      </trkpt>
      <trkpt lat="45.88448" lon="6.43539">
        <ele>1243</ele>
        <time>2019-09-04T00:05:58Z</time>
      </trkpt>
      <trkpt lat="45.88498" lon="6.43451">
        <ele>1236</ele>
        <time>2019-09-04T00:06:13Z</time>
      </trkpt>
      <trkpt lat="45.88516" lon="6.43425">
        <ele>1234</ele>
        <time>2019-09-04T00:06:17Z</time>
      </trkpt>
      <trkpt lat="45.88608" lon="6.43345">
        <ele>1227</ele>
        <time>2019-09-04T00:06:36Z</time>
      </trkpt>
      <trkpt lat="45.88639" lon="6.4333">
        <ele>1223</ele>
        <time>2019-09-04T00:06:42Z</time>
      </trkpt>
      <trkpt lat="45.88689" lon="6.43336">
        <ele>1224</ele>
        <time>2019-09-04T00:06:51Z</time>
      </trkpt>
      <trkpt lat="45.88703" lon="6.43333">
        <ele>1223</ele>
        <time>2019-09-04T00:06:53Z</time>
      </trkpt>
      <trkpt lat="45.88695" lon="6.4332">
        <ele>1221</ele>
        <time>2019-09-04T00:06:56Z</time>
      </trkpt>
      <trkpt lat="45.88629" lon="6.43286">
        <ele>1217</ele>
        <time>2019-09-04T00:07:08Z</time>
      </trkpt>
      <trkpt lat="45.88602" lon="6.43282">
        <ele>1216</ele>
        <time>2019-09-04T00:07:13Z</time>
      </trkpt>
      <trkpt lat="45.88555" lon="6.43313">
        <ele>1222</ele>
        <time>2019-09-04T00:07:22Z</time>
      </trkpt>
      <trkpt lat="45.88526" lon="6.43341">
        <ele>1226</ele>
        <time>2019-09-04T00:07:28Z</time>
      </trkpt>
      <trkpt lat="45.88467" lon="6.43418">
        <ele>1226</ele>
        <time>2019-09-04T00:07:43Z</time>
      </trkpt>
      <trkpt lat="45.88446" lon="6.43436">
        <ele>1226</ele>
        <time>2019-09-04T00:07:47Z</time>
      </trkpt>
      <trkpt lat="45.88427" lon="6.43456">
        <ele>1225</ele>
        <time>2019-09-04T00:07:51Z</time>
      </trkpt>
      <trkpt lat="45.88408" lon="6.43485">
        <ele>1227</ele>
        <time>2019-09-04T00:07:56Z</time>
      </trkpt>
      <trkpt lat="45.88377" lon="6.43553">
        <ele>1233</ele>
        <time>2019-09-04T00:08:06Z</time>
      </trkpt>
      <trkpt lat="45.88336" lon="6.43634">
        <ele>1234</ele>
        <time>2019-09-04T00:08:18Z</time>
      </trkpt>
      <trkpt lat="45.88316" lon="6.43664">
        <ele>1237</ele>
        <time>2019-09-04T00:08:24Z</time>
      </trkpt>
      <trkpt lat="45.88296" lon="6.43691">
        <ele>1239</ele>
        <time>2019-09-04T00:08:28Z</time>
      </trkpt>
      <trkpt lat="45.88285" lon="6.43697">
        <ele>1239</ele>
        <time>2019-09-04T00:08:31Z</time>
      </trkpt>
      <trkpt lat="45.88277" lon="6.43697">
        <ele>1239</ele>
        <time>2019-09-04T00:08:32Z</time>
      </trkpt>
      <trkpt lat="45.88271" lon="6.43694">
        <ele>1238</ele>
        <time>2019-09-04T00:08:33Z</time>
      </trkpt>
      <trkpt lat="45.88255" lon="6.43668">
        <ele>1237</ele>
        <time>2019-09-04T00:08:37Z</time>
      </trkpt>
      <trkpt lat="45.88258" lon="6.43553">
        <ele>1234</ele>
        <time>2019-09-04T00:08:52Z</time>
      </trkpt>
      <trkpt lat="45.8825" lon="6.43519">
        <ele>1234</ele>
        <time>2019-09-04T00:08:56Z</time>
      </trkpt>
      <trkpt lat="45.8822" lon="6.43433">
        <ele>1248</ele>
        <time>2019-09-04T00:09:08Z</time>
      </trkpt>
      <trkpt lat="45.88218" lon="6.43404">
        <ele>1252</ele>
        <time>2019-09-04T00:09:12Z</time>
      </trkpt>
      <trkpt lat="45.88229" lon="6.43366">
        <ele>1255</ele>
        <time>2019-09-04T00:09:17Z</time>
      </trkpt>
      <trkpt lat="45.88279" lon="6.43246">
        <ele>1255</ele>
        <time>2019-09-04T00:09:34Z</time>
      </trkpt>
    </trkseg>
  </trk>
</gpx>